ftp/pub/palmer/observations_modified/2019/March/original_files/AR190320_BASE.txt
Download
Sample DateTime Unit Id WS Avg 2min WD Avg 2min WGS 10min WGD 10min Air Temp Rel Humidity Dew Point Pyranometer Quantum Air Pressure Snow Level Rainfall PW Current Visibility CBase 1 CBase 2 CBase 3 Vert Vis
2019/03/20 00:00:01 BASE 1.89 229 4.68 181 1.0 100 1.0 0 0 989.9 NA 0.0000 UP 9999 1870 0 0 0
2019/03/20 00:01:00 BASE 2.24 249 3.81 185 1.0 100 1.0 0 0 989.9 NA 0.0000 UP 9999 1800 0 0 0
2019/03/20 00:02:00 BASE 1.90 273 3.76 273 1.0 100 1.0 0 0 989.9 NA 0.0000 UP 9999 1840 0 0 0
2019/03/20 00:03:00 BASE 2.13 267 3.76 273 0.9 100 0.9 0 0 989.9 NA 0.0000 UP 9999 1870 0 0 0
2019/03/20 00:04:00 BASE 2.69 254 4.12 278 0.9 100 0.9 0 0 989.9 NA 0.0000 UP 9999 1410 0 0 0
2019/03/20 00:05:01 BASE 2.76 244 4.12 278 1.0 100 1.0 0 0 989.9 NA 0.0000 UP 9999 2030 0 0 0
2019/03/20 00:06:00 BASE 3.18 238 4.12 239 1.0 100 1.0 0 0 989.9 NA 0.0000 UP 9999 1940 0 0 0
2019/03/20 00:07:00 BASE 3.62 242 4.78 261 1.0 100 1.0 0 0 989.9 NA 0.0000 UP 9999 2000 0 0 0
2019/03/20 00:08:00 BASE 3.43 229 4.78 261 1.0 100 1.0 0 0 989.9 NA 0.0000 UP 9999 2000 0 0 0
2019/03/20 00:09:00 BASE 3.66 220 4.78 261 0.9 100 0.9 0 0 989.9 NA 0.0000 UP 9999 2070 0 0 0
2019/03/20 00:10:00 BASE 4.06 217 5.09 225 0.8 100 0.8 0 0 989.9 NA 0.0000 UP 9999 2030 0 0 0
2019/03/20 00:11:00 BASE 3.90 222 5.09 225 0.7 100 0.7 0 0 989.9 NA 0.0000 9999 2070 0 0 0
2019/03/20 00:12:00 BASE 3.62 254 6.07 319 0.8 100 0.8 0 0 989.9 NA 0.0000 UP 9999 1970 0 0 0
2019/03/20 00:13:00 BASE 3.31 292 6.07 319 0.9 100 0.9 0 0 989.9 NA 0.0000 UP 9999 2000 0 0 0
2019/03/20 00:14:01 BASE 2.42 284 6.07 319 1.0 100 1.0 0 0 990.0 NA 0.0000 UP 9999 2000 0 0 0
2019/03/20 00:15:00 BASE 1.11 223 6.07 319 1.1 100 1.1 0 0 989.9 NA 0.0000 UP 9999 2130 0 0 0
2019/03/20 00:16:00 BASE 1.07 147 6.07 319 1.1 100 1.1 0 0 989.9 NA 0.0000 UP 9999 2100 0 0 0
2019/03/20 00:17:00 BASE 2.20 157 6.07 319 1.1 100 1.1 0 0 989.9 NA 0.0000 UP 9999 2000 0 0 0
2019/03/20 00:18:00 BASE 3.12 167 6.07 319 1.0 100 1.0 0 0 989.9 NA 0.0000 UP 9999 1940 0 0 0
2019/03/20 00:19:00 BASE 4.12 165 6.07 319 0.9 100 0.9 0 0 989.9 NA 0.0000 UP 9999 1940 0 0 0
2019/03/20 00:20:00 BASE 4.82 177 6.07 319 0.8 100 0.8 0 0 989.9 NA 0.0000 9999 1940 0 0 0
2019/03/20 00:21:00 BASE 4.30 182 6.07 319 0.8 100 0.8 0 0 989.9 NA 0.0000 9999 2000 0 0 0
2019/03/20 00:22:01 BASE 4.26 180 5.56 182 0.7 100 0.7 0 0 989.9 NA 0.0000 9999 2070 0 0 0
2019/03/20 00:23:00 BASE 4.55 175 5.56 182 0.7 100 0.7 0 0 989.9 NA 0.0000 9999 2070 0 0 0
2019/03/20 00:24:00 BASE 4.40 168 5.56 182 0.7 100 0.7 0 0 989.9 NA 0.0000 9999 2130 0 0 0
2019/03/20 00:25:00 BASE 4.86 160 5.56 182 0.7 100 0.7 0 0 989.8 NA 0.0000 9999 2200 0 0 0
2019/03/20 00:26:00 BASE 4.85 156 5.56 182 0.7 100 0.7 0 0 989.8 NA 0.0000 9999 2230 0 0 0
2019/03/20 00:27:00 BASE 4.29 151 5.56 182 0.7 100 0.7 0 0 989.8 NA 0.0000 9999 2230 0 0 0
2019/03/20 00:28:00 BASE 3.32 141 5.56 182 0.7 100 0.7 0 0 989.8 NA 0.0000 9999 2260 0 0 0
2019/03/20 00:29:00 BASE 2.71 144 5.56 182 0.7 100 0.7 0 0 989.8 NA 0.0000 9999 2260 0 0 0
2019/03/20 00:30:01 BASE 2.94 147 5.56 182 0.7 100 0.7 0 0 989.8 NA 0.0000 9999 2230 0 0 0
2019/03/20 00:31:00 BASE 3.10 149 5.56 182 0.8 100 0.8 0 0 989.8 NA 0.0000 9999 2230 0 0 0
2019/03/20 00:32:00 BASE 2.64 152 5.35 153 0.8 100 0.8 0 0 989.8 NA 0.0000 9999 2170 0 0 0
2019/03/20 00:33:00 BASE 2.02 146 5.35 153 0.9 100 0.9 0 0 989.8 NA 0.0000 9999 2260 0 0 0
2019/03/20 00:34:00 BASE 2.45 143 5.35 153 0.9 100 0.9 0 0 989.8 NA 0.0000 9999 2330 0 0 0
2019/03/20 00:35:00 BASE 3.36 142 4.84 159 1.0 100 1.0 0 0 989.8 NA 0.0000 9999 2260 0 0 0
2019/03/20 00:36:00 BASE 4.21 146 4.94 150 1.0 100 1.0 0 0 989.9 NA 0.0000 9999 2260 0 0 0
2019/03/20 00:37:00 BASE 4.81 152 5.25 150 1.0 100 1.0 0 0 989.9 NA 0.0000 9999 2260 0 0 0
2019/03/20 00:38:00 BASE 5.05 153 6.02 157 1.0 100 1.0 0 0 989.9 NA 0.0000 9999 2260 0 0 0
2019/03/20 00:39:00 BASE 5.28 158 6.74 159 1.0 100 1.0 0 0 989.9 NA 0.0000 9999 2300 0 0 0
2019/03/20 00:40:00 BASE 5.77 159 6.74 160 1.0 100 1.0 0 0 989.9 NA 0.0000 9999 2330 0 0 0
2019/03/20 00:41:00 BASE 6.25 156 7.10 159 1.0 100 1.0 0 0 989.9 NA 0.0000 9999 2360 0 0 0
2019/03/20 00:42:00 BASE 6.27 158 7.10 159 0.9 100 0.9 0 0 989.9 NA 0.0000 9999 2260 0 0 0
2019/03/20 00:43:00 BASE 5.76 158 7.10 159 0.9 100 0.9 0 0 989.9 NA 0.0000 9999 2260 0 0 0
2019/03/20 00:44:00 BASE 5.14 157 7.10 159 0.8 100 0.8 0 0 989.8 NA 0.0000 9999 2300 0 0 0
2019/03/20 00:45:00 BASE 5.31 158 7.10 159 0.8 100 0.8 0 0 989.8 NA 0.0000 9999 2300 0 0 0
2019/03/20 00:46:00 BASE 5.13 162 7.10 159 0.7 100 0.7 0 0 989.8 NA 0.0000 9999 2400 0 0 0
2019/03/20 00:47:00 BASE 4.65 158 7.10 159 0.7 100 0.7 0 0 989.8 NA 0.0000 9999 2430 0 0 0
2019/03/20 00:48:00 BASE 5.09 154 7.10 159 0.7 100 0.7 0 0 989.8 NA 0.0000 9999 2430 0 0 0
2019/03/20 00:49:00 BASE 4.94 151 7.10 159 0.6 100 0.6 0 0 989.8 NA 0.0000 9999 2330 4860 0 0
2019/03/20 00:50:00 BASE 4.93 147 7.10 159 0.6 100 0.6 0 0 989.8 NA 0.0000 9999 2360 0 0 0
2019/03/20 00:51:00 BASE 5.74 146 6.94 150 0.6 100 0.6 0 0 989.8 NA 0.0000 9999 2330 0 0 0
2019/03/20 00:52:00 BASE 5.66 146 6.94 150 0.6 100 0.6 0 0 989.8 NA 0.0000 9999 2400 0 0 0
2019/03/20 00:53:00 BASE 5.41 147 6.94 150 0.5 100 0.5 0 0 989.8 NA 0.0000 9999 2430 0 0 0
2019/03/20 00:54:00 BASE 5.75 148 6.94 150 0.5 100 0.5 0 0 989.8 NA 0.0000 9999 2430 0 0 0
2019/03/20 00:55:00 BASE 6.00 148 6.94 150 0.5 100 0.5 0 0 989.8 NA 0.0000 9999 2330 0 0 0
2019/03/20 00:56:00 BASE 5.97 146 6.94 150 0.5 100 0.5 0 0 989.8 NA 0.0000 9999 2330 0 0 0
2019/03/20 00:57:00 BASE 5.67 146 6.94 150 0.5 100 0.5 0 0 989.8 NA 0.0000 9999 2300 0 0 0
2019/03/20 00:58:00 BASE 5.02 145 6.94 150 0.5 100 0.5 0 0 989.8 NA 0.0000 9999 2360 4760 0 0
2019/03/20 00:59:00 BASE 4.94 146 6.94 150 0.5 100 0.5 0 0 989.8 NA 0.0000 9999 2300 4760 0 0
2019/03/20 01:00:00 BASE 4.76 144 6.58 146 0.5 100 0.5 0 0 989.8 NA 0.0000 9999 2260 0 0 0
2019/03/20 01:01:00 BASE 4.57 138 6.58 146 0.5 100 0.5 0 0 989.7 NA 0.0000 9999 2360 0 0 0
2019/03/20 01:02:00 BASE 4.48 136 6.58 146 0.5 100 0.5 0 0 989.7 NA 0.0000 9999 2300 0 0 0
2019/03/20 01:03:00 BASE 4.18 134 6.58 146 0.5 100 0.5 0 0 989.7 NA 0.0000 9999 2360 0 0 0
2019/03/20 01:04:00 BASE 4.95 134 6.58 146 0.6 100 0.6 0 0 989.7 NA 0.0000 9999 2300 0 0 0
2019/03/20 01:05:00 BASE 5.73 136 6.58 146 0.6 100 0.6 0 0 989.7 NA 0.0000 9999 2330 0 0 0
2019/03/20 01:06:00 BASE 5.79 137 6.33 133 0.6 100 0.6 0 0 989.7 NA 0.0000 9999 2360 4860 0 0
2019/03/20 01:07:00 BASE 5.83 138 6.33 133 0.6 100 0.6 0 0 989.7 NA 0.0000 9999 2330 0 0 0
2019/03/20 01:08:00 BASE 5.60 136 6.33 133 0.6 100 0.6 0 0 989.7 NA 0.0000 9999 2260 0 0 0
2019/03/20 01:09:00 BASE 5.17 136 6.33 133 0.6 100 0.6 0 0 989.7 NA 0.0000 9999 2260 0 0 0
2019/03/20 01:10:00 BASE 5.07 137 6.33 133 0.6 100 0.6 0 0 989.7 NA 0.0000 9999 2430 5120 0 0
2019/03/20 01:11:00 BASE 4.87 136 6.33 133 0.7 100 0.7 0 0 989.7 NA 0.0000 9999 2400 5090 0 0
2019/03/20 01:12:00 BASE 4.66 138 6.33 133 0.7 100 0.7 0 0 989.7 NA 0.0000 9999 2330 5050 0 0
2019/03/20 01:13:00 BASE 4.37 144 6.33 133 0.8 100 0.8 0 0 989.7 NA 0.0000 9999 2330 4990 0 0
2019/03/20 01:14:00 BASE 4.20 158 6.33 133 0.9 100 0.9 0 0 989.7 NA 0.0000 9999 2360 0 0 0
2019/03/20 01:15:00 BASE 4.44 167 6.28 132 0.9 100 0.9 0 0 989.7 NA 0.0000 9999 2300 5050 0 0
2019/03/20 01:16:00 BASE 4.68 162 6.28 132 0.9 100 0.9 0 0 989.7 NA 0.0000 9999 2460 4890 0 0
2019/03/20 01:17:00 BASE 4.71 154 6.28 132 0.8 100 0.8 0 0 989.6 NA 0.0000 9999 4920 0 0 0
2019/03/20 01:18:00 BASE 4.71 147 5.56 132 0.7 100 0.7 0 0 989.6 NA 0.0000 9999 4950 0 0 0
2019/03/20 01:19:00 BASE 4.57 144 5.56 132 0.7 100 0.7 0 0 989.6 NA 0.0000 9999 4950 0 0 0
2019/03/20 01:20:00 BASE 4.54 140 5.56 132 0.6 100 0.6 0 0 989.5 NA 0.0000 9999 4890 0 0 0
2019/03/20 01:21:00 BASE 4.93 135 5.40 131 0.6 100 0.6 0 0 989.5 NA 0.0000 9999 4860 0 0 0
2019/03/20 01:22:00 BASE 5.08 128 5.45 126 0.6 100 0.6 0 0 989.5 NA 0.0000 9999 2400 4820 0 0
2019/03/20 01:23:00 BASE 4.36 121 5.45 126 0.7 100 0.7 0 0 989.4 NA 0.0000 9999 2360 4860 0 0
2019/03/20 01:24:00 BASE 3.28 107 5.45 126 0.8 100 0.8 0 0 989.4 NA 0.0000 9999 2300 4920 0 0
2019/03/20 01:25:00 BASE 2.27 88 5.45 126 0.8 100 0.8 0 0 989.4 NA 0.0000 9999 2260 4990 0 0
2019/03/20 01:26:00 BASE 1.65 83 5.45 126 0.9 100 0.9 0 0 989.4 NA 0.0000 9999 4950 0 0 0
2019/03/20 01:27:00 BASE 1.63 98 5.45 126 1.0 100 1.0 0 0 989.4 NA 0.0000 9999 4920 0 0 0
2019/03/20 01:28:00 BASE 1.25 115 5.45 126 1.0 100 1.0 0 0 989.4 NA 0.0000 9999 4950 0 0 0
2019/03/20 01:29:00 BASE 0.58 141 5.45 126 1.0 100 1.0 0 0 989.4 NA 0.0000 9999 5020 0 0 0
2019/03/20 01:30:00 BASE 0.94 161 5.45 126 1.0 100 1.0 0 0 989.4 NA 0.0000 9999 4990 0 0 0
2019/03/20 01:31:00 BASE 1.09 168 5.45 126 1.0 100 1.0 0 0 989.4 NA 0.0000 9999 5020 0 0 0
2019/03/20 01:32:00 BASE 0.97 173 4.48 122 0.9 100 0.9 0 0 989.4 NA 0.0000 9999 0 0 0 0
2019/03/20 01:33:00 BASE 1.54 176 3.45 110 0.8 100 0.8 0 0 989.4 NA 0.0000 9999 0 0 0 0
2019/03/20 01:34:00 BASE 1.77 174 2.62 95 0.7 100 0.7 0 0 989.4 NA 0.0000 9999 0 0 0 0
2019/03/20 01:35:00 BASE 1.73 161 2.16 91 0.7 100 0.7 0 0 989.4 NA 0.0000 9999 0 0 0 0
2019/03/20 01:36:00 BASE 1.70 152 2.16 91 0.6 100 0.6 0 0 989.4 NA 0.0000 9999 0 0 0 0
2019/03/20 01:37:00 BASE 1.69 156 2.11 171 0.6 100 0.6 0 0 989.4 NA 0.0000 9999 0 0 0 0
2019/03/20 01:38:00 BASE 1.45 149 2.11 171 0.6 100 0.6 0 0 989.3 NA 0.0000 9999 0 0 0 0
2019/03/20 01:39:00 BASE 1.00 132 2.11 171 0.6 100 0.6 0 0 989.3 NA 0.0000 9999 0 0 0 0
2019/03/20 01:40:00 BASE 0.49 116 2.11 171 0.6 100 0.6 0 0 989.3 NA 0.0000 9999 0 0 0 0
2019/03/20 01:41:00 BASE 0.10 112 2.11 171 0.6 100 0.6 0 0 989.3 NA 0.0000 9999 0 0 0 0
2019/03/20 01:42:00 BASE 0.35 93 2.11 171 0.7 100 0.7 0 0 989.2 NA 0.0000 9999 2760 4950 0 0
2019/03/20 01:43:00 BASE 1.11 73 2.57 95 0.8 100 0.8 0 0 989.2 NA 0.0000 9999 4890 0 0 0
2019/03/20 01:44:01 BASE 2.59 85 4.22 96 0.8 100 0.8 0 0 989.2 NA 0.0000 9999 0 0 0 0
2019/03/20 01:45:00 BASE 3.56 83 4.22 96 0.9 100 0.9 0 0 989.2 NA 0.0000 9999 0 0 0 0
2019/03/20 01:46:00 BASE 3.15 78 4.22 96 0.9 100 0.9 0 0 989.2 NA 0.0000 9999 0 0 0 0
2019/03/20 01:47:00 BASE 2.55 74 4.22 96 1.0 100 1.0 0 0 989.2 NA 0.0000 9999 0 0 0 0
2019/03/20 01:48:00 BASE 2.06 49 4.22 96 1.0 100 1.0 0 0 989.1 NA 0.0000 9999 0 0 0 0
2019/03/20 01:49:00 BASE 1.53 7 4.22 96 1.0 100 1.0 0 0 989.1 NA 0.0000 9999 0 0 0 0
2019/03/20 01:50:00 BASE 1.36 345 4.22 96 1.0 100 1.0 0 0 989.1 NA 0.0000 9999 0 0 0 0
2019/03/20 01:51:00 BASE 1.00 345 4.22 96 1.0 100 1.0 0 0 989.1 NA 0.0000 9999 0 0 0 0
2019/03/20 01:52:00 BASE 0.57 337 4.22 96 1.0 100 1.0 0 0 989.1 NA 0.0000 9999 0 0 0 0
2019/03/20 01:53:00 BASE 1.19 330 4.22 96 1.0 100 1.0 0 0 989.1 NA 0.0000 9999 0 0 0 0
2019/03/20 01:54:00 BASE 1.61 341 3.91 77 1.0 100 1.0 0 0 989.1 NA 0.0000 9999 0 0 0 0
2019/03/20 01:55:00 BASE 1.02 3 3.24 74 1.0 100 1.0 0 0 989.1 NA 0.0000 9999 0 0 0 0
2019/03/20 01:56:00 BASE 0.46 15 2.52 76 1.0 100 1.0 0 0 989.1 NA 0.0000 9999 0 0 0 0
2019/03/20 01:57:00 BASE 0.30 20 2.31 324 1.0 100 1.0 0 0 989.1 NA 0.0000 9999 0 0 0 0
2019/03/20 01:58:00 BASE 0.63 20 2.31 324 1.0 100 1.0 0 0 989.1 NA 0.0000 9999 0 0 0 0
2019/03/20 01:59:00 BASE 1.46 31 2.42 40 1.0 100 1.0 0 0 989.1 NA 0.0000 9999 0 0 0 0
2019/03/20 02:00:00 BASE 1.66 49 2.42 40 1.0 100 1.0 0 0 989.1 NA 0.0000 9999 0 0 0 0
2019/03/20 02:01:00 BASE 1.41 50 2.42 40 1.1 100 1.1 0 0 989.1 NA 0.0000 9999 0 0 0 0
2019/03/20 02:02:01 BASE 0.79 55 2.42 40 1.1 100 1.1 0 0 989.0 NA 0.0000 9999 0 0 0 0
2019/03/20 02:03:00 BASE 0.10 60 2.42 40 1.2 100 1.2 0 0 989.0 NA 0.0000 9999 2490 0 0 0
2019/03/20 02:04:00 BASE 0.00 55 2.42 40 1.2 100 1.2 0 0 989.0 NA 0.0000 9999 0 0 0 0
2019/03/20 02:05:00 BASE 0.00 50 2.42 40 1.3 100 1.3 0 0 989.0 NA 0.0000 9999 2490 0 0 0
2019/03/20 02:06:00 BASE 0.00 50 2.42 40 1.2 100 1.2 0 0 989.0 NA 0.0000 9999 2490 0 0 0
2019/03/20 02:07:00 BASE 0.00 99 2.42 40 1.1 100 1.1 0 0 989.0 NA 0.0000 9999 2530 0 0 0
2019/03/20 02:08:00 BASE 0.00 15 2.42 40 1.0 100 1.0 0 0 988.9 NA 0.0000 9999 0 0 0 0
2019/03/20 02:09:00 BASE 0.04 4 1.80 44 0.9 100 0.9 0 0 988.9 NA 0.0000 9999 2560 0 0 0
2019/03/20 02:10:00 BASE 0.18 349 1.54 48 0.8 100 0.8 0 0 988.9 NA 0.0000 9999 2490 0 0 0
2019/03/20 02:11:00 BASE 0.69 335 1.34 333 0.8 100 0.8 0 0 988.9 NA 0.0000 9999 0 0 0 0
2019/03/20 02:12:00 BASE 1.00 342 1.34 338 0.8 100 0.8 0 0 988.9 NA 0.0000 9999 0 0 0 0
2019/03/20 02:13:00 BASE 0.81 355 1.34 338 0.8 100 0.8 0 0 988.9 NA 0.0000 9999 2460 0 0 0
2019/03/20 02:14:00 BASE 0.37 357 1.34 338 0.8 100 0.8 0 0 988.9 NA 0.0000 9999 2460 0 0 0
2019/03/20 02:15:00 BASE 0.00 349 1.34 338 0.8 100 0.8 0 0 988.8 NA 0.0000 9999 2460 0 0 0
2019/03/20 02:16:00 BASE 0.00 332 1.34 338 0.8 100 0.8 0 0 988.7 NA 0.0000 9999 2400 0 0 0
2019/03/20 02:17:00 BASE 0.00 325 1.34 338 0.8 100 0.8 0 0 988.7 NA 0.0000 9999 0 0 0 0
2019/03/20 02:18:00 BASE 0.00 333 1.34 338 0.8 100 0.8 0 0 988.7 NA 0.0000 9999 0 0 0 0
2019/03/20 02:19:00 BASE 0.05 330 1.34 338 0.8 100 0.8 0 0 988.7 NA 0.0000 9999 0 0 0 0
2019/03/20 02:20:00 BASE 0.67 322 1.39 318 0.7 100 0.7 0 0 988.7 NA 0.0000 9999 0 0 0 0
2019/03/20 02:21:00 BASE 1.33 318 1.49 318 0.7 100 0.7 0 0 988.7 NA 0.0000 9999 0 0 0 0
2019/03/20 02:22:00 BASE 1.51 323 1.75 340 0.6 100 0.6 0 0 988.7 NA 0.0000 9999 0 0 0 0
2019/03/20 02:23:00 BASE 1.73 335 2.21 344 0.6 100 0.6 0 0 988.7 NA 0.0000 9999 0 0 0 0
2019/03/20 02:24:00 BASE 1.91 346 2.26 1 0.6 100 0.6 0 0 988.7 NA 0.0000 9999 0 0 0 0
2019/03/20 02:25:00 BASE 2.25 346 2.83 344 0.5 100 0.5 0 0 988.7 NA 0.0000 9999 0 0 0 0
2019/03/20 02:26:00 BASE 2.66 344 3.09 348 0.5 100 0.5 0 0 988.7 NA 0.0000 9999 0 0 0 0
2019/03/20 02:27:00 BASE 2.72 343 3.09 348 0.5 100 0.5 0 0 988.7 NA 0.0000 9999 0 0 0 0
2019/03/20 02:28:00 BASE 3.00 337 4.12 330 0.4 100 0.4 0 0 988.7 NA 0.0000 9999 0 0 0 0
2019/03/20 02:29:00 BASE 3.20 331 4.12 330 0.4 100 0.4 0 0 988.7 NA 0.0000 9999 0 0 0 0
2019/03/20 02:30:00 BASE 2.87 327 4.12 330 0.4 100 0.4 0 0 988.7 NA 0.0000 9999 0 0 0 0
2019/03/20 02:31:00 BASE 2.62 324 4.42 344 0.4 100 0.4 0 0 988.7 NA 0.0000 9999 0 0 0 0
2019/03/20 02:32:00 BASE 3.06 329 4.42 344 0.4 100 0.4 0 0 988.7 NA 0.0000 9999 0 0 0 0
2019/03/20 02:33:00 BASE 3.14 333 4.42 344 0.4 100 0.4 0 0 988.7 NA 0.0000 9999 0 0 0 0
2019/03/20 02:34:00 BASE 2.53 337 4.42 344 0.4 100 0.4 0 0 988.7 NA 0.0000 9999 0 0 0 0
2019/03/20 02:35:00 BASE 2.19 351 4.42 344 0.4 100 0.4 0 0 988.7 NA 0.0000 9999 0 0 0 0
2019/03/20 02:36:00 BASE 2.59 9 4.42 344 0.5 100 0.5 0 0 988.7 NA 0.0000 9999 0 0 0 0
2019/03/20 02:37:00 BASE 3.03 21 4.42 344 0.6 100 0.6 0 0 988.7 NA 0.0000 9999 0 0 0 0
2019/03/20 02:38:00 BASE 2.80 24 4.42 344 0.6 100 0.6 0 0 988.7 NA 0.0000 9999 0 0 0 0
2019/03/20 02:39:00 BASE 2.29 34 4.42 344 0.6 100 0.6 0 0 988.7 NA 0.0000 9999 0 0 0 0
2019/03/20 02:40:00 BASE 1.79 42 4.42 344 0.7 100 0.6 0 0 988.7 NA 0.0000 9999 0 0 0 0
2019/03/20 02:41:00 BASE 1.93 41 4.22 16 0.7 99 0.6 0 0 988.7 NA 0.0000 9999 0 0 0 0
2019/03/20 02:42:00 BASE 2.37 36 4.22 16 0.6 99 0.5 0 0 988.7 NA 0.0000 9999 0 0 0 0
2019/03/20 02:43:00 BASE 2.33 37 4.22 16 0.6 99 0.5 0 0 988.7 NA 0.0000 9999 0 0 0 0
2019/03/20 02:44:00 BASE 1.59 25 4.22 16 0.6 99 0.5 0 0 988.7 NA 0.0000 9999 0 0 0 0
2019/03/20 02:45:00 BASE 0.73 43 4.22 16 0.6 99 0.5 0 0 988.7 NA 0.0000 9999 0 0 0 0
2019/03/20 02:46:00 BASE 0.54 76 3.65 32 0.6 99 0.5 0 0 988.7 NA 0.0000 9999 0 0 0 0
2019/03/20 02:47:00 BASE 0.47 60 3.65 32 0.6 99 0.4 0 0 988.7 NA 0.0000 9999 0 0 0 0
2019/03/20 02:48:00 BASE 0.99 62 3.65 32 0.6 99 0.4 0 0 988.7 NA 0.0000 9999 0 0 0 0
2019/03/20 02:49:00 BASE 1.65 81 3.65 32 0.5 99 0.3 0 0 988.7 NA 0.0000 9999 0 0 0 0
2019/03/20 02:50:00 BASE 1.57 70 3.65 32 0.4 99 0.3 0 0 988.7 NA 0.0000 9999 0 0 0 0
2019/03/20 02:51:00 BASE 2.06 41 3.65 32 0.4 100 0.4 0 0 988.7 NA 0.0000 9999 0 0 0 0
2019/03/20 02:52:00 BASE 2.28 11 3.34 12 0.5 100 0.5 0 0 988.7 NA 0.0000 9999 0 0 0 0
2019/03/20 02:53:00 BASE 1.99 357 3.34 12 0.6 100 0.6 0 0 988.7 NA 0.0000 9999 0 0 0 0
2019/03/20 02:54:00 BASE 2.16 4 3.34 12 0.7 100 0.6 0 0 988.7 NA 0.0000 9999 0 0 0 0
2019/03/20 02:55:00 BASE 2.48 13 4.12 345 0.8 99 0.6 0 0 988.7 NA 0.0000 9999 0 0 0 0
2019/03/20 02:56:00 BASE 4.54 359 7.25 347 0.8 98 0.6 0 0 988.6 NA 0.0000 9999 0 0 0 0
2019/03/20 02:57:00 BASE 6.82 348 7.77 354 0.7 98 0.4 0 0 988.5 NA 0.0000 9999 0 0 0 0
2019/03/20 02:58:00 BASE 6.82 356 7.77 354 0.6 98 0.3 0 0 988.5 NA 0.0000 9999 0 0 0 0
2019/03/20 02:59:00 BASE 6.39 355 7.77 354 0.5 98 0.2 0 0 988.5 NA 0.0000 9999 0 0 0 0
2019/03/20 03:00:00 BASE 6.39 350 7.77 354 0.4 98 0.1 0 0 988.5 NA 0.0000 9999 0 0 0 0
2019/03/20 03:01:00 BASE 6.42 349 7.77 354 0.4 98 0.1 0 0 988.5 NA 0.0000 9999 0 0 0 0
2019/03/20 03:02:00 BASE 6.09 345 7.77 354 0.3 98 0.1 0 0 988.5 NA 0.0000 9999 0 0 0 0
2019/03/20 03:03:00 BASE 5.60 342 7.77 354 0.3 99 0.1 0 0 988.5 NA 0.0000 9999 0 0 0 0
2019/03/20 03:04:00 BASE 5.59 341 7.77 354 0.2 99 0.1 0 0 988.5 NA 0.0000 9999 0 0 0 0
2019/03/20 03:05:00 BASE 6.10 341 7.77 354 0.1 100 0.0 0 0 988.5 NA 0.0000 9999 0 0 0 0
2019/03/20 03:06:00 BASE 6.78 341 7.77 354 0.0 100 -0.0 0 0 988.4 NA 0.0000 9999 0 0 0 0
2019/03/20 03:07:00 BASE 7.41 342 7.97 340 -0.1 100 -0.1 0 0 988.4 NA 0.0000 9999 0 0 0 0
2019/03/20 03:08:00 BASE 7.58 342 7.97 340 -0.1 100 -0.1 0 0 988.4 NA 0.0000 9999 0 0 0 0
2019/03/20 03:09:00 BASE 7.53 341 7.97 340 -0.1 100 -0.1 0 0 988.4 NA 0.0000 9999 0 0 0 0
2019/03/20 03:10:00 BASE 7.65 341 8.59 342 -0.2 100 -0.2 0 0 988.4 NA 0.0000 9999 0 0 0 0
2019/03/20 03:11:00 BASE 7.83 344 8.59 342 -0.2 100 -0.2 0 0 988.4 NA 0.0000 9999 0 0 0 0
2019/03/20 03:12:00 BASE 7.49 349 8.59 342 -0.2 100 -0.2 0 0 988.4 NA 0.0000 9999 0 0 0 0
2019/03/20 03:13:00 BASE 6.99 352 8.59 342 -0.2 100 -0.2 0 0 988.3 NA 0.0000 9999 0 0 0 0
2019/03/20 03:14:00 BASE 6.66 350 8.59 342 -0.1 100 -0.1 0 0 988.3 NA 0.0000 9999 0 0 0 0
2019/03/20 03:15:00 BASE 6.18 348 8.59 342 -0.1 100 -0.1 0 0 988.3 NA 0.0000 9999 0 0 0 0
2019/03/20 03:16:00 BASE 5.65 352 8.59 342 -0.1 100 -0.1 0 0 988.3 NA 0.0000 9999 0 0 0 0
2019/03/20 03:17:00 BASE 5.02 357 8.59 342 -0.0 100 -0.0 0 0 988.3 NA 0.0000 9999 0 0 0 0
2019/03/20 03:18:00 BASE 4.60 355 8.59 342 0.0 100 0.0 0 0 988.3 NA 0.0000 9999 0 0 0 0
2019/03/20 03:19:00 BASE 4.48 354 8.59 342 0.1 100 0.1 0 0 988.3 NA 0.0000 9999 0 0 0 0
2019/03/20 03:20:00 BASE 4.22 360 8.28 345 0.1 100 0.1 0 0 988.3 NA 0.0000 9999 0 0 0 0
2019/03/20 03:21:00 BASE 3.56 13 7.46 350 0.1 100 0.1 0 0 988.3 NA 0.0000 9999 0 0 0 0
2019/03/20 03:22:00 BASE 3.11 23 7.31 351 0.1 100 0.1 0 0 988.3 NA 0.0000 9999 0 0 0 0
2019/03/20 03:23:00 BASE 3.35 22 7.20 352 0.0 100 0.0 0 0 988.3 NA 0.0000 9999 0 0 0 0
2019/03/20 03:24:00 BASE 3.71 24 6.33 350 -0.0 100 -0.0 0 0 988.3 NA 0.0000 9999 0 0 0 0
2019/03/20 03:25:00 BASE 3.93 24 5.71 354 -0.1 100 -0.1 0 0 988.2 NA 0.0000 9999 0 0 0 0
2019/03/20 03:26:00 BASE 3.74 20 5.14 360 -0.1 100 -0.1 0 0 988.2 NA 0.0000 9999 0 0 0 0
2019/03/20 03:27:00 BASE 3.52 23 4.99 349 -0.1 100 -0.1 0 0 988.2 NA 0.0000 9999 0 0 0 0
2019/03/20 03:28:00 BASE 3.31 27 4.63 314 -0.1 100 -0.1 0 0 988.2 NA 0.0000 9999 0 0 0 0
2019/03/20 03:29:00 BASE 2.87 31 4.37 3 -0.1 100 -0.1 0 0 988.2 NA 0.0000 9999 0 0 0 0
2019/03/20 03:30:00 BASE 2.68 33 4.27 20 -0.1 100 -0.1 0 0 988.2 NA 0.0000 9999 0 0 0 0
2019/03/20 03:31:00 BASE 2.87 32 4.27 20 -0.1 100 -0.1 0 0 988.2 NA 0.0000 9999 0 0 0 0
2019/03/20 03:32:00 BASE 2.98 31 4.27 20 -0.0 100 -0.0 0 0 988.2 NA 0.0000 9999 0 0 0 0
2019/03/20 03:33:00 BASE 2.82 32 4.27 20 0.0 100 0.0 0 0 988.2 NA 0.0000 9999 0 0 0 0
2019/03/20 03:34:00 BASE 2.74 38 4.27 20 0.0 100 0.0 0 0 988.2 NA 0.0000 9999 0 0 0 0
2019/03/20 03:35:00 BASE 2.65 36 4.01 36 0.1 99 -0.0 0 0 988.2 NA 0.0000 9999 0 0 0 0
2019/03/20 03:36:00 BASE 2.57 31 4.01 36 0.1 99 -0.0 0 0 988.2 NA 0.0000 9999 0 0 0 0
2019/03/20 03:37:00 BASE 2.59 30 3.81 27 0.2 99 -0.0 0 0 988.2 NA 0.0000 9999 0 0 0 0
2019/03/20 03:38:00 BASE 2.42 24 3.34 25 0.2 98 -0.1 0 0 988.1 NA 0.0000 9999 0 0 0 0
2019/03/20 03:39:00 BASE 2.13 19 3.34 25 0.3 98 -0.1 0 0 988.1 NA 0.0000 9999 0 0 0 0
2019/03/20 03:40:00 BASE 1.90 15 3.34 25 0.3 97 -0.1 0 0 988.0 NA 0.0000 9999 0 0 0 0
2019/03/20 03:41:00 BASE 1.65 12 3.34 25 0.4 97 -0.1 0 0 988.0 NA 0.0000 9999 0 0 0 0
2019/03/20 03:42:00 BASE 1.55 11 3.34 25 0.4 96 -0.1 0 0 988.0 NA 0.0000 9999 0 0 0 0
2019/03/20 03:43:00 BASE 1.46 16 3.34 25 0.4 96 -0.1 0 0 988.0 NA 0.0000 9999 0 0 0 0
2019/03/20 03:44:00 BASE 1.21 16 3.34 25 0.4 96 -0.1 0 0 988.0 NA 0.0000 9999 0 0 0 0
2019/03/20 03:45:00 BASE 0.55 5 2.98 19 0.5 97 0.0 0 0 988.0 NA 0.0000 9999 0 0 0 0
2019/03/20 03:46:00 BASE 0.00 355 2.98 19 0.5 97 0.1 0 0 988.0 NA 0.0000 9999 0 0 0 0
2019/03/20 03:47:00 BASE 0.00 353 2.62 14 0.6 97 0.1 0 0 988.0 NA 0.0000 9999 0 0 0 0
2019/03/20 03:48:00 BASE 0.10 4 2.16 12 0.6 97 0.2 0 0 987.9 NA 0.0000 9999 0 0 0 0
2019/03/20 03:49:00 BASE 0.84 22 2.06 2 0.6 97 0.2 0 0 987.9 NA 0.0000 9999 0 0 0 0
2019/03/20 03:50:00 BASE 1.39 35 2.01 1 0.6 97 0.1 0 0 987.9 NA 0.0000 9999 0 0 0 0
2019/03/20 03:51:00 BASE 0.75 50 2.01 1 0.5 97 0.1 0 0 987.9 NA 0.0000 9999 0 0 0 0
2019/03/20 03:52:00 BASE 0.13 57 1.59 33 0.5 97 0.1 0 0 987.9 NA 0.0000 9999 0 0 0 0
2019/03/20 03:53:00 BASE 0.04 49 1.59 33 0.4 97 0.1 0 0 987.9 NA 0.0000 9999 0 0 0 0
2019/03/20 03:54:00 BASE 0.00 40 1.59 33 0.4 98 0.1 0 0 987.9 NA 0.0000 9999 0 0 0 0
2019/03/20 03:55:00 BASE 0.00 6 1.59 33 0.5 98 0.1 0 0 987.9 NA 0.0000 9999 0 0 0 0
2019/03/20 03:56:00 BASE 0.00 313 1.59 33 0.5 98 0.2 0 0 987.9 NA 0.0000 9999 0 0 0 0
2019/03/20 03:57:00 BASE 0.00 302 1.59 33 0.6 98 0.3 0 0 987.9 NA 0.0000 9999 0 0 0 0
2019/03/20 03:58:00 BASE 0.00 312 1.59 33 0.6 98 0.4 0 0 987.9 NA 0.0000 9999 0 0 0 0
2019/03/20 03:59:00 BASE 0.00 293 1.54 33 0.7 99 0.5 0 0 987.9 NA 0.0000 9999 0 0 0 0
2019/03/20 04:00:00 BASE 0.46 150 1.44 137 0.6 99 0.4 0 0 987.9 NA 0.0000 9999 0 0 0 0
2019/03/20 04:01:00 BASE 1.13 141 1.54 143 0.4 99 0.3 0 0 987.9 NA 0.0000 9999 0 0 0 0
2019/03/20 04:02:00 BASE 1.06 151 1.54 143 0.3 99 0.2 0 0 987.9 NA 0.0000 9999 0 0 0 0
2019/03/20 04:03:00 BASE 0.43 160 1.54 143 0.2 99 0.1 0 0 987.9 NA 0.0000 9999 0 0 0 0
2019/03/20 04:04:00 BASE 0.05 168 1.54 143 0.1 100 0.0 0 0 987.9 NA 0.0000 9999 0 0 0 0
2019/03/20 04:06:04 BASE 0.00 168 1.54 143 0.1 100 0.1 0 0 987.9 NA 0.0000 9999 0 0 0 0
2019/03/20 04:07:04 BASE 0.00 169 1.54 143 0.2 100 0.2 0 0 987.8 NA 0.0000 9999 0 0 0 0
2019/03/20 04:08:04 BASE 0.00 173 1.54 143 0.3 100 0.3 0 0 987.8 NA 0.0000 9999 0 0 0 0
2019/03/20 04:09:04 BASE 0.00 170 1.54 143 0.4 100 0.4 0 0 987.8 NA 0.0000 9999 0 0 0 0
2019/03/20 04:10:03 BASE 0.70 163 1.80 160 0.4 100 0.4 0 0 987.8 NA 0.0000 9999 0 0 0 0
2019/03/20 04:11:03 BASE 1.69 158 2.26 155 0.4 100 0.4 0 0 987.7 NA 0.0000 9999 0 0 0 0
2019/03/20 04:12:03 BASE 2.15 153 2.42 147 0.3 100 0.3 0 0 987.7 NA 0.0000 9999 0 0 0 0
2019/03/20 04:13:03 BASE 2.14 143 2.42 147 0.3 100 0.3 0 0 987.7 NA 0.0000 9999 0 0 0 0
2019/03/20 04:14:02 BASE 1.81 129 2.42 147 0.1 100 0.1 0 0 987.7 NA 0.0000 9999 0 0 0 0
2019/03/20 04:15:03 BASE 1.80 112 2.42 147 0.0 100 0.0 0 0 987.7 NA 0.0000 9999 0 0 0 0
2019/03/20 04:16:03 BASE 2.22 94 2.88 73 -0.1 100 -0.1 0 0 987.6 NA 0.0000 9999 0 0 0 0
2019/03/20 04:17:03 BASE 2.46 81 2.88 73 -0.1 100 -0.1 0 0 987.6 NA 0.0000 9999 0 0 0 0
2019/03/20 04:18:03 BASE 2.17 71 2.88 73 -0.2 100 -0.2 0 0 987.6 NA 0.0000 9999 0 0 0 0
2019/03/20 04:19:03 BASE 1.70 48 2.88 73 -0.2 100 -0.2 0 0 987.6 NA 0.0000 9999 0 0 0 0
2019/03/20 04:20:03 BASE 1.57 32 2.88 73 -0.1 99 -0.3 0 0 987.6 NA 0.0000 9999 0 0 0 0
2019/03/20 04:21:03 BASE 1.53 26 2.88 73 -0.1 98 -0.4 0 0 987.6 NA 0.0000 9999 0 0 0 0
2019/03/20 04:22:03 BASE 1.62 25 2.88 73 -0.1 97 -0.6 0 0 987.6 NA 0.0000 9999 0 0 0 0
2019/03/20 04:23:03 BASE 1.85 38 2.88 73 -0.1 95 -0.8 0 0 987.5 NA 0.0000 9999 0 0 0 0
2019/03/20 04:24:02 BASE 1.62 51 2.88 73 -0.2 94 -1.0 0 0 987.4 NA 0.0000 9999 0 0 0 0
2019/03/20 04:25:03 BASE 1.18 81 2.88 73 -0.2 93 -1.2 0 0 987.4 NA 0.0000 9999 0 0 0 0
2019/03/20 04:26:04 BASE 1.63 116 2.78 76 -0.2 93 -1.3 0 0 987.3 NA 0.0000 9999 0 0 0 0
2019/03/20 04:27:03 BASE 2.65 133 3.45 145 -0.2 92 -1.3 0 0 987.3 NA 0.0000 9999 0 0 0 0
2019/03/20 04:28:03 BASE 3.32 140 3.86 143 -0.2 92 -1.3 0 0 987.3 NA 0.0000 9999 0 0 0 0
2019/03/20 04:29:03 BASE 3.61 136 3.86 143 -0.1 92 -1.2 0 0 987.3 NA 0.0000 9999 0 0 0 0
2019/03/20 04:30:03 BASE 3.60 132 3.86 143 0.0 92 -1.1 0 0 987.3 NA 0.0000 9999 0 0 0 0
2019/03/20 04:31:03 BASE 3.16 136 3.86 143 0.2 93 -0.9 0 0 987.3 NA 0.0000 9999 0 0 0 0
2019/03/20 04:32:03 BASE 2.59 136 3.86 143 0.3 93 -0.7 0 0 987.3 NA 0.0000 9999 0 0 0 0
2019/03/20 04:33:03 BASE 2.17 123 3.86 143 0.2 93 -0.7 0 0 987.3 NA 0.0000 9999 0 0 0 0
2019/03/20 04:34:04 BASE 1.48 75 3.86 143 0.2 93 -0.7 0 0 987.3 NA 0.0000 9999 0 0 0 0
2019/03/20 04:35:03 BASE 0.53 64 3.86 143 0.1 94 -0.8 0 0 987.3 NA 0.0000 9999 0 0 0 0
2019/03/20 04:36:03 BASE 0.00 86 3.86 143 -0.0 94 -0.9 0 0 987.3 NA 0.0000 9999 0 0 0 0
2019/03/20 04:37:09 BASE 0.05 80 3.86 143 -0.1 94 -0.9 0 0 987.3 NA 0.0000 9999 0 0 0 0
2019/03/20 04:38:00 BASE 1.22 81 3.81 129 -0.2 95 -0.9 0 0 987.3 NA 0.0000 9999 0 0 0 0
2019/03/20 04:39:03 BASE 3.20 87 5.35 90 -0.2 95 -1.0 0 0 987.2 NA 0.0000 9999 0 0 0 0
2019/03/20 04:40:03 BASE 3.61 79 5.35 90 -0.2 94 -1.0 0 0 987.2 NA 0.0000 9999 0 0 0 0
2019/03/20 04:41:02 BASE 2.93 61 5.35 90 -0.3 94 -1.1 0 0 987.2 NA 0.0000 9999 0 0 0 0
2019/03/20 04:42:04 BASE 2.61 57 5.35 90 -0.3 93 -1.2 0 0 987.1 NA 0.0000 9999 0 0 0 0
2019/03/20 04:43:05 BASE 2.15 62 5.35 90 -0.2 92 -1.4 0 0 987.1 NA 0.0000 9999 0 0 0 0
2019/03/20 04:44:04 BASE 2.05 86 5.35 90 -0.2 91 -1.5 0 0 987.1 NA 0.0000 9999 0 0 0 0
2019/03/20 04:45:04 BASE 2.06 110 5.35 90 -0.2 91 -1.5 0 0 987.1 NA 0.0000 9999 0 0 0 0
2019/03/20 04:46:06 BASE 1.68 114 5.35 90 -0.1 91 -1.5 0 0 987.1 NA 0.0000 9999 0 0 0 0
2019/03/20 04:47:01 BASE 1.41 125 5.35 90 -0.1 91 -1.4 0 0 987.1 NA 0.0000 9999 0 0 0 0
2019/03/20 04:48:04 BASE 0.71 141 5.35 90 -0.1 92 -1.2 0 0 987.0 NA 0.0000 9999 0 0 0 0
2019/03/20 04:49:04 BASE 0.37 154 3.45 64 -0.1 94 -1.0 0 0 987.0 NA 0.0000 9999 0 0 0 0
2019/03/20 04:50:03 BASE 0.99 165 3.45 64 -0.2 95 -0.8 0 0 987.0 NA 0.0000 9999 0 0 0 0
2019/03/20 04:51:04 BASE 0.95 161 2.83 104 -0.2 97 -0.7 0 0 987.0 NA 0.0000 9999 0 0 0 0
2019/03/20 04:52:04 BASE 0.38 121 2.83 104 -0.2 97 -0.5 0 0 987.0 NA 0.0000 9999 0 0 0 0
2019/03/20 04:53:04 BASE 0.90 61 2.83 104 -0.2 98 -0.5 0 0 987.0 NA 0.0000 9999 0 0 0 0
2019/03/20 04:54:04 BASE 1.82 37 2.62 39 -0.2 98 -0.5 0 0 987.0 NA 0.0000 9999 0 0 0 0
2019/03/20 04:55:03 BASE 2.20 35 2.73 41 -0.2 98 -0.4 0 0 987.0 NA 0.0000 9999 0 0 0 0
2019/03/20 04:56:04 BASE 2.06 40 2.73 41 -0.1 97 -0.5 0 0 986.9 NA 0.0000 9999 0 0 0 0
2019/03/20 04:57:04 BASE 1.70 45 2.73 41 -0.1 96 -0.6 0 0 986.8 NA 0.0000 9999 0 0 0 0
2019/03/20 04:58:04 BASE 1.49 55 2.73 41 -0.0 95 -0.8 0 0 986.8 NA 0.0000 9999 0 0 0 0
2019/03/20 04:59:03 BASE 0.67 66 2.73 41 0.0 93 -1.1 0 0 986.8 NA 0.0000 9999 0 0 0 0
2019/03/20 05:00:04 BASE 0.00 76 2.73 41 0.0 90 -1.4 0 0 986.8 NA 0.0000 9999 0 0 0 0
2019/03/20 05:01:05 BASE 0.00 69 2.73 41 0.1 89 -1.6 0 0 986.7 NA 0.0000 9999 0 0 0 0
2019/03/20 05:02:05 BASE 0.09 51 2.73 41 0.1 87 -1.7 0 0 986.7 NA 0.0000 9999 0 0 0 0
2019/03/20 05:03:04 BASE 0.13 28 2.73 41 0.1 86 -1.9 0 0 986.7 NA 0.0000 9999 0 0 0 0
2019/03/20 05:04:04 BASE 0.70 8 2.73 41 0.1 86 -2.0 0 0 986.7 NA 0.0000 9999 0 0 0 0
2019/03/20 05:05:04 BASE 1.41 9 2.42 39 0.1 85 -2.0 0 0 986.6 NA 0.0000 9999 0 0 0 0
2019/03/20 05:06:04 BASE 1.59 18 1.95 21 0.1 85 -2.1 0 0 986.6 NA 0.0000 9999 0 0 0 0
2019/03/20 05:07:04 BASE 1.70 26 2.11 27 0.2 84 -2.2 0 0 986.6 NA 0.0000 9999 0 0 0 0
2019/03/20 05:08:04 BASE 1.58 34 2.11 27 0.2 84 -2.2 0 0 986.6 NA 0.0000 9999 0 0 0 0
2019/03/20 05:09:04 BASE 1.45 40 2.11 27 0.2 84 -2.2 0 0 986.6 NA 0.0000 9999 0 0 0 0
2019/03/20 05:10:04 BASE 1.72 40 2.62 41 0.2 84 -2.2 0 0 986.6 NA 0.0000 9999 0 0 0 0
2019/03/20 05:11:04 BASE 2.16 40 2.62 41 0.2 83 -2.3 0 0 986.6 NA 0.0000 9999 0 0 0 0
2019/03/20 05:12:04 BASE 2.23 51 2.62 41 0.2 84 -2.3 0 0 986.5 NA 0.0000 9999 0 0 0 0
2019/03/20 05:13:03 BASE 1.57 76 2.62 41 0.1 84 -2.3 0 0 986.5 NA 0.0000 9999 18800 0 0 0
2019/03/20 05:14:03 BASE 0.60 100 2.62 41 0.1 84 -2.4 0 0 986.5 NA 0.0000 9999 0 0 0 0
2019/03/20 05:15:04 BASE 0.09 140 2.62 41 0.0 84 -2.4 0 0 986.5 NA 0.0000 9999 0 0 0 0
2019/03/20 05:16:04 BASE 0.00 222 2.62 41 -0.0 84 -2.4 0 0 986.4 NA 0.0000 9999 0 0 0 0
2019/03/20 05:17:04 BASE 0.00 254 2.62 41 -0.0 84 -2.4 0 0 986.4 NA 0.0000 9999 0 0 0 0
2019/03/20 05:18:04 BASE 0.00 274 2.62 41 -0.1 84 -2.4 0 0 986.4 NA 0.0000 9999 0 0 0 0
2019/03/20 05:19:04 BASE 0.00 278 2.62 41 -0.2 85 -2.4 0 0 986.4 NA 0.0000 9999 0 0 0 0
2019/03/20 05:20:03 BASE 0.00 266 2.57 37 -0.3 86 -2.3 0 0 986.4 NA 0.0000 9999 0 0 0 0
2019/03/20 05:21:04 BASE 0.05 233 2.37 62 -0.3 87 -2.1 0 0 986.4 NA 0.0000 9999 0 0 0 0
2019/03/20 05:22:04 BASE 0.09 152 1.54 73 -0.2 88 -2.0 0 0 986.3 NA 0.0000 9999 0 0 0 0
2019/03/20 05:23:04 BASE 0.72 128 1.59 143 -0.1 88 -1.9 0 0 986.3 NA 0.0000 9999 0 0 0 0
2019/03/20 05:24:05 BASE 1.58 141 2.11 141 -0.0 87 -1.9 0 0 986.3 NA 0.0000 9999 0 0 0 0
2019/03/20 05:25:04 BASE 1.89 132 2.62 92 0.1 87 -1.9 0 0 986.3 NA 0.0000 9999 0 0 0 0
2019/03/20 05:26:04 BASE 1.96 105 2.88 98 0.2 86 -1.9 0 0 986.3 NA 0.0000 9999 0 0 0 0
2019/03/20 05:27:04 BASE 1.45 86 2.88 98 0.3 85 -1.9 0 0 986.3 NA 0.0000 9999 0 0 0 0
2019/03/20 05:28:03 BASE 1.46 70 2.88 98 0.3 85 -2.0 0 0 986.3 NA 0.0000 9999 0 0 0 0
2019/03/20 05:29:03 BASE 2.08 52 2.88 98 0.3 84 -2.1 0 0 986.3 NA 0.0000 9999 0 0 0 0
2019/03/20 05:30:03 BASE 2.27 39 2.88 98 0.3 83 -2.3 0 0 986.3 NA 0.0000 9999 0 0 0 0
2019/03/20 05:31:03 BASE 2.22 31 2.88 98 0.2 83 -2.4 0 0 986.2 NA 0.0000 9999 0 0 0 0
2019/03/20 05:32:04 BASE 2.05 22 2.88 98 0.0 83 -2.5 0 0 986.2 NA 0.0000 9999 0 0 0 0
2019/03/20 05:33:04 BASE 1.77 1 2.88 98 -0.2 84 -2.6 0 0 986.2 NA 0.0000 9999 0 0 0 0
2019/03/20 05:34:04 BASE 1.41 343 2.88 98 -0.3 85 -2.5 0 0 986.2 NA 0.0000 9999 0 0 0 0
2019/03/20 05:35:04 BASE 0.63 340 2.88 98 -0.3 86 -2.4 0 0 986.1 NA 0.0000 9999 0 0 0 0
2019/03/20 05:36:04 BASE 0.14 339 2.57 16 -0.3 86 -2.4 0 0 986.0 NA 0.0000 9999 0 0 0 0
2019/03/20 05:37:04 BASE 0.77 328 2.57 16 -0.3 86 -2.3 0 0 986.0 NA 0.0000 9999 0 0 0 0
2019/03/20 05:38:04 BASE 1.15 309 2.57 16 -0.3 86 -2.3 0 0 986.0 NA 0.0000 9999 0 0 0 0
2019/03/20 05:39:04 BASE 0.51 302 2.57 16 -0.2 86 -2.3 0 0 986.0 NA 0.0000 9999 0 0 0 0
2019/03/20 05:40:04 BASE 0.00 291 2.42 31 -0.2 85 -2.4 0 0 986.0 NA 0.0000 9999 0 0 0 0
2019/03/20 05:41:03 BASE 0.00 243 2.21 17 -0.2 85 -2.4 0 0 986.0 NA 0.0000 9999 0 0 0 0
2019/03/20 05:42:04 BASE 0.00 216 1.85 360 -0.2 85 -2.4 0 0 986.0 NA 0.0000 9999 0 0 0 0
2019/03/20 05:43:04 BASE 0.37 237 1.70 344 -0.2 85 -2.4 0 0 986.0 NA 0.0000 9999 0 0 0 0
2019/03/20 05:44:04 BASE 0.51 263 1.44 260 -0.2 85 -2.4 0 0 986.0 NA 0.0000 9999 0 0 0 0
2019/03/20 05:45:04 BASE 0.85 294 2.01 319 -0.2 85 -2.4 0 0 985.9 NA 0.0000 9999 0 0 0 0
2019/03/20 05:46:05 BASE 1.66 316 2.31 331 -0.2 86 -2.3 0 0 985.9 NA 0.0000 9999 0 0 0 0
2019/03/20 05:47:01 BASE 1.88 313 2.31 331 -0.2 86 -2.3 0 0 985.9 NA 0.0000 9999 0 0 0 0
2019/03/20 05:48:03 BASE 1.83 295 2.31 331 -0.2 86 -2.3 0 0 985.8 NA 0.0000 9999 0 0 0 0
2019/03/20 05:49:04 BASE 1.97 287 2.31 292 -0.2 86 -2.3 0 0 985.8 NA 0.0000 9999 0 0 0 0
2019/03/20 05:50:03 BASE 2.22 292 2.57 294 -0.2 86 -2.3 0 0 985.7 NA 0.0000 9999 0 0 0 0
2019/03/20 05:51:03 BASE 2.53 297 3.09 302 -0.2 86 -2.2 0 0 985.7 NA 0.0000 9999 0 0 0 0
2019/03/20 05:52:03 BASE 2.97 303 3.40 302 -0.2 87 -2.1 0 0 985.6 NA 0.0000 9999 0 0 0 0
2019/03/20 05:53:04 BASE 3.22 306 3.50 308 -0.2 88 -2.0 0 0 985.6 NA 0.0000 9999 0 0 0 0
2019/03/20 05:54:04 BASE 3.48 310 3.91 312 -0.2 88 -1.9 0 0 985.6 NA 0.0000 9999 0 0 0 0
2019/03/20 05:55:04 BASE 3.59 318 3.91 312 -0.2 89 -1.9 0 0 985.6 NA 0.0000 9999 0 0 0 0
2019/03/20 05:56:04 BASE 3.30 325 3.91 312 -0.2 89 -1.8 0 0 985.5 NA 0.0000 9999 0 0 0 0
2019/03/20 05:57:01 BASE 2.97 325 3.91 312 -0.2 89 -1.7 0 0 985.5 NA 0.0000 9999 0 0 0 0
2019/03/20 05:58:04 BASE 2.91 324 3.91 312 -0.1 89 -1.7 0 0 985.4 NA 0.0000 9999 0 0 0 0
2019/03/20 05:59:03 BASE 3.04 323 3.91 312 -0.1 88 -1.8 0 0 985.4 NA 0.0000 9999 17780 0 0 0
2019/03/20 06:00:03 BASE 3.25 323 4.01 330 -0.1 88 -1.9 0 0 985.4 NA 0.0000 9999 18870 0 0 0
2019/03/20 06:01:04 BASE 3.78 328 4.58 330 -0.1 88 -1.9 0 0 985.4 NA 0.0000 9999 18730 0 0 0
2019/03/20 06:02:04 BASE 4.21 330 4.58 330 -0.2 88 -1.8 0 0 985.3 NA 0.0000 9999 17590 20440 0 0
2019/03/20 06:03:03 BASE 4.31 334 4.84 339 -0.2 89 -1.8 0 0 985.3 NA 0.0000 9999 0 0 0 0
2019/03/20 06:04:04 BASE 4.08 338 4.84 339 -0.2 90 -1.6 0 0 985.3 NA 0.0000 9999 0 0 0 0
2019/03/20 06:05:04 BASE 3.79 337 4.84 339 -0.2 90 -1.6 0 0 985.3 NA 0.0000 9999 0 0 0 0
2019/03/20 06:06:04 BASE 4.07 337 4.84 339 -0.1 90 -1.6 0 0 985.2 NA 0.0000 9999 17980 0 0 0
2019/03/20 06:07:04 BASE 4.20 337 4.84 339 -0.2 89 -1.7 0 0 985.2 NA 0.0000 9999 18240 0 0 0
2019/03/20 06:08:04 BASE 4.13 331 4.84 339 -0.2 90 -1.7 0 0 985.2 NA 0.0000 9999 18180 0 0 0
2019/03/20 06:09:04 BASE 4.12 330 4.84 339 -0.3 90 -1.7 0 0 985.2 NA 0.0000 9999 17850 0 0 0
2019/03/20 06:10:03 BASE 3.89 332 4.84 339 -0.3 91 -1.7 0 0 985.1 NA 0.0000 9999 0 0 0 0
2019/03/20 06:11:03 BASE 3.33 331 4.84 339 -0.4 91 -1.6 0 0 985.1 NA 0.0000 9999 0 0 0 0
2019/03/20 06:12:04 BASE 2.48 341 4.84 339 -0.4 92 -1.5 0 0 985.1 NA 0.0000 9999 0 0 0 0
2019/03/20 06:13:03 BASE 2.28 7 4.73 337 -0.5 93 -1.5 0 0 985.1 NA 0.0000 9999 0 0 0 0
2019/03/20 06:14:04 BASE 2.54 30 4.73 337 -0.5 94 -1.4 0 0 985.1 NA 0.0000 9999 0 0 0 0
2019/03/20 06:15:04 BASE 1.87 43 4.73 337 -0.5 95 -1.2 0 0 985.1 NA 0.0000 9999 0 0 0 0
2019/03/20 06:16:04 BASE 0.57 47 4.68 330 -0.4 95 -1.1 0 0 985.0 NA 0.0000 9999 0 0 0 0
2019/03/20 06:17:03 BASE 0.00 66 4.68 330 -0.4 95 -1.1 0 0 985.0 NA 0.0000 9999 0 0 0 0
2019/03/20 06:18:04 BASE 0.43 101 4.68 330 -0.3 95 -1.0 0 0 984.9 NA 0.0000 9999 0 0 0 0
2019/03/20 06:19:04 BASE 1.00 83 4.48 321 -0.2 94 -1.1 0 0 984.9 NA 0.0000 9999 0 0 0 0
2019/03/20 06:20:04 BASE 1.45 16 3.76 340 -0.1 93 -1.1 0 0 984.8 NA 0.0000 9999 0 0 0 0
2019/03/20 06:21:04 BASE 1.98 334 3.60 329 0.1 91 -1.2 0 0 984.8 NA 0.0000 9999 0 0 0 0
2019/03/20 06:22:03 BASE 1.68 329 3.24 33 0.3 89 -1.3 0 0 984.8 NA 0.0000 9999 0 0 0 0
2019/03/20 06:23:04 BASE 0.58 336 3.24 33 0.4 87 -1.4 0 0 984.8 NA 0.0000 9999 0 0 0 0
2019/03/20 06:24:04 BASE 0.25 1 3.14 327 0.5 86 -1.6 0 0 984.8 NA 0.0000 9999 17680 0 0 0
2019/03/20 06:25:04 BASE 0.65 30 3.14 327 0.5 84 -1.8 0 0 984.8 NA 0.0000 9999 17720 0 0 0
2019/03/20 06:26:04 BASE 0.71 56 3.14 327 0.5 84 -2.0 0 0 984.8 NA 0.0000 9999 17750 0 0 0
2019/03/20 06:27:04 BASE 0.88 95 3.14 327 0.3 84 -2.1 0 0 984.8 NA 0.0000 9999 17590 0 0 0
2019/03/20 06:28:04 BASE 1.63 135 3.14 327 0.2 85 -2.1 0 0 984.8 NA 0.0000 9999 17320 0 0 0
2019/03/20 06:29:04 BASE 2.12 151 3.14 327 0.1 85 -2.1 0 0 984.7 NA 0.0000 9999 17060 0 0 0
2019/03/20 06:30:04 BASE 1.76 151 3.14 327 0.0 86 -2.1 0 0 984.7 NA 0.0000 9999 0 0 0 0
2019/03/20 06:31:03 BASE 1.42 141 2.57 160 -0.0 86 -2.0 0 0 984.7 NA 0.0000 9999 0 0 0 0
2019/03/20 06:32:04 BASE 1.75 135 2.57 160 -0.0 87 -2.0 0 0 984.7 NA 0.0000 9999 0 0 0 0
2019/03/20 06:33:03 BASE 2.13 137 2.57 160 0.0 86 -2.0 0 0 984.7 NA 0.0000 9999 0 0 0 0
2019/03/20 06:34:03 BASE 2.26 141 2.57 160 0.1 86 -2.0 0 0 984.6 NA 0.0000 9999 0 0 0 0
2019/03/20 06:35:03 BASE 2.29 147 2.57 151 0.2 85 -2.0 0 0 984.6 NA 0.0000 9999 0 0 0 0
2019/03/20 06:36:02 BASE 2.28 155 2.62 154 0.2 85 -2.1 0 0 984.6 NA 0.0000 9999 0 0 0 0
2019/03/20 06:37:03 BASE 2.57 166 4.22 177 0.1 85 -2.1 0 0 984.5 NA 0.0000 9999 0 0 0 0
2019/03/20 06:38:03 BASE 3.58 173 4.37 175 0.1 85 -2.2 0 0 984.5 NA 0.0000 9999 0 0 0 0
2019/03/20 06:39:03 BASE 3.87 169 4.37 175 -0.1 86 -2.2 0 0 984.5 NA 0.0000 9999 0 0 0 0
2019/03/20 06:40:03 BASE 3.61 172 4.37 175 -0.2 87 -2.2 0 0 984.5 NA 0.0000 9999 0 0 0 0
2019/03/20 06:41:04 BASE 3.71 179 4.37 175 -0.3 88 -2.1 0 0 984.5 NA 0.0000 9999 0 0 0 0
2019/03/20 06:42:03 BASE 3.36 183 4.37 175 -0.3 89 -1.9 0 0 984.5 NA 0.0000 9999 0 0 0 0
2019/03/20 06:43:03 BASE 2.80 178 4.37 175 -0.3 91 -1.7 0 0 984.5 NA 0.0000 9999 0 0 0 0
2019/03/20 06:44:03 BASE 2.57 167 4.37 175 -0.3 92 -1.5 0 0 984.5 NA 0.0000 9999 0 0 0 0
2019/03/20 06:45:03 BASE 2.35 161 4.37 175 -0.4 94 -1.3 0 0 984.5 NA 0.0000 9999 0 0 0 0
2019/03/20 06:46:04 BASE 2.15 167 4.37 175 -0.4 95 -1.1 0 0 984.5 NA 0.0000 9999 0 0 0 0
2019/03/20 06:47:03 BASE 2.39 171 4.37 175 -0.4 96 -1.0 0 0 984.5 NA 0.0000 9999 0 0 0 0
2019/03/20 06:48:03 BASE 2.90 165 4.12 170 -0.5 96 -1.0 0 0 984.5 NA 0.0000 9999 0 0 0 0
2019/03/20 06:49:04 BASE 3.41 156 4.06 179 -0.5 97 -0.9 0 0 984.5 NA 0.0000 9999 0 0 0 0
2019/03/20 06:50:04 BASE 3.57 152 3.96 184 -0.5 97 -0.8 0 0 984.4 NA 0.0000 9999 0 0 0 0
2019/03/20 06:51:05 BASE 3.64 150 3.96 147 -0.5 98 -0.8 0 0 984.3 NA 0.0000 9999 0 0 0 0
2019/03/20 06:52:04 BASE 3.94 147 4.53 146 -0.5 98 -0.8 0 0 984.3 NA 0.0000 9999 0 0 0 0
2019/03/20 06:53:04 BASE 4.37 144 4.89 146 -0.5 99 -0.7 0 0 984.3 NA 0.0000 9999 0 0 0 0
2019/03/20 06:54:03 BASE 4.46 141 4.89 146 -0.6 99 -0.7 0 0 984.2 NA 0.0000 9999 0 0 0 0
2019/03/20 06:55:04 BASE 4.20 139 4.89 146 -0.7 100 -0.7 0 0 984.2 NA 0.0000 9999 0 0 0 0
2019/03/20 06:56:04 BASE 4.37 137 4.94 138 -0.7 100 -0.7 0 0 984.2 NA 0.0000 9999 0 0 0 0
2019/03/20 06:57:04 BASE 4.81 138 5.25 137 -0.7 100 -0.7 0 0 984.2 NA 0.0000 9999 0 0 0 0
2019/03/20 06:58:04 BASE 5.02 137 5.35 137 -0.7 100 -0.7 0 0 984.1 NA 0.0000 9999 0 0 0 0
2019/03/20 06:59:03 BASE 4.82 135 5.35 137 -0.7 100 -0.7 0 0 984.1 NA 0.0000 9999 0 0 0 0
2019/03/20 07:00:04 BASE 4.48 136 5.35 137 -0.7 100 -0.7 0 0 984.1 NA 0.0000 9999 0 0 0 0
2019/03/20 07:01:03 BASE 4.26 138 5.35 137 -0.7 100 -0.7 0 0 984.1 NA 0.0000 9999 0 0 0 0
2019/03/20 07:02:03 BASE 4.39 136 5.35 137 -0.7 100 -0.7 0 0 984.1 NA 0.0000 9999 0 0 0 0
2019/03/20 07:03:04 BASE 4.56 132 5.35 137 -0.7 100 -0.7 0 0 984.1 NA 0.0000 9999 0 0 0 0
2019/03/20 07:04:03 BASE 4.21 130 5.35 137 -0.7 100 -0.7 0 0 984.1 NA 0.0000 9999 0 0 0 0
2019/03/20 07:05:04 BASE 3.71 126 5.35 137 -0.7 100 -0.7 0 0 984.1 NA 0.0000 9999 0 0 0 0
2019/03/20 07:06:04 BASE 3.48 122 5.35 137 -0.7 100 -0.7 0 0 984.1 NA 0.0000 9999 0 0 0 0
2019/03/20 07:07:03 BASE 3.16 124 5.35 137 -0.6 100 -0.6 0 0 984.0 NA 0.0000 9999 0 0 0 0
2019/03/20 07:08:03 BASE 2.54 132 4.89 142 -0.6 100 -0.6 0 0 984.0 NA 0.0000 9999 0 0 0 0
2019/03/20 07:09:03 BASE 2.37 142 4.89 142 -0.5 99 -0.6 0 0 984.0 NA 0.0000 9999 0 0 0 0
2019/03/20 07:10:03 BASE 2.91 144 4.84 135 -0.5 99 -0.7 0 0 983.9 NA 0.0000 9999 0 0 0 0
2019/03/20 07:11:03 BASE 3.22 145 4.84 135 -0.5 99 -0.7 0 0 983.9 NA 0.0000 9999 0 0 0 0
2019/03/20 07:12:04 BASE 3.17 152 4.78 130 -0.6 98 -0.8 0 0 983.8 NA 0.0000 9999 0 0 0 0
2019/03/20 07:13:03 BASE 3.51 156 4.37 132 -0.6 98 -0.9 0 0 983.7 NA 0.0000 9999 0 0 0 0
2019/03/20 07:14:04 BASE 3.71 156 4.32 158 -0.7 98 -0.9 0 0 983.7 NA 0.0000 9999 15160 0 0 0
2019/03/20 07:15:04 BASE 3.54 153 4.32 158 -0.7 99 -0.9 0 0 983.7 NA 0.0000 9999 0 0 0 0
2019/03/20 07:16:04 BASE 3.10 146 4.32 158 -0.7 99 -0.9 0 0 983.7 NA 0.0000 9999 15420 0 0 0
2019/03/20 07:17:04 BASE 2.27 137 4.32 158 -0.8 99 -0.9 0 0 983.7 NA 0.0000 9999 15090 0 0 0
2019/03/20 07:18:04 BASE 1.97 130 4.32 158 -0.8 100 -0.8 0 0 983.7 NA 0.0000 9999 0 0 0 0
2019/03/20 07:19:04 BASE 2.20 128 4.32 158 -0.8 100 -0.8 0 0 983.6 NA 0.0000 9999 14210 0 0 0
2019/03/20 07:20:03 BASE 2.48 133 4.32 158 -0.8 100 -0.8 0 0 983.5 NA 0.0000 9999 14170 0 0 0
2019/03/20 07:21:03 BASE 2.39 135 4.32 158 -0.8 100 -0.8 0 0 983.5 NA 0.0000 9999 14470 0 0 0
2019/03/20 07:22:03 BASE 2.01 131 4.32 158 -0.8 100 -0.8 0 0 983.5 NA 0.0000 9999 14700 0 0 0
2019/03/20 07:23:03 BASE 1.31 105 3.86 157 -0.8 100 -0.8 0 0 983.5 NA 0.0000 9999 14080 0 0 0
2019/03/20 07:24:04 BASE 1.15 72 3.81 156 -0.8 100 -0.8 0 0 983.5 NA 0.0000 9999 13680 0 0 0
2019/03/20 07:25:03 BASE 0.91 33 3.19 143 -0.8 100 -0.8 0 0 983.5 NA 0.0000 9999 13390 0 0 0
2019/03/20 07:26:04 BASE 0.50 5 3.09 142 -0.8 100 -0.8 0 0 983.5 NA 0.0000 9999 13190 0 0 0
2019/03/20 07:27:03 BASE 0.38 23 3.09 142 -0.7 100 -0.7 0 0 983.5 NA 0.0000 9999 13060 0 0 0
2019/03/20 07:28:04 BASE 0.35 357 3.09 142 -0.6 100 -0.6 0 0 983.4 NA 0.0000 9999 13260 0 0 0
2019/03/20 07:29:03 BASE 0.87 312 3.09 142 -0.6 99 -0.6 0 0 983.4 NA 0.0000 9999 0 0 0 0
2019/03/20 07:30:03 BASE 1.24 313 2.73 132 -0.5 98 -0.7 0 0 983.4 NA 0.0000 9999 0 0 0 0
2019/03/20 07:31:04 BASE 1.29 321 2.47 54 -0.4 97 -0.8 0 0 983.4 NA 0.0000 9999 0 0 0 0
2019/03/20 07:32:04 BASE 0.77 325 2.47 54 -0.3 96 -0.9 0 0 983.4 NA 0.0000 9999 0 0 0 0
2019/03/20 07:33:03 BASE 0.21 323 2.47 54 -0.2 94 -1.0 0 0 983.3 NA 0.0000 9999 0 0 0 0
2019/03/20 07:34:04 BASE 0.42 41 1.75 305 -0.1 93 -1.2 0 0 983.3 NA 0.0000 9999 0 0 0 0
2019/03/20 07:35:03 BASE 0.77 96 1.75 305 0.0 91 -1.3 0 0 983.3 NA 0.0000 9999 0 0 0 0
2019/03/20 07:36:04 BASE 0.52 102 1.75 82 0.1 90 -1.4 0 0 983.3 NA 0.0000 9999 0 0 0 0
2019/03/20 07:37:04 BASE 1.27 90 2.47 77 0.2 88 -1.6 0 0 983.2 NA 0.0000 9999 0 0 0 0
2019/03/20 07:38:03 BASE 2.41 78 2.78 73 0.3 86 -1.8 0 0 983.2 NA 0.0000 9999 0 0 0 0
2019/03/20 07:39:03 BASE 2.62 77 2.78 73 0.3 85 -2.0 0 0 983.2 NA 0.0000 9999 0 0 0 0
2019/03/20 07:40:03 BASE 2.55 79 2.88 76 0.3 84 -2.1 0 0 983.1 NA 0.0000 9999 0 0 0 0
2019/03/20 07:41:04 BASE 2.43 80 2.88 76 0.2 84 -2.3 0 0 983.1 NA 0.0000 9999 0 0 0 0
2019/03/20 07:42:03 BASE 1.82 85 2.88 76 0.1 84 -2.3 0 0 983.1 NA 0.0000 9999 10270 0 0 0
2019/03/20 07:43:04 BASE 1.42 90 2.88 76 0.1 84 -2.3 0 0 983.0 NA 0.0000 9999 10070 0 0 0
2019/03/20 07:44:04 BASE 1.34 92 2.88 76 0.1 84 -2.3 0 0 982.9 NA 0.0000 9999 0 0 0 0
2019/03/20 07:45:03 BASE 0.56 87 2.88 76 0.1 84 -2.3 0 0 982.9 NA 0.0000 9999 0 0 0 0
2019/03/20 07:46:04 BASE 0.14 73 2.88 76 0.1 83 -2.3 0 0 982.9 NA 0.0000 9999 0 0 0 0
2019/03/20 07:47:03 BASE 0.14 99 2.88 76 0.2 83 -2.4 0 0 982.9 NA 0.0000 9999 0 0 0 0
2019/03/20 07:48:06 BASE 0.00 118 2.88 76 0.2 82 -2.5 0 0 982.9 NA 0.0000 9999 0 0 0 0
2019/03/20 07:49:03 BASE 0.00 103 2.88 76 0.2 82 -2.5 0 0 982.9 NA 0.0000 9999 0 0 0 0
2019/03/20 07:50:03 BASE 0.10 113 2.68 69 0.1 83 -2.5 0 0 982.9 NA 0.0000 9999 0 0 0 0
2019/03/20 07:51:03 BASE 0.71 120 2.31 125 0.0 84 -2.4 0 0 982.9 NA 0.0000 9999 0 0 0 0
2019/03/20 07:52:02 BASE 1.66 126 2.83 120 -0.1 85 -2.3 0 0 982.9 NA 0.0000 9999 0 0 0 0
2019/03/20 07:53:03 BASE 2.54 135 3.76 153 -0.1 86 -2.2 0 0 982.8 NA 0.0000 9999 0 0 0 0
2019/03/20 07:54:03 BASE 3.33 135 4.63 122 -0.1 87 -2.0 0 0 982.8 NA 0.0000 9999 0 0 0 0
2019/03/20 07:55:03 BASE 4.31 121 5.61 118 -0.1 88 -1.9 0 0 982.8 NA 0.0000 9999 0 0 0 0
2019/03/20 07:56:03 BASE 5.75 113 7.15 111 -0.0 88 -1.9 0 0 982.8 NA 0.0000 9999 0 0 0 0
2019/03/20 07:57:03 BASE 6.67 111 7.15 111 0.0 87 -1.9 0 0 982.8 NA 0.0000 9999 0 0 0 0
2019/03/20 07:58:04 BASE 6.95 111 7.67 111 0.1 86 -1.9 0 0 982.7 NA 0.0000 9999 0 0 0 0
2019/03/20 07:59:03 BASE 7.28 109 7.72 107 0.2 86 -2.0 0 0 982.7 NA 0.0000 9999 0 0 0 0
2019/03/20 08:00:03 BASE 7.35 107 7.72 107 0.2 85 -2.0 0 0 982.7 NA 0.0000 9999 0 0 0 0
2019/03/20 08:01:03 BASE 7.21 104 7.72 107 0.3 84 -2.1 0 0 982.7 NA 0.0000 9999 0 0 0 0
2019/03/20 08:02:03 BASE 7.07 102 7.72 107 0.3 83 -2.3 0 0 982.7 NA 0.0000 9999 0 0 0 0
2019/03/20 08:03:03 BASE 6.87 102 7.72 107 0.4 82 -2.4 0 0 982.7 NA 0.0000 9999 0 0 0 0
2019/03/20 08:04:03 BASE 6.47 103 7.72 107 0.5 81 -2.5 0 0 982.6 NA 0.0000 9999 0 0 0 0
2019/03/20 08:05:03 BASE 5.88 104 7.72 107 0.5 80 -2.6 0 0 982.6 NA 0.0000 9999 0 0 0 0
2019/03/20 08:06:04 BASE 5.43 106 7.72 107 0.6 79 -2.7 0 0 982.6 NA 0.0000 9999 0 0 0 0
2019/03/20 08:07:03 BASE 5.26 106 7.72 107 0.6 78 -2.7 0 0 982.6 NA 0.0000 9999 0 0 0 0
2019/03/20 08:08:03 BASE 5.15 104 7.72 107 0.6 78 -2.8 0 0 982.6 NA 0.0000 9999 0 0 0 0
2019/03/20 08:09:03 BASE 4.98 107 7.61 102 0.5 78 -2.9 0 0 982.5 NA 0.0000 9999 0 0 0 0
2019/03/20 08:10:03 BASE 4.85 113 7.51 106 0.5 78 -2.9 0 0 982.4 NA 0.0000 9999 0 0 0 0
2019/03/20 08:11:03 BASE 4.92 119 7.15 103 0.4 79 -2.9 0 0 982.4 NA 0.0000 9999 0 0 0 0
2019/03/20 08:12:03 BASE 5.20 125 7.00 101 0.4 79 -2.8 0 0 982.3 NA 0.0000 9999 0 0 0 0
2019/03/20 08:13:04 BASE 4.95 127 6.74 101 0.4 80 -2.7 0 0 982.3 NA 0.0000 9999 0 0 0 0
2019/03/20 08:14:03 BASE 4.25 126 5.97 122 0.5 80 -2.6 0 0 982.3 NA 0.0000 9999 0 0 0 0
2019/03/20 08:15:03 BASE 3.70 129 5.97 122 0.5 80 -2.6 0 0 982.3 NA 0.0000 9999 0 0 0 0
2019/03/20 08:16:03 BASE 3.71 135 5.97 122 0.5 81 -2.5 0 0 982.3 NA 0.0000 9999 0 0 0 0
2019/03/20 08:17:04 BASE 3.81 139 5.97 122 0.5 81 -2.4 0 0 982.3 NA 0.0000 9999 0 0 0 0
2019/03/20 08:18:04 BASE 3.41 133 5.97 122 0.4 82 -2.3 0 0 982.3 NA 0.0000 9999 0 0 0 0
2019/03/20 08:19:04 BASE 2.47 122 5.97 122 0.4 83 -2.2 0 0 982.3 NA 0.0000 9999 0 0 0 0
2019/03/20 08:20:04 BASE 0.88 96 5.97 122 0.3 84 -2.1 0 0 982.3 NA 0.0000 9999 0 0 0 0
2019/03/20 08:21:04 BASE 0.00 89 5.97 122 0.2 84 -2.1 0 0 982.2 NA 0.0000 9999 0 0 0 0
2019/03/20 08:22:04 BASE 0.13 110 4.99 119 0.2 85 -2.0 0 0 982.2 NA 0.0000 9999 0 0 0 0
2019/03/20 08:23:04 BASE 0.62 121 4.78 139 0.2 86 -1.9 0 0 982.2 NA 0.0000 9999 10470 0 0 0
2019/03/20 08:24:04 BASE 1.08 133 4.78 139 0.3 86 -1.8 0 0 982.1 NA 0.0000 9999 10170 0 0 0
2019/03/20 08:25:04 BASE 1.70 136 4.78 139 0.3 86 -1.8 0 0 982.1 NA 0.0000 9999 10140 0 0 0
2019/03/20 08:26:03 BASE 2.79 130 3.91 132 0.4 85 -1.7 0 0 982.1 NA 0.0000 9999 10430 0 0 0
2019/03/20 08:27:03 BASE 3.09 125 3.91 132 0.5 85 -1.8 0 0 982.1 NA 0.0000 9999 10040 0 0 0
2019/03/20 08:28:03 BASE 2.75 131 3.91 132 0.5 85 -1.8 0 0 982.1 NA 0.0000 9999 10240 0 0 0
2019/03/20 08:29:03 BASE 2.50 142 3.91 132 0.4 85 -1.9 0 0 982.0 NA 0.0000 9999 10630 0 0 0
2019/03/20 08:30:03 BASE 2.30 154 3.91 132 0.4 85 -1.9 0 0 982.0 NA 0.0000 9999 10730 0 0 0
2019/03/20 08:31:03 BASE 2.52 170 3.91 132 0.3 85 -1.9 0 0 982.0 NA 0.0000 9999 10730 0 0 0
2019/03/20 08:32:03 BASE 2.58 180 3.91 132 0.2 86 -1.8 0 0 981.9 NA 0.0000 9999 10370 0 0 0
2019/03/20 08:33:04 BASE 2.47 180 3.91 132 0.2 87 -1.8 0 0 981.8 NA 0.0000 9999 10400 0 0 0
2019/03/20 08:34:04 BASE 2.92 177 4.89 170 0.1 87 -1.8 0 0 981.8 NA 0.0000 9999 10300 0 0 0
2019/03/20 08:35:04 BASE 4.00 174 5.71 165 0.0 88 -1.7 0 0 981.8 NA 0.0000 9999 10430 0 0 0
2019/03/20 08:36:03 BASE 5.08 163 6.02 154 -0.0 89 -1.6 0 0 981.8 NA 0.0000 9999 10400 0 0 0
2019/03/20 08:37:03 BASE 5.13 159 6.02 154 -0.0 90 -1.5 0 0 981.8 NA 0.0000 9999 10500 0 0 0
2019/03/20 08:38:03 BASE 4.95 161 6.02 154 -0.0 91 -1.4 0 0 981.8 NA 0.0000 9999 10660 0 0 0
2019/03/20 08:39:03 BASE 5.33 159 6.02 154 0.0 92 -1.2 0 0 981.7 NA 0.0000 9999 10930 0 0 0
2019/03/20 08:40:03 BASE 5.11 162 6.02 154 0.0 92 -1.1 0 0 981.7 NA 0.0000 9999 11220 0 0 0
2019/03/20 08:41:03 BASE 4.65 171 6.02 154 0.1 93 -1.0 0 0 981.7 NA 0.0000 9999 11350 0 0 0
2019/03/20 08:42:03 BASE 4.12 173 6.02 154 0.1 93 -0.9 0 0 981.7 NA 0.0000 9999 11610 0 0 0
2019/03/20 08:43:03 BASE 3.73 170 6.02 154 0.0 93 -0.9 0 0 981.7 NA 0.0000 9999 12040 0 0 0
2019/03/20 08:44:03 BASE 3.52 167 6.02 154 -0.0 94 -0.9 0 0 981.7 NA 0.0000 9999 12070 0 0 0
2019/03/20 08:45:03 BASE 3.06 159 6.02 154 -0.1 94 -0.9 0 0 981.7 NA 0.0000 9999 12170 0 0 0
2019/03/20 08:46:04 BASE 2.56 143 5.86 158 -0.1 95 -0.8 0 0 981.7 NA 0.0000 9999 12040 0 0 0
2019/03/20 08:47:03 BASE 2.17 120 5.86 158 -0.2 96 -0.8 0 0 981.6 NA 0.0000 9999 11980 0 0 0
2019/03/20 08:48:04 BASE 1.97 103 5.86 158 -0.2 96 -0.7 0 0 981.6 NA 0.0000 9999 12070 0 0 0
2019/03/20 08:49:03 BASE 1.67 77 5.25 167 -0.2 97 -0.7 0 0 981.6 NA 0.0000 9999 12010 0 0 0
2019/03/20 08:50:03 BASE 1.28 52 4.94 173 -0.2 96 -0.7 0 0 981.5 NA 0.0000 9999 11780 0 0 0
2019/03/20 08:51:03 BASE 0.50 38 4.01 173 -0.2 95 -0.8 0 0 981.5 NA 0.0000 9999 12040 0 0 0
2019/03/20 08:52:04 BASE 0.00 43 4.01 173 -0.1 94 -1.0 0 0 981.5 NA 0.0000 9999 11940 0 0 0
2019/03/20 08:53:03 BASE 0.14 64 3.76 164 -0.1 92 -1.2 0 0 981.5 NA 0.0000 9999 11810 0 0 0
2019/03/20 08:54:03 BASE 0.84 79 3.45 161 0.0 91 -1.4 0 0 981.5 NA 0.0000 9999 11680 0 0 0
2019/03/20 08:55:03 BASE 1.06 81 2.57 146 0.0 89 -1.5 0 0 981.5 NA 0.0000 9999 0 0 0 0
2019/03/20 08:56:04 BASE 0.41 81 2.31 113 0.1 88 -1.6 0 0 981.4 NA 0.0000 9999 0 0 0 0
2019/03/20 08:57:04 BASE 0.44 94 2.21 100 0.1 88 -1.7 0 0 981.4 NA 0.0000 9999 11750 0 0 0
2019/03/20 08:58:04 BASE 1.04 107 1.65 50 0.1 87 -1.7 0 0 981.3 NA 0.0000 9999 0 0 0 0
2019/03/20 08:59:04 BASE 1.27 116 1.65 50 0.2 87 -1.8 0 0 981.2 NA 0.0000 9999 0 0 0 0
2019/03/20 09:00:05 BASE 1.17 125 1.54 85 0.3 86 -1.8 0 0 981.2 NA 0.0000 9999 8500 0 0 0
2019/03/20 09:01:04 BASE 0.58 127 1.54 85 0.4 85 -1.9 0 0 981.2 NA 0.0000 9999 0 0 0 0
2019/03/20 09:02:04 BASE 0.17 120 1.54 85 0.4 84 -2.0 0 0 981.2 NA 0.0000 9999 14860 0 0 0
2019/03/20 09:03:04 BASE 0.65 100 1.54 85 0.4 83 -2.2 0 0 981.2 NA 0.0000 9999 0 0 0 0
2019/03/20 09:04:03 BASE 1.30 71 2.52 52 0.4 82 -2.3 0 0 981.2 NA 0.0000 9999 0 0 0 0
2019/03/20 09:05:04 BASE 2.25 44 3.45 33 0.3 82 -2.4 0 0 981.2 NA 0.0000 9999 14730 0 0 0
2019/03/20 09:06:04 BASE 3.25 37 3.81 36 0.2 82 -2.4 0 0 981.2 NA 0.0000 9999 14700 0 0 0
2019/03/20 09:07:04 BASE 3.49 41 3.81 36 0.2 83 -2.4 0 0 981.1 NA 0.0000 9999 14700 0 0 0
2019/03/20 09:08:04 BASE 3.17 44 3.81 36 0.0 84 -2.3 0 0 981.0 NA 0.0000 9999 14670 0 0 0
2019/03/20 09:09:03 BASE 2.89 55 3.81 36 -0.1 86 -2.2 0 0 981.0 NA 0.0000 9999 14630 0 0 0
2019/03/20 09:10:03 BASE 2.92 70 3.81 36 -0.1 87 -2.0 0 0 981.0 NA 0.0000 9999 14470 0 0 0
2019/03/20 09:11:04 BASE 2.64 83 3.81 36 -0.0 88 -1.9 0 0 981.0 NA 0.0000 9999 14470 0 0 0
2019/03/20 09:12:03 BASE 2.12 96 3.81 36 0.0 87 -1.9 0 0 981.0 NA 0.0000 9999 14440 0 0 0
2019/03/20 09:13:04 BASE 1.83 104 3.81 36 0.1 87 -1.9 0 0 980.9 NA 0.0000 9999 14370 0 0 0
2019/03/20 09:14:03 BASE 1.81 104 3.81 36 0.1 86 -2.0 0 0 980.9 NA 0.0000 9999 14270 0 0 0
2019/03/20 09:15:04 BASE 1.53 104 3.81 36 0.1 85 -2.1 0 0 980.9 NA 0.0000 9999 14270 0 0 0
2019/03/20 09:16:04 BASE 1.14 103 3.76 46 0.1 84 -2.3 0 0 980.9 NA 0.0000 9999 14110 0 0 0
2019/03/20 09:17:03 BASE 0.54 97 3.40 75 0.0 84 -2.3 0 0 980.8 NA 0.0000 9999 14440 0 0 0
2019/03/20 09:18:03 BASE 0.00 103 3.40 75 0.2 84 -2.2 0 0 980.8 NA 0.0000 9999 14400 0 0 0
2019/03/20 09:19:03 BASE 0.00 131 3.40 75 0.3 83 -2.2 0 0 980.8 NA 0.0000 9999 14340 0 0 0
2019/03/20 09:20:03 BASE 0.09 152 2.68 95 0.5 81 -2.3 0 0 980.8 NA 0.0000 9999 0 0 0 0
2019/03/20 09:21:03 BASE 0.09 153 2.16 101 0.6 80 -2.5 0 0 980.7 NA 0.0000 9999 0 0 0 0
2019/03/20 09:22:04 BASE 0.00 147 2.16 101 0.8 79 -2.5 0 0 980.7 NA 0.0000 9999 16370 0 0 0
2019/03/20 09:23:03 BASE 0.05 127 2.16 101 0.8 77 -2.7 0 0 980.7 NA 0.0000 9999 0 0 0 0
2019/03/20 09:24:03 BASE 0.93 36 2.06 10 0.8 77 -2.8 0 0 980.7 NA 0.0000 9999 16340 0 0 0
2019/03/20 09:25:04 BASE 1.97 11 2.31 10 0.6 77 -2.9 0 0 980.7 NA 0.0000 9999 16270 0 0 0
2019/03/20 09:26:03 BASE 2.44 11 2.88 11 0.5 79 -2.8 0 0 980.7 NA 0.0000 9999 16210 0 0 0
2019/03/20 09:27:03 BASE 2.83 15 3.09 21 0.3 80 -2.7 0 0 980.7 NA 0.0000 9999 16240 0 0 0
2019/03/20 09:28:04 BASE 2.93 24 3.45 33 0.1 82 -2.6 0 0 980.7 NA 0.0000 9999 16180 0 0 0
2019/03/20 09:29:03 BASE 2.30 28 3.45 33 -0.1 84 -2.4 0 0 980.6 NA 0.0000 9999 16140 0 0 0
2019/03/20 09:30:03 BASE 1.43 28 3.45 33 -0.1 86 -2.2 0 0 980.6 NA 0.0000 9999 16110 0 0 0
2019/03/20 09:31:03 BASE 1.41 26 3.45 33 -0.2 87 -2.0 0 0 980.5 NA 0.0000 9999 16110 0 0 0
2019/03/20 09:32:03 BASE 2.23 30 3.45 33 -0.2 88 -1.9 0 0 980.4 NA 0.0000 9999 0 0 0 0
2019/03/20 09:33:03 BASE 2.57 39 3.45 33 -0.2 88 -1.9 0 0 980.4 NA 0.0000 9999 0 0 0 0
2019/03/20 09:34:03 BASE 2.09 44 3.45 33 -0.1 88 -1.9 0 0 980.4 NA 0.0000 9999 15950 0 0 0
2019/03/20 09:35:03 BASE 1.66 47 3.45 33 -0.1 87 -2.0 0 0 980.4 NA 0.0000 9999 15850 0 0 0
2019/03/20 09:36:03 BASE 1.57 45 3.45 33 0.0 86 -2.1 0 0 980.4 NA 0.0000 9999 15850 0 0 0
2019/03/20 09:37:03 BASE 2.06 36 3.45 33 0.1 84 -2.2 0 0 980.4 NA 0.0000 9999 15680 0 0 0
2019/03/20 09:38:03 BASE 2.77 23 3.29 16 0.2 83 -2.4 0 0 980.4 NA 0.0000 9999 15650 0 0 0
2019/03/20 09:39:04 BASE 2.86 14 3.29 16 0.2 82 -2.5 0 0 980.4 NA 0.0000 9999 15620 0 0 0
2019/03/20 09:40:03 BASE 1.66 1 3.29 16 0.3 81 -2.7 0 0 980.4 NA 0.0000 9999 8530 15650 0 0
2019/03/20 09:41:03 BASE 0.34 337 3.29 16 0.2 80 -2.8 0 0 980.3 NA 0.0000 9999 8460 15850 0 0
2019/03/20 09:42:03 BASE 0.00 311 3.29 16 0.2 80 -2.8 0 0 980.3 NA 0.0000 9999 16040 0 0 0
2019/03/20 09:43:04 BASE 0.00 294 3.29 16 0.1 81 -2.8 0 0 980.3 NA 0.0000 9999 16140 0 0 0
2019/03/20 09:44:03 BASE 0.00 304 3.29 16 0.0 82 -2.7 0 0 980.3 NA 0.0000 9999 15060 0 0 0
2019/03/20 09:45:03 BASE 0.00 328 3.29 16 0.0 82 -2.7 0 0 980.3 NA 0.0000 9999 13940 0 0 0
2019/03/20 09:46:04 BASE 0.00 335 3.29 16 0.1 82 -2.7 0 0 980.3 NA 0.0000 9999 8730 0 0 0
2019/03/20 09:47:03 BASE 0.00 334 3.29 16 0.2 80 -2.8 0 0 980.2 NA 0.0000 9999 8920 0 0 0
2019/03/20 09:48:03 BASE 0.00 311 3.09 8 0.3 79 -3.0 0 0 980.2 NA 0.0000 9999 8890 0 0 0
2019/03/20 09:49:03 BASE 0.00 281 1.65 4 0.5 76 -3.3 0 0 980.2 NA 0.0000 9999 8990 0 0 0
2019/03/20 09:50:03 BASE 0.00 240 M M 0.5 74 -3.5 1 0 980.2 NA 0.0000 9999 8830 0 0 0
2019/03/20 09:51:03 BASE 0.00 209 M M 0.5 74 -3.7 1 0 980.2 NA 0.0000 9999 9290 0 0 0
2019/03/20 09:52:03 BASE 0.00 207 M M 0.5 73 -3.7 1 0 980.2 NA 0.0000 9999 8790 0 0 0
2019/03/20 09:53:03 BASE 0.00 218 M M 0.6 73 -3.8 1 0 980.2 NA 0.0000 9999 9650 0 0 0
2019/03/20 09:54:03 BASE 0.00 241 M M 0.6 72 -3.8 1 0 980.2 NA 0.0000 9999 8960 0 0 0
2019/03/20 09:55:03 BASE 0.67 217 2.93 188 0.7 71 -4.0 1 0 980.2 NA 0.0000 9999 8560 0 0 0
2019/03/20 09:56:03 BASE 2.30 187 3.65 196 0.6 71 -4.1 1 0 980.1 NA 0.0000 9999 9970 0 0 0
2019/03/20 09:57:03 BASE 3.08 187 3.65 196 0.5 72 -4.0 2 0 980.1 NA 0.0000 9999 7380 0 0 0
2019/03/20 09:58:03 BASE 2.99 178 3.65 196 0.3 74 -3.8 2 0 980.1 NA 0.0000 9999 7350 9120 0 0
2019/03/20 09:59:03 BASE 2.72 176 3.65 196 -0.0 78 -3.5 2 0 980.1 NA 0.0000 9999 8240 9090 0 0
2019/03/20 10:00:03 BASE 1.74 180 3.65 196 -0.2 82 -3.0 2 0 980.1 NA 0.0000 9999 8240 0 0 0
2019/03/20 10:01:03 BASE 1.40 178 3.65 196 -0.3 84 -2.6 2 0 980.1 NA 0.0000 9999 8200 0 0 0
2019/03/20 10:02:04 BASE 1.91 172 3.65 196 -0.3 86 -2.4 3 0 980.1 NA 0.0000 9999 7020 0 0 0
2019/03/20 10:03:03 BASE 2.38 169 3.65 196 -0.3 86 -2.3 3 0 980.1 NA 0.0000 9999 8200 0 0 0
2019/03/20 10:04:03 BASE 2.45 167 3.65 196 -0.2 87 -2.2 3 0 980.1 NA 0.0000 9999 8240 0 0 0
2019/03/20 10:05:03 BASE 2.01 162 3.65 196 -0.2 86 -2.2 3 0 980.1 NA 0.0000 9999 8460 0 0 0
2019/03/20 10:06:03 BASE 0.95 160 3.24 177 -0.1 86 -2.2 3 0 980.1 NA 0.0000 9999 8400 0 0 0
2019/03/20 10:07:03 BASE 0.09 155 3.24 177 -0.1 86 -2.2 4 0 980.1 NA 0.0000 9999 8690 0 0 0
2019/03/20 10:08:03 BASE 0.00 146 2.98 168 -0.1 86 -2.2 4 0 980.1 NA 0.0000 9999 8760 0 0 0
2019/03/20 10:09:03 BASE 0.00 143 2.88 166 -0.1 86 -2.1 4 0 980.1 NA 0.0000 9999 8790 0 0 0
2019/03/20 10:10:03 BASE 0.00 143 2.88 166 -0.1 87 -2.1 5 0 980.1 NA 0.0000 9999 6270 0 0 0
2019/03/20 10:11:03 BASE 0.00 137 2.88 166 -0.1 87 -2.0 5 0 980.1 NA 0.0000 9999 8790 0 0 0
2019/03/20 10:12:03 BASE 0.86 85 2.88 166 -0.1 87 -2.0 6 0 980.1 NA 0.0000 9999 9020 0 0 0
2019/03/20 10:13:03 BASE 1.74 51 2.73 162 -0.0 86 -2.0 7 0 980.1 NA 0.0000 9999 8890 0 0 0
2019/03/20 10:14:03 BASE 1.85 55 2.52 72 0.0 86 -2.1 8 0 980.0 NA 0.0000 9999 9060 0 0 0
2019/03/20 10:15:03 BASE 2.03 49 2.62 46 0.1 85 -2.1 8 0 979.9 NA 0.0000 9999 8330 0 0 0
2019/03/20 10:16:03 BASE 1.19 11 2.62 46 -0.0 85 -2.2 9 0 979.9 NA 0.0000 9999 8300 0 0 0
2019/03/20 10:17:03 BASE 1.01 350 2.62 46 -0.1 85 -2.2 8 0 979.9 NA 0.0000 9999 8100 0 0 0
2019/03/20 10:18:03 BASE 1.55 333 2.62 46 -0.1 86 -2.2 8 0 979.9 NA 0.0000 9999 8200 0 0 0
2019/03/20 10:19:03 BASE 1.78 336 2.62 46 -0.1 87 -2.1 8 0 979.9 NA 0.0000 9999 8270 0 0 0
2019/03/20 10:20:04 BASE 1.98 333 2.62 46 -0.1 87 -2.0 7 0 979.9 NA 0.0000 9999 8300 0 0 0
2019/03/20 10:21:04 BASE 2.04 318 2.62 46 -0.0 86 -2.0 7 0 979.8 NA 0.0000 9999 8240 0 0 0
2019/03/20 10:22:03 BASE 1.52 304 2.62 46 0.0 86 -2.1 7 0 979.8 NA 0.0000 9999 8070 0 0 0
2019/03/20 10:23:03 BASE 0.61 284 2.62 46 0.0 85 -2.2 6 0 979.8 NA 0.0000 9999 7780 0 0 0
2019/03/20 10:24:04 BASE 0.05 249 2.62 46 0.1 84 -2.2 6 0 979.8 NA 0.0000 9999 7870 0 0 0
2019/03/20 10:25:03 BASE 0.00 202 2.31 334 0.2 83 -2.3 6 0 979.8 NA 0.0000 9999 7870 0 0 0
2019/03/20 10:26:03 BASE 0.50 181 2.31 334 0.2 83 -2.4 6 0 979.8 NA 0.0000 9999 7970 0 0 0
2019/03/20 10:27:03 BASE 1.30 181 2.31 334 0.2 83 -2.5 6 0 979.8 NA 0.0000 9999 7970 0 0 0
2019/03/20 10:28:04 BASE 1.55 168 2.31 334 0.1 82 -2.5 6 0 979.8 NA 0.0000 9999 8100 0 0 0
2019/03/20 10:29:03 BASE 1.66 144 2.31 334 0.0 83 -2.6 6 0 979.8 NA 0.0000 9999 8140 9220 0 0
2019/03/20 10:30:03 BASE 1.87 130 2.21 127 -0.0 84 -2.5 6 0 979.8 NA 0.0000 9999 8140 0 0 0
2019/03/20 10:31:03 BASE 1.77 124 2.21 127 -0.1 85 -2.4 7 0 979.8 NA 0.0000 9999 8200 9020 0 0
2019/03/20 10:32:03 BASE 1.49 107 2.21 127 -0.2 86 -2.3 7 0 979.8 NA 0.0000 9999 7450 8890 0 0
2019/03/20 10:33:04 BASE 1.25 74 2.21 127 -0.2 86 -2.2 7 0 979.8 NA 0.0000 9999 7480 0 0 0
2019/03/20 10:34:04 BASE 1.41 44 2.21 127 -0.1 86 -2.1 8 0 979.8 NA 0.0000 9999 7480 0 0 0
2019/03/20 10:35:03 BASE 1.72 17 2.21 127 -0.0 85 -2.2 8 0 979.8 NA 0.0000 9999 7640 8890 0 0
2019/03/20 10:36:03 BASE 1.69 349 2.21 127 0.0 85 -2.3 8 0 979.7 NA 0.0000 9999 7580 8860 0 0
2019/03/20 10:37:03 BASE 0.90 350 2.21 127 0.0 85 -2.3 8 0 979.6 NA 0.0000 9999 7550 9020 9780 0
2019/03/20 10:38:04 BASE 0.30 336 2.21 127 0.1 84 -2.3 9 0 979.6 NA 0.0000 9999 7610 8860 0 0
2019/03/20 10:39:03 BASE 0.75 308 2.21 127 0.0 84 -2.3 9 0 979.6 NA 0.0000 9999 7710 8890 0 0
2019/03/20 10:40:04 BASE 0.93 322 2.06 346 -0.0 85 -2.2 9 0 979.6 NA 0.0000 9999 9810 0 0 0
2019/03/20 10:41:03 BASE 0.55 351 2.06 346 0.0 85 -2.1 9 0 979.6 NA 0.0000 9999 9610 0 0 0
2019/03/20 10:42:03 BASE 0.43 6 2.06 346 0.1 85 -2.2 9 0 979.6 NA 0.0000 9999 9380 0 0 0
2019/03/20 10:43:03 BASE 0.65 8 2.06 346 0.1 84 -2.3 9 0 979.6 NA 0.0000 9999 9020 0 0 0
2019/03/20 10:44:03 BASE 1.06 7 2.06 346 0.2 83 -2.4 9 0 979.5 NA 0.0000 9999 9090 0 0 0
2019/03/20 10:45:03 BASE 1.23 26 1.90 347 0.2 82 -2.5 9 0 979.5 NA 0.0000 9999 8790 0 0 0
2019/03/20 10:46:04 BASE 1.01 57 1.65 64 0.3 82 -2.5 9 0 979.5 NA 0.0000 9999 7870 0 0 0
2019/03/20 10:47:03 BASE 1.24 82 2.21 108 0.3 81 -2.6 9 0 979.4 NA 0.0000 9999 7840 0 0 0
2019/03/20 10:48:03 BASE 2.12 114 2.88 141 0.3 81 -2.7 9 0 979.5 NA 0.0000 9999 7710 0 0 0
2019/03/20 10:49:03 BASE 2.15 121 2.88 141 0.2 81 -2.7 9 0 979.4 NA 0.0000 9999 7610 0 0 0
2019/03/20 10:50:03 BASE 2.24 107 4.99 93 0.2 81 -2.7 9 0 979.3 NA 0.0000 9999 7610 0 0 0
2019/03/20 10:51:03 BASE 2.83 102 4.99 93 0.2 81 -2.6 10 0 979.4 NA 0.0000 9999 6460 0 0 0
2019/03/20 10:52:03 BASE 1.90 132 4.99 93 0.3 81 -2.6 10 0 979.4 NA 0.0000 9999 7580 0 0 0
2019/03/20 10:53:04 BASE 0.93 122 4.99 93 0.3 81 -2.6 11 0 979.5 NA 0.0000 9999 6430 0 0 0
2019/03/20 10:54:04 BASE 1.71 3 4.99 93 0.3 81 -2.6 11 0 979.4 NA 0.0000 9999 7870 0 0 0
2019/03/20 10:55:03 BASE 2.56 343 4.99 93 0.2 82 -2.5 12 0 979.4 NA 0.0000 9999 7610 0 0 0
2019/03/20 10:56:03 BASE 2.53 345 4.99 93 0.1 83 -2.5 12 0 979.4 NA 0.0000 9999 7610 0 0 0
2019/03/20 10:57:03 BASE 2.13 332 4.99 93 -0.1 84 -2.4 13 0 979.3 NA 0.0000 9999 6630 0 0 0
2019/03/20 10:58:03 BASE 0.91 314 4.99 93 -0.2 86 -2.2 13 0 979.3 NA 0.0000 9999 7480 0 0 0
2019/03/20 10:59:04 BASE 0.00 306 4.99 93 -0.2 88 -2.0 14 0 979.3 NA 0.0000 9999 7380 0 0 0
2019/03/20 11:00:03 BASE 0.68 305 4.27 86 -0.2 89 -1.9 14 0 979.3 NA 0.0000 9999 7450 0 0 0
2019/03/20 11:01:03 BASE 2.03 299 2.98 342 -0.2 89 -1.8 14 0 979.2 NA 0.0000 9999 7280 0 0 0
2019/03/20 11:02:04 BASE 2.57 290 2.98 342 -0.2 89 -1.7 14 0 979.2 NA 0.0000 9999 6990 0 0 0
2019/03/20 11:03:03 BASE 2.05 287 2.98 342 -0.1 89 -1.6 14 0 979.2 NA 0.0000 9999 6790 0 0 0
2019/03/20 11:04:04 BASE 2.08 292 2.98 342 -0.0 89 -1.6 14 0 979.2 NA 0.0000 9999 7020 0 0 0
2019/03/20 11:05:04 BASE 2.65 306 3.19 319 0.0 89 -1.6 14 0 979.2 NA 0.0000 9999 7050 0 0 0
2019/03/20 11:06:03 BASE 2.95 321 3.34 324 0.0 88 -1.7 14 0 979.2 NA 0.0000 9999 7020 0 0 0
2019/03/20 11:07:03 BASE 3.20 326 3.55 322 0.0 88 -1.7 14 0 979.2 NA 0.0000 9999 6760 0 0 0
2019/03/20 11:08:03 BASE 3.37 326 3.86 327 -0.0 89 -1.7 13 0 979.2 NA 0.0000 9999 6730 0 0 0
2019/03/20 11:09:04 BASE 3.03 320 3.86 327 -0.1 89 -1.7 13 0 979.2 NA 0.0000 9999 6660 0 0 0
2019/03/20 11:10:03 BASE 2.62 311 3.86 327 -0.2 90 -1.7 13 0 979.2 NA 0.0000 9999 6560 0 0 0
2019/03/20 11:11:03 BASE 2.49 308 3.86 327 -0.2 90 -1.6 13 0 979.2 NA 0.0000 9999 5870 0 0 0
2019/03/20 11:12:03 BASE 2.00 311 3.86 327 -0.1 90 -1.6 13 0 979.2 NA 0.0000 9999 6040 0 0 0
2019/03/20 11:13:03 BASE 1.58 318 3.86 327 -0.1 90 -1.5 13 0 979.2 NA 0.0000 9999 6070 0 0 0
2019/03/20 11:14:03 BASE 2.15 328 3.86 327 -0.0 90 -1.5 13 0 979.2 NA 0.0000 9999 6230 0 0 0
2019/03/20 11:15:03 BASE 3.20 337 3.86 327 0.0 89 -1.6 13 0 979.2 NA 0.0000 9999 6300 0 0 0
2019/03/20 11:16:03 BASE 3.31 333 3.86 327 0.1 88 -1.7 13 0 979.2 NA 0.0000 9999 6200 0 0 0
2019/03/20 11:17:03 BASE 3.02 324 3.86 327 0.1 87 -1.8 14 0 979.1 NA 0.0000 9999 5610 0 0 0
2019/03/20 11:18:03 BASE 2.63 320 3.81 340 0.1 87 -1.8 14 0 979.1 NA 0.0000 9999 5220 0 0 0
2019/03/20 11:19:03 BASE 1.92 329 3.81 340 0.1 87 -1.9 15 0 979.1 NA 0.0000 9999 6070 0 0 0
2019/03/20 11:20:03 BASE 1.68 346 3.81 340 0.1 87 -1.9 16 0 979.1 NA 0.0000 9999 5410 0 0 0
2019/03/20 11:21:03 BASE 1.77 358 3.81 340 0.1 87 -1.8 17 0 979.1 NA 0.0000 9999 6500 0 0 0
2019/03/20 11:22:03 BASE 2.03 352 3.81 340 0.1 87 -1.8 17 0 979.1 NA 0.0000 9999 6630 0 0 0
2019/03/20 11:23:04 BASE 2.23 339 3.81 340 0.1 88 -1.7 18 0 979.1 NA 0.0000 9999 6730 0 0 0
2019/03/20 11:24:03 BASE 2.33 339 3.81 340 0.1 88 -1.7 18 0 979.0 NA 0.0000 9999 6920 0 0 0
2019/03/20 11:25:03 BASE 2.66 341 3.45 326 0.1 88 -1.7 19 0 979.1 NA 0.0000 9999 6500 0 0 0
2019/03/20 11:26:03 BASE 3.17 341 3.96 335 0.1 88 -1.7 19 0 979.0 NA 0.0000 9999 4760 0 0 0
2019/03/20 11:27:03 BASE 3.33 333 3.96 335 0.1 87 -1.7 19 0 979.0 NA 0.0000 9999 4360 0 0 0
2019/03/20 11:28:03 BASE 2.65 330 3.96 335 0.1 87 -1.8 20 0 979.0 NA 0.0000 9999 4170 0 0 0
2019/03/20 11:29:04 BASE 1.26 327 3.96 335 0.1 87 -1.8 20 0 979.0 NA 0.0000 9999 4100 0 0 0
2019/03/20 11:30:03 BASE 0.33 314 3.96 335 0.1 87 -1.8 20 0 979.0 NA 0.0000 9999 4170 0 0 0
2019/03/20 11:31:03 BASE 0.76 323 3.96 335 0.1 87 -1.8 21 0 979.0 NA 0.0000 9999 3840 0 0 0
2019/03/20 11:32:04 BASE 2.09 343 3.96 335 0.2 86 -1.8 21 0 979.0 NA 0.0000 9999 3810 0 0 0
2019/03/20 11:33:03 BASE 3.06 348 3.96 335 0.3 85 -2.0 22 0 979.0 NA 0.0000 9999 4040 0 0 0
2019/03/20 11:34:03 BASE 3.06 346 3.96 335 0.4 84 -2.1 22 0 979.0 NA 0.0000 9999 4230 0 0 0
2019/03/20 11:35:03 BASE 2.41 351 3.96 335 0.4 83 -2.2 23 0 979.0 NA 0.0000 9999 4530 0 0 0
2019/03/20 11:36:03 BASE 1.58 7 3.76 326 0.4 82 -2.3 23 0 978.9 NA 0.0000 9999 4330 0 0 0
2019/03/20 11:37:03 BASE 0.66 24 3.34 343 0.3 83 -2.3 24 0 978.9 NA 0.0000 9999 4630 0 0 0
2019/03/20 11:38:04 BASE 0.05 54 3.34 343 0.3 83 -2.2 24 0 978.9 NA 0.0000 9999 4860 0 0 0
2019/03/20 11:39:04 BASE 0.00 96 3.34 343 0.2 84 -2.1 24 0 978.9 NA 0.0000 9999 4490 0 0 0
2019/03/20 11:40:03 BASE 0.00 84 3.34 343 0.3 85 -2.0 24 0 978.9 NA 0.0000 9999 4400 0 0 0
2019/03/20 11:41:03 BASE 0.36 18 3.34 343 0.3 84 -2.0 25 0 978.9 NA 0.0000 9999 2920 0 0 0
2019/03/20 11:42:04 BASE 1.21 350 3.34 343 0.5 83 -2.1 25 0 978.9 NA 0.0000 9999 3900 0 0 0
2019/03/20 11:43:03 BASE 2.02 341 3.19 339 0.6 81 -2.3 25 0 978.8 NA 0.0000 9999 3380 0 0 0
2019/03/20 11:44:03 BASE 2.31 334 2.52 333 0.7 79 -2.5 26 0 978.8 NA 0.0000 9999 3380 0 0 0
2019/03/20 11:45:03 BASE 1.73 325 2.52 333 0.8 77 -2.8 26 0 978.7 NA 0.0000 9999 3080 0 0 0
2019/03/20 11:46:04 BASE 1.22 246 2.52 333 0.8 76 -3.0 26 0 978.8 NA 0.0000 9999 2720 0 0 0
2019/03/20 11:47:03 BASE 1.00 172 2.52 333 0.7 77 -2.9 27 0 978.7 NA 0.0000 9999 2990 0 0 0
2019/03/20 11:48:03 BASE 0.50 223 2.52 333 0.7 77 -2.8 28 0 978.7 NA 0.0000 9999 3150 0 0 0
2019/03/20 11:49:03 BASE 0.80 307 2.52 333 0.6 78 -2.8 28 0 978.7 NA 0.0000 9999 2950 0 0 0
2019/03/20 11:50:03 BASE 0.80 310 2.52 333 0.6 78 -2.7 27 0 978.7 NA 0.0000 9999 3150 0 0 0
2019/03/20 11:51:03 BASE 0.13 280 2.52 333 0.7 78 -2.8 28 0 978.7 NA 0.0000 9999 3150 0 0 0
2019/03/20 11:52:03 BASE 0.00 255 2.52 333 0.8 77 -2.9 29 0 978.7 NA 0.0000 9999 0 0 0 3150
2019/03/20 11:53:03 BASE 0.09 281 2.52 333 0.8 76 -3.0 29 0 978.7 NA 0.0000 9999 3080 0 0 0
2019/03/20 11:54:03 BASE 0.13 308 2.16 158 0.8 75 -3.1 30 0 978.6 NA 0.0000 9999 3050 0 0 0
2019/03/20 11:55:03 BASE 0.04 312 2.16 158 0.9 74 -3.2 31 0 978.6 NA 0.0000 9999 0 0 0 3050
2019/03/20 11:56:03 BASE 0.00 310 1.85 174 0.9 74 -3.3 32 0 978.6 NA 0.0000 9999 0 0 0 3150
2019/03/20 11:57:03 BASE 0.00 307 1.44 315 0.9 73 -3.4 33 0 978.5 NA 0.0000 9999 0 0 0 3080
2019/03/20 11:58:03 BASE 0.00 296 1.44 315 1.0 72 -3.5 35 0 978.5 NA 0.0000 9999 0 0 0 3120
2019/03/20 11:59:03 BASE 0.04 285 1.08 310 1.0 71 -3.6 36 0 978.5 NA 0.0000 9999 0 0 0 3450
2019/03/20 12:00:03 BASE 0.18 296 1.13 298 1.0 71 -3.7 37 0 978.5 NA 0.0000 9999 3220 0 0 0
2019/03/20 12:01:03 BASE 0.13 319 1.13 298 1.1 70 -3.7 38 0 978.6 NA 0.0000 9999 3380 0 0 0
2019/03/20 12:02:04 BASE 0.00 350 1.13 298 1.0 71 -3.7 40 0 978.6 NA 0.0000 9999 3510 0 0 0
2019/03/20 12:03:03 BASE 0.63 23 3.29 49 1.0 71 -3.6 41 0 978.6 NA 0.0000 9999 3610 0 0 0
2019/03/20 12:04:03 BASE 2.04 29 3.29 49 0.9 72 -3.5 42 0 978.6 NA 0.0000 9999 3540 0 0 0
2019/03/20 12:05:03 BASE 2.56 21 3.29 49 0.8 74 -3.3 43 0 978.6 NA 0.0000 9999 3480 0 0 0
2019/03/20 12:06:03 BASE 1.97 7 3.29 49 0.7 76 -3.0 44 0 978.5 NA 0.0000 9999 3580 0 0 0
2019/03/20 12:07:03 BASE 1.50 347 3.29 49 0.6 78 -2.8 44 0 978.5 NA 0.0000 9999 3450 0 0 0
2019/03/20 12:08:04 BASE 1.24 339 3.29 49 0.5 80 -2.5 45 0 978.5 NA 0.0000 9999 3540 0 0 0
2019/03/20 12:09:03 BASE 1.26 343 3.29 49 0.5 81 -2.4 44 0 978.5 NA 0.0000 9999 3770 0 0 0
2019/03/20 12:10:03 BASE 1.29 347 3.29 49 0.5 80 -2.4 43 0 978.5 NA 0.0000 9999 3970 0 0 0
2019/03/20 12:11:02 BASE 0.68 347 3.29 49 0.6 80 -2.5 43 0 978.5 NA 0.0000 9999 2760 0 0 0
2019/03/20 12:12:03 BASE 0.09 347 3.29 49 0.6 79 -2.7 43 0 978.5 NA 0.0000 9999 2620 0 0 0
2019/03/20 12:13:04 BASE 0.00 345 3.09 15 0.6 78 -2.8 43 0 978.5 NA 0.0000 9999 2590 0 0 0
2019/03/20 12:14:03 BASE 0.00 303 2.68 10 0.7 77 -2.9 43 0 978.5 NA 0.0000 9999 3710 0 0 0
2019/03/20 12:15:03 BASE 0.00 205 1.85 3 0.8 75 -3.0 43 0 978.5 NA 0.0000 9999 3670 0 0 0
2019/03/20 12:16:04 BASE 0.00 272 1.54 349 0.9 74 -3.2 42 0 978.4 NA 0.0000 9999 3870 0 0 0
2019/03/20 12:17:03 BASE 0.73 344 2.06 331 0.9 73 -3.3 42 0 978.4 NA 0.0000 9999 2920 0 0 0
2019/03/20 12:18:03 BASE 1.88 330 2.52 327 0.9 73 -3.3 41 0 978.4 NA 0.0000 9999 2820 0 0 0
2019/03/20 12:19:03 BASE 2.33 329 2.52 327 0.8 74 -3.3 40 0 978.4 NA 0.0000 9999 3900 0 0 0
2019/03/20 12:20:03 BASE 2.17 332 2.52 327 0.7 75 -3.3 38 0 978.3 NA 0.0000 9999 4130 0 0 0
2019/03/20 12:21:03 BASE 1.93 327 2.52 327 0.6 76 -3.1 36 0 978.3 NA 0.0000 9999 3870 0 0 0
2019/03/20 12:22:03 BASE 1.53 305 2.52 327 0.6 77 -3.0 34 0 978.3 NA 0.0000 9999 3810 0 0 0
2019/03/20 12:23:03 BASE 1.30 273 2.52 327 0.5 78 -2.9 32 0 978.2 NA 0.0000 9999 2460 0 0 0
2019/03/20 12:24:03 BASE 1.48 247 2.52 327 0.5 78 -2.9 31 0 978.2 NA 0.0000 9999 3770 0 0 0
2019/03/20 12:25:03 BASE 1.09 253 2.52 327 0.4 79 -2.8 29 0 978.3 NA 0.0000 9999 3770 0 0 0
2019/03/20 12:26:03 BASE 0.80 310 2.52 327 0.4 80 -2.7 28 0 978.3 NA 0.0000 9999 3710 0 0 0
2019/03/20 12:27:03 BASE 1.76 4 2.78 13 0.4 81 -2.5 27 0 978.4 NA 0.0000 9999 4720 0 0 0
2019/03/20 12:28:03 BASE 2.75 12 3.09 6 0.4 81 -2.4 26 0 978.4 NA 0.0000 9999 3640 0 0 0
2019/03/20 12:29:03 BASE 2.79 6 3.09 6 0.5 82 -2.3 25 0 978.4 NA 0.0000 9999 3280 0 0 0
2019/03/20 12:30:03 BASE 2.14 11 3.09 6 0.5 82 -2.2 24 0 978.4 NA 0.0000 9999 4300 0 0 0
2019/03/20 12:31:03 BASE 1.11 28 3.09 6 0.5 82 -2.2 24 0 978.4 NA 0.0000 9999 4270 0 0 0
2019/03/20 12:32:03 BASE 0.44 78 3.09 6 0.5 82 -2.2 23 0 978.3 NA 0.0000 9999 2790 0 0 0
2019/03/20 12:33:04 BASE 0.71 181 3.09 6 0.4 83 -2.1 23 0 978.3 NA 0.0000 9999 3900 0 0 0
2019/03/20 12:34:03 BASE 1.61 209 3.09 6 0.4 83 -2.1 22 0 978.2 NA 0.0000 9999 4000 0 0 0
2019/03/20 12:35:03 BASE 2.24 208 3.09 6 0.4 83 -2.1 22 0 978.2 NA 0.0000 9999 3870 0 0 0
2019/03/20 12:36:11 BASE 1.75 200 3.09 6 0.4 83 -2.1 23 0 978.3 NA 0.0000 9999 3810 0 0 0
2019/03/20 12:37:03 BASE 0.57 187 3.09 6 0.4 83 -2.1 24 0 978.3 NA 0.0000 9999 3810 0 0 0
2019/03/20 12:38:04 BASE 0.33 116 2.98 1 0.4 83 -2.1 24 0 978.3 NA 0.0000 9999 4330 0 0 0
2019/03/20 12:39:04 BASE 1.44 0 2.78 330 0.4 84 -2.0 25 0 978.3 NA 0.0000 9999 2950 0 0 0
2019/03/20 12:40:03 BASE 2.53 327 3.14 322 0.3 86 -1.8 25 0 978.2 NA 0.0000 9999 4100 0 0 0
2019/03/20 12:41:03 BASE 2.88 308 3.19 306 0.3 87 -1.6 26 0 978.2 NA 0.0000 9999 3710 0 0 0
2019/03/20 12:42:04 BASE 2.96 308 3.29 316 0.3 88 -1.5 27 0 978.2 NA 0.0000 9999 3480 0 0 0
2019/03/20 12:43:04 BASE 2.86 318 3.34 313 0.3 88 -1.5 27 0 978.2 NA 0.0000 9999 3670 0 0 0
2019/03/20 12:44:03 BASE 2.37 331 3.34 313 0.2 89 -1.4 27 0 978.2 NA 0.0000 9999 3970 0 0 0
2019/03/20 12:45:03 BASE 2.05 343 3.34 313 0.2 89 -1.4 27 0 978.2 NA 0.0000 9999 3970 0 0 0
2019/03/20 12:46:04 BASE 2.21 350 3.34 313 0.3 89 -1.3 27 0 978.2 NA 0.0000 9999 3900 0 0 0
2019/03/20 12:47:03 BASE 2.64 350 3.34 313 0.3 89 -1.3 27 0 978.2 NA 0.0000 9999 3840 0 0 0
2019/03/20 12:48:04 BASE 2.89 352 3.34 313 0.4 89 -1.3 27 0 978.2 NA 0.0000 9999 3670 0 0 0
2019/03/20 12:49:03 BASE 3.29 348 4.27 339 0.4 88 -1.4 26 0 978.2 NA 0.0000 9999 0 0 0 3840
2019/03/20 12:50:03 BASE 3.65 341 4.48 343 0.4 88 -1.4 26 0 978.2 NA 0.0000 9999 0 0 0 3840
2019/03/20 12:51:03 BASE 3.73 343 4.48 343 0.4 87 -1.5 26 0 978.2 NA 0.0000 9999 0 0 0 3770
2019/03/20 12:52:04 BASE 3.87 344 4.68 345 0.4 87 -1.5 25 0 978.2 NA 0.0000 9999 3580 0 0 0
2019/03/20 12:53:03 BASE 3.99 346 4.68 348 0.4 87 -1.4 25 0 978.3 NA 0.0000 9999 3410 0 0 0
2019/03/20 12:54:03 BASE 4.68 351 6.38 342 0.4 88 -1.4 25 0 978.3 NA 0.0000 9999 3310 0 0 0
2019/03/20 12:55:03 BASE 5.13 352 6.38 342 0.4 88 -1.3 24 0 978.3 NA 0.0000 9999 3380 0 0 0
2019/03/20 12:56:03 BASE 5.38 347 6.89 346 0.4 89 -1.2 24 0 978.3 NA 0.0000 9999 3150 0 0 0
2019/03/20 12:57:03 BASE 6.06 344 6.89 346 0.4 89 -1.2 23 0 978.3 NA 0.0000 9999 3150 0 0 0
2019/03/20 12:58:03 BASE 6.46 344 7.05 344 0.3 90 -1.1 23 0 978.3 NA 0.0000 9999 1380 0 0 0
2019/03/20 12:59:04 BASE 6.27 344 7.05 344 0.3 90 -1.1 23 0 978.3 NA 0.0000 9999 0 0 0 2850
2019/03/20 13:00:03 BASE 5.71 343 7.05 344 0.3 90 -1.0 23 0 978.3 NA 0.0000 9999 0 0 0 2560
2019/03/20 13:01:03 BASE 5.72 340 7.05 344 0.3 91 -1.0 23 0 978.3 NA 0.0000 9999 690 0 0 0
2019/03/20 13:02:03 BASE 6.31 337 7.05 344 0.4 91 -1.0 23 0 978.3 NA 0.0000 9999 660 0 0 0
2019/03/20 13:03:03 BASE 6.59 336 7.10 338 0.4 91 -0.9 23 0 978.3 NA 0.0000 9999 1050 0 0 0
2019/03/20 13:04:03 BASE 6.67 339 7.10 343 0.4 91 -0.9 23 0 978.3 NA 0.0000 9999 1280 0 0 0
2019/03/20 13:05:03 BASE 6.51 344 7.10 343 0.4 92 -0.8 23 0 978.3 NA 0.0000 9999 0 0 0 2560
2019/03/20 13:06:03 BASE 5.85 348 7.10 343 0.3 92 -0.8 23 0 978.3 NA 0.0000 9999 390 0 0 0
2019/03/20 13:07:03 BASE 5.42 350 7.10 343 0.3 93 -0.7 23 0 978.3 NA 0.0000 UP 9000 0 0 0 2590
2019/03/20 13:08:04 BASE 5.34 348 7.10 343 0.2 94 -0.6 23 0 978.2 NA 0.0000 UP 9000 0 0 0 2430
2019/03/20 13:09:03 BASE 5.10 344 7.10 343 0.2 95 -0.5 23 0 978.2 NA 0.0000 UP 9000 0 0 0 2490
2019/03/20 13:10:03 BASE 4.24 339 7.10 343 0.2 96 -0.4 23 0 978.2 NA 0.0000 UP 9000 0 0 0 2620
2019/03/20 13:11:03 BASE 3.77 335 7.10 343 0.3 97 -0.1 22 0 978.2 NA 0.0000 UP 9000 0 0 0 2400
2019/03/20 13:12:03 BASE 3.87 335 7.10 343 0.4 97 -0.0 22 0 978.2 NA 0.0000 UP BR 9000 0 0 0 2400
2019/03/20 13:13:03 BASE 2.96 348 7.10 343 0.4 97 0.0 21 0 978.2 NA 0.0000 UP BR 6000 0 0 0 2360
2019/03/20 13:14:03 BASE 1.95 360 6.94 346 0.5 97 0.1 21 0 978.2 NA 0.0000 UP BR 3700 0 0 0 2130
2019/03/20 13:15:03 BASE 1.38 29 5.76 349 0.5 97 0.1 20 0 978.1 NA 0.0000 UP BR 2000 0 0 0 2130
2019/03/20 13:16:04 BASE 1.44 188 5.76 349 0.4 97 0.0 20 0 978.1 NA 0.0000 -SN BR 1700 0 0 0 2100
2019/03/20 13:17:03 BASE 2.29 194 5.71 344 0.5 97 0.1 21 0 978.1 NA 0.0000 -SN BR 1900 0 0 0 2360
2019/03/20 13:18:03 BASE 3.18 170 5.71 344 0.5 98 0.2 21 0 978.1 NA 0.0000 -SN BR 2200 0 0 0 2200
2019/03/20 13:19:04 BASE 3.28 137 4.78 131 0.6 98 0.4 21 0 978.1 NA 0.0000 -SN BR 2000 330 0 0 0
2019/03/20 13:20:03 BASE 2.78 109 4.78 131 0.7 98 0.5 21 0 978.1 NA 0.0000 -SN BR 1600 0 0 0 2430
2019/03/20 13:21:03 BASE 2.35 88 4.78 131 0.8 99 0.6 21 0 978.1 NA 0.0000 -SN BR 1400 0 0 0 1970
2019/03/20 13:22:03 BASE 2.20 82 4.78 131 0.8 99 0.7 22 0 978.1 NA 0.0000 -SN BR 1200 330 0 0 0
2019/03/20 13:23:04 BASE 2.83 89 4.78 131 0.9 99 0.8 23 0 978.0 NA 0.0000 -SN BR 1000 0 0 0 2100
2019/03/20 13:24:03 BASE 3.14 103 4.78 131 1.0 99 0.9 24 0 977.9 NA 0.0000 -SN BR 1300 0 0 0 2400
2019/03/20 13:25:03 BASE 2.83 113 4.78 131 1.1 100 1.0 25 0 977.9 NA 0.0000 -SN BR 1600 0 0 0 2590
2019/03/20 13:26:03 BASE 2.19 93 4.78 131 1.2 100 1.1 25 0 977.9 NA 0.0000 -SN BR 2300 0 0 0 2690
2019/03/20 13:27:03 BASE 1.79 79 4.78 131 1.2 100 1.2 26 0 977.9 NA 0.0000 -SN BR 2300 0 0 0 2590
2019/03/20 13:28:03 BASE 2.24 85 3.81 100 1.2 100 1.2 26 0 977.9 NA 0.0000 -SN BR 2000 0 0 0 2760
2019/03/20 13:29:04 BASE 3.23 87 6.64 83 1.2 100 1.2 27 0 977.9 NA 0.0000 -SN BR 2000 0 0 0 2620
2019/03/20 13:30:04 BASE 4.34 81 6.64 83 1.2 100 1.2 27 0 977.9 NA 0.0000 -SN BR 2100 0 0 0 2560
2019/03/20 13:31:03 BASE 4.25 78 6.64 83 1.2 100 1.2 27 0 977.9 NA 0.0000 -SN BR 1600 0 0 0 2460
2019/03/20 13:32:03 BASE 3.35 87 6.64 83 1.2 100 1.2 28 0 977.9 NA 0.0000 -SN BR 1300 0 0 0 2400
2019/03/20 13:33:03 BASE 3.20 96 6.64 83 1.2 100 1.2 28 0 977.9 NA 0.0000 -SN BR 1400 0 0 0 2490
2019/03/20 13:34:03 BASE 3.02 93 6.64 83 1.1 100 1.1 28 0 977.9 NA 0.0000 -SN BR 1900 0 0 0 2530
2019/03/20 13:35:03 BASE 3.62 80 6.64 83 1.1 100 1.1 28 0 977.8 NA 0.0000 -SN BR 2200 0 0 0 2560
2019/03/20 13:36:03 BASE 5.37 76 8.08 58 1.1 100 1.1 28 0 977.8 NA 0.0000 -SN BR 2200 0 0 0 2490
2019/03/20 13:37:02 BASE 6.12 80 8.08 58 1.1 100 1.1 28 0 977.8 NA 0.0000 -SN BR 1700 0 0 0 2530
2019/03/20 13:38:03 BASE 7.12 81 9.83 76 1.2 100 1.2 28 0 977.8 NA 0.0000 -SN BR 1700 0 0 0 2560
2019/03/20 13:39:03 BASE 8.49 80 9.83 76 1.3 100 1.3 28 0 977.7 NA 0.0000 -SN BR 1800 0 0 0 2430
2019/03/20 13:40:03 BASE 9.31 79 11.32 66 1.4 100 1.4 29 0 977.7 NA 0.0000 -SN BR 1600 0 0 0 2460
2019/03/20 13:41:03 BASE 9.29 81 11.32 66 1.4 100 1.4 30 0 977.8 NA 0.0000 -SN BR 1800 0 0 0 2360
2019/03/20 13:42:03 BASE 9.46 85 11.83 87 1.5 100 1.5 31 0 977.7 NA 0.0000 -SN BR 2000 0 0 0 2330
2019/03/20 13:43:04 BASE 9.58 87 11.83 87 1.5 100 1.5 31 0 977.7 NA 0.0000 -SN BR 1900 0 0 0 2200
2019/03/20 13:44:04 BASE 9.46 83 11.83 87 1.5 100 1.5 32 0 977.7 NA 0.0000 -SN BR 1900 0 0 0 2300
2019/03/20 13:45:03 BASE 9.83 77 11.83 87 1.5 100 1.5 31 0 977.7 NA 0.0000 -SN BR 2100 0 0 0 2300
2019/03/20 13:46:05 BASE 9.56 78 11.83 87 1.5 100 1.5 31 0 977.7 NA 0.0000 -SN BR 2200 0 0 0 2230
2019/03/20 13:47:03 BASE 9.40 78 11.83 87 1.5 100 1.5 32 0 977.7 NA 0.0000 -SN BR 2200 0 0 0 2260
2019/03/20 13:48:04 BASE 9.53 76 11.83 87 1.5 100 1.5 31 0 977.7 NA 0.0000 -SN BR 2300 0 0 0 2430
2019/03/20 13:49:03 BASE 10.13 76 13.27 67 1.5 100 1.5 32 0 977.6 NA 0.0000 -SN BR 2000 0 0 0 2430
2019/03/20 13:50:03 BASE 10.96 78 13.27 67 1.5 100 1.5 33 0 977.4 NA 0.0000 -SN BR 1900 0 0 0 2360
2019/03/20 13:51:03 BASE 11.62 78 13.74 74 1.5 100 1.5 33 0 977.6 NA 0.0000 -SN BR 2200 0 0 0 2560
2019/03/20 13:52:04 BASE 12.02 75 14.04 67 1.5 100 1.5 33 0 977.6 NA 0.0000 -SN BR 3500 0 0 0 2530
2019/03/20 13:53:03 BASE 12.67 75 14.71 76 1.5 100 1.5 33 0 977.6 NA 0.0000 -SN BR 5000 0 0 0 2430
2019/03/20 13:54:03 BASE 13.04 75 14.71 76 1.6 100 1.6 34 0 977.6 NA 0.0000 -SN BR 4400 0 0 0 2360
2019/03/20 13:55:03 BASE 12.73 76 14.71 76 1.6 100 1.6 34 0 977.7 NA 0.0000 -SN BR 5000 0 0 0 2590
2019/03/20 13:56:04 BASE 12.96 80 15.28 73 1.6 100 1.6 34 0 977.6 NA 0.0000 -SN BR 4400 0 0 0 2620
2019/03/20 13:57:03 BASE 13.10 85 15.28 73 1.6 100 1.6 35 0 977.6 NA 0.0000 -SN BR 4100 0 0 0 2920
2019/03/20 13:58:04 BASE 13.28 87 15.28 73 1.6 100 1.6 35 0 977.6 NA 0.0000 -SN BR 4200 0 0 0 2720
2019/03/20 13:59:03 BASE 11.94 86 15.28 73 1.6 100 1.6 35 0 977.6 NA 0.0000 -SN BR 3500 0 0 0 2590
2019/03/20 14:00:03 BASE 10.81 82 15.28 73 1.6 100 1.6 35 0 977.6 NA 0.0000 -SN BR 3000 0 0 0 2590
2019/03/20 14:01:03 BASE 11.38 81 15.28 73 1.6 100 1.6 35 0 977.7 NA 0.0000 -SN BR 4000 0 0 0 2720
2019/03/20 14:02:04 BASE 11.21 79 15.28 73 1.6 100 1.6 35 0 977.7 NA 0.0000 -SN BR 2900 0 0 0 2790
2019/03/20 14:03:03 BASE 11.13 75 15.28 73 1.5 100 1.5 34 0 977.7 NA 0.0000 -SN BR 2400 0 0 0 2760
2019/03/20 14:04:04 BASE 10.71 75 15.28 73 1.5 100 1.5 34 0 977.7 NA 0.0000 -SN BR 2500 0 0 0 2590
2019/03/20 14:05:03 BASE 10.59 81 15.28 73 1.5 100 1.5 34 0 977.6 NA 0.0000 -SN BR 2600 0 0 0 2560
2019/03/20 14:06:04 BASE 11.80 82 14.97 78 1.4 100 1.4 35 0 977.6 NA 0.0000 -SN BR 2400 0 0 0 2690
2019/03/20 14:07:03 BASE 12.24 80 14.97 78 1.4 100 1.4 36 0 977.6 NA 0.0000 -SN BR 2900 0 0 0 2920
2019/03/20 14:08:03 BASE 11.87 82 14.97 78 1.4 100 1.4 37 0 977.6 NA 0.0000 -SN BR 6000 0 0 0 3180
2019/03/20 14:09:03 BASE 11.85 82 14.97 78 1.4 100 1.4 37 0 977.6 NA 0.0000 -SN BR 7000 0 0 0 3080
2019/03/20 14:10:03 BASE 11.11 85 14.97 78 1.5 100 1.5 37 0 977.6 NA 0.0000 -SN BR 6000 0 0 0 3250
2019/03/20 14:11:03 BASE 11.18 89 14.97 78 1.5 100 1.5 37 0 977.7 NA 0.0000 -SN BR 5000 0 0 0 2990
2019/03/20 14:12:03 BASE 11.94 89 14.97 78 1.5 100 1.5 38 0 977.7 NA 0.0000 -SN BR 3400 0 0 0 2890
2019/03/20 14:13:03 BASE 11.45 89 14.97 78 1.5 100 1.5 39 0 977.6 NA 0.0000 -SN BR 3100 0 0 0 2920
2019/03/20 14:14:03 BASE 10.91 89 14.97 78 1.5 100 1.5 42 0 977.7 NA 0.0000 -SN BR 3900 0 0 0 2760
2019/03/20 14:15:03 BASE 11.86 91 14.97 78 1.5 100 1.5 44 0 977.6 NA 0.0000 -SN BR 4400 0 0 0 2820
2019/03/20 14:16:03 BASE 12.39 91 14.56 88 1.4 100 1.4 46 0 977.6 NA 0.0000 -SN BR 4000 0 0 0 2990
2019/03/20 14:17:03 BASE 11.66 88 14.56 88 1.4 100 1.4 48 0 977.6 NA 0.0000 -SN BR 3000 0 0 0 2820
2019/03/20 14:18:03 BASE 11.82 87 14.56 88 1.4 100 1.4 51 0 977.6 NA 0.0000 -SN BR 3300 0 0 0 2720
2019/03/20 14:19:03 BASE 11.70 86 14.56 88 1.4 100 1.4 53 0 977.6 NA 0.0000 -SN BR 4700 0 0 0 2660
2019/03/20 14:20:03 BASE 11.67 82 14.61 67 1.4 100 1.4 56 0 977.6 NA 0.0000 -SN BR 5000 0 0 0 2820
2019/03/20 14:21:03 BASE 11.71 84 14.61 67 1.4 100 1.4 60 0 977.6 NA 0.0000 -SN BR 6000 0 0 0 2990
2019/03/20 14:22:03 BASE 10.93 88 14.61 67 1.4 100 1.4 62 0 977.6 NA 0.0000 -SN BR 7000 0 0 0 2890
2019/03/20 14:23:03 BASE 11.20 91 14.61 67 1.4 100 1.4 63 0 977.6 NA 0.0000 -SN BR 5000 0 0 0 2790
2019/03/20 14:24:04 BASE 12.09 94 14.61 67 1.4 100 1.4 65 0 977.6 NA 0.0000 -SN BR 3200 0 0 0 2690
2019/03/20 14:25:03 BASE 11.17 91 14.61 67 1.4 100 1.4 66 0 977.6 NA 0.0000 -SN BR 3800 0 0 0 2820
2019/03/20 14:26:03 BASE 9.87 90 14.61 67 1.4 100 1.4 67 0 977.6 NA 0.0000 -SN BR 7000 0 0 0 3020
2019/03/20 14:27:03 BASE 10.42 93 14.61 67 1.4 100 1.4 68 0 977.6 NA 0.0000 -SN BR 9999 0 0 0 2890
2019/03/20 14:28:03 BASE 10.88 88 14.61 67 1.5 100 1.5 69 0 977.6 NA 0.0000 -SN BR 8000 0 0 0 2990
2019/03/20 14:29:03 BASE 11.29 83 14.61 67 1.5 100 1.5 71 0 977.6 NA 0.0000 -SN BR 9000 0 0 0 2950
2019/03/20 14:30:03 BASE 11.72 82 14.56 92 1.5 100 1.5 71 0 977.6 NA 0.0000 -SN BR 9999 0 0 0 2950
2019/03/20 14:31:03 BASE 11.36 87 14.56 92 1.5 100 1.5 71 0 977.6 NA 0.0000 -SN BR 9999 0 0 0 2820
2019/03/20 14:32:03 BASE 11.62 91 14.56 92 1.5 100 1.5 71 0 977.6 NA 0.0000 -SN BR 9000 0 0 0 2690
2019/03/20 14:33:03 BASE 11.74 89 14.56 92 1.5 100 1.5 71 0 977.6 NA 0.0000 -SN BR 6000 0 0 0 2620
2019/03/20 14:34:03 BASE 11.45 84 13.89 90 1.5 100 1.5 72 0 977.6 NA 0.0000 -SN BR 6000 0 0 0 2560
2019/03/20 14:35:04 BASE 11.54 82 13.89 90 1.5 100 1.5 74 0 977.6 NA 0.0000 -SN BR 6000 0 0 0 2490
2019/03/20 14:36:03 BASE 12.30 79 14.66 76 1.5 100 1.5 75 0 977.6 NA 0.0000 -SN BR 8000 980 0 0 0
2019/03/20 14:37:03 BASE 12.75 77 14.66 76 1.6 100 1.6 76 0 977.6 NA 0.0000 -SN BR 9999 460 0 0 0
2019/03/20 14:38:04 BASE 12.95 76 14.66 71 1.6 100 1.6 76 0 977.6 NA 0.0000 -SN BR 9000 460 0 0 0
2019/03/20 14:39:03 BASE 13.11 76 14.71 77 1.6 100 1.6 76 0 977.6 NA 0.0000 -SN BR 9000 430 0 0 0
2019/03/20 14:40:03 BASE 13.49 77 15.28 74 1.7 100 1.7 76 0 977.6 NA 0.0000 -SN BR 4600 390 0 0 0
2019/03/20 14:41:03 BASE 13.15 76 15.28 74 1.7 100 1.7 78 0 977.6 NA 0.0000 -SN BR 2500 360 0 0 0
2019/03/20 14:42:04 BASE 11.81 76 15.28 74 1.7 100 1.7 79 0 977.6 NA 0.0000 -SN BR 2100 330 0 0 0
2019/03/20 14:43:02 BASE 10.74 79 15.28 74 1.7 100 1.7 80 0 977.6 NA 0.0000 -SN BR 2800 360 0 0 0
2019/03/20 14:44:03 BASE 9.88 83 15.28 74 1.7 100 1.7 81 0 977.6 NA 0.0000 -SN BR 4800 430 0 0 0
2019/03/20 14:45:03 BASE 9.71 82 15.28 74 1.7 100 1.7 80 0 977.6 NA 0.0000 -SN BR 4500 0 0 0 2130
2019/03/20 14:46:04 BASE 9.65 79 15.28 74 1.7 100 1.7 79 0 977.7 NA 0.0000 -SN BR 4300 0 0 0 2200
2019/03/20 14:47:03 BASE 10.12 79 15.28 74 1.6 100 1.6 77 0 977.6 NA 0.0000 -SN BR 3700 430 0 0 0
2019/03/20 14:48:03 BASE 10.58 79 15.28 74 1.6 100 1.6 77 0 977.6 NA 0.0000 -SN BR 3300 390 0 0 0
2019/03/20 14:49:03 BASE 11.28 75 15.28 74 1.6 100 1.6 78 0 977.6 NA 0.0000 -SN BR 3800 390 0 0 0
2019/03/20 14:50:03 BASE 11.83 74 13.79 79 1.6 100 1.6 80 0 977.6 NA 0.0000 -SN BR 6000 460 0 0 0
2019/03/20 14:51:03 BASE 11.11 77 13.79 79 1.6 100 1.6 81 0 977.6 NA 0.0000 -SN BR 9000 460 0 0 0
2019/03/20 14:52:03 BASE 10.79 80 13.79 79 1.6 100 1.6 82 0 977.6 NA 0.0000 -SN BR 5000 460 0 0 0
2019/03/20 14:53:03 BASE 11.15 80 13.79 79 1.6 100 1.6 82 0 977.6 NA 0.0000 -SN BR 3700 430 0 0 0
2019/03/20 14:54:03 BASE 11.65 79 13.79 79 1.5 100 1.5 83 0 977.6 NA 0.0000 -SN BR 3000 390 0 0 0
2019/03/20 14:55:04 BASE 11.53 84 13.79 79 1.5 100 1.5 84 0 977.7 NA 0.0000 -SN BR 3400 390 0 0 0
2019/03/20 14:56:03 BASE 11.10 84 13.79 79 1.5 100 1.5 84 0 977.7 NA 0.0000 -SN BR 4500 390 0 0 0
2019/03/20 14:57:03 BASE 10.23 83 13.79 79 1.5 100 1.5 84 0 977.7 NA 0.0000 -SN BR 4100 460 0 0 0
2019/03/20 14:58:03 BASE 9.96 84 13.79 79 1.5 100 1.5 83 0 977.7 NA 0.0000 -SN BR 3400 390 0 0 0
2019/03/20 14:59:03 BASE 10.04 85 13.79 79 1.5 100 1.5 83 0 977.7 NA 0.0000 -SN BR 1400 390 0 0 0
2019/03/20 15:00:03 BASE 9.68 84 12.96 77 1.5 100 1.5 83 0 977.7 NA 0.0000 -SN BR 1800 0 0 0 2490
2019/03/20 15:01:03 BASE 9.54 82 12.96 77 1.5 100 1.5 82 0 977.7 NA 0.0000 -SN BR 3900 0 0 0 2360
2019/03/20 15:02:03 BASE 9.09 82 12.96 77 1.5 100 1.5 82 0 977.7 NA 0.0000 -SN BR 4200 0 0 0 2300
2019/03/20 15:03:03 BASE 9.33 83 12.96 77 1.5 100 1.5 82 0 977.7 NA 0.2540 -SN BR 3800 390 0 0 0
2019/03/20 15:04:04 BASE 9.09 82 12.19 75 1.5 100 1.5 83 0 977.7 NA 0.0000 -SN BR 2800 390 21160 0 0
2019/03/20 15:05:03 BASE 8.30 82 12.19 75 1.5 100 1.5 86 0 977.7 NA 0.0000 -SN BR 3200 390 0 0 0
2019/03/20 15:06:03 BASE 8.67 83 11.57 78 1.5 100 1.5 88 0 977.7 NA 0.0000 -SN BR 4100 430 0 0 0
2019/03/20 15:07:04 BASE 9.11 83 11.47 83 1.5 100 1.5 88 0 977.7 NA 0.0000 -SN BR 4000 890 0 0 0
2019/03/20 15:08:03 BASE 8.87 83 11.21 78 1.5 100 1.5 88 0 977.7 NA 0.0000 -SN BR 4100 430 0 0 0
2019/03/20 15:09:04 BASE 8.54 85 11.11 88 1.5 100 1.5 88 0 977.7 NA 0.0000 -SN BR 4000 430 0 0 0
2019/03/20 15:10:03 BASE 8.11 87 11.11 88 1.5 100 1.5 87 0 977.7 NA 0.0000 -SN BR 4100 980 0 0 0
2019/03/20 15:11:03 BASE 8.36 87 11.11 88 1.5 100 1.5 86 0 977.7 NA 0.0000 -SN BR 4200 0 0 0 2200
2019/03/20 15:12:03 BASE 8.52 88 11.11 88 1.5 100 1.5 83 0 977.7 NA 0.0000 -SN BR 5000 0 0 0 2300
2019/03/20 15:13:03 BASE 8.05 89 10.60 82 1.5 100 1.5 79 0 977.7 NA 0.0000 -SN BR 5000 0 0 0 2330
2019/03/20 15:14:03 BASE 7.34 89 10.34 85 1.5 100 1.5 76 0 977.7 NA 0.0000 -SN BR 5000 430 0 0 0
2019/03/20 15:15:03 BASE 6.91 88 10.34 85 1.5 100 1.5 74 0 977.7 NA 0.0000 -SN BR 5000 430 0 0 0
2019/03/20 15:16:04 BASE 6.44 85 9.93 88 1.5 100 1.5 71 0 977.7 NA 0.0000 -SN BR 6000 0 0 0 2360
2019/03/20 15:17:03 BASE 5.36 84 9.93 88 1.5 100 1.5 69 0 977.7 NA 0.0000 -SN BR 8000 460 0 0 0
2019/03/20 15:18:03 BASE 4.75 83 9.93 88 1.5 100 1.5 68 0 977.7 NA 0.0000 -SN BR 9000 0 0 0 2560
2019/03/20 15:19:03 BASE 4.88 82 9.77 79 1.5 100 1.5 65 0 977.7 NA 0.0000 -SN BR 8000 0 0 0 2590
2019/03/20 15:20:03 BASE 4.90 83 9.77 79 1.5 100 1.5 65 0 977.7 NA 0.0000 -SN BR 8000 460 0 0 0
2019/03/20 15:21:03 BASE 4.62 83 9.36 80 1.5 100 1.5 63 0 977.7 NA 0.0000 -SN BR 9000 460 0 0 0
2019/03/20 15:22:04 BASE 4.75 83 9.36 80 1.6 100 1.6 63 0 977.7 NA 0.0000 -SN BR 9000 460 0 0 0
2019/03/20 15:23:03 BASE 4.87 83 7.82 81 1.6 100 1.6 62 0 977.7 NA 0.0000 -SN BR 9000 490 0 0 0
2019/03/20 15:24:03 BASE 4.71 78 7.82 81 1.6 100 1.6 61 0 977.7 NA 0.0000 -SN BR 9999 0 0 0 2430
2019/03/20 15:25:03 BASE 5.48 71 7.92 66 1.7 100 1.7 60 0 977.8 NA 0.0000 -SN BR 9999 0 0 0 2530
2019/03/20 15:26:04 BASE 6.69 70 7.92 66 1.7 100 1.7 61 0 977.8 NA 0.0000 -SN BR 9000 0 0 0 2560
2019/03/20 15:27:03 BASE 6.38 70 7.92 66 1.7 100 1.7 61 0 977.8 NA 0.0000 -SN BR 8000 0 0 0 2490
2019/03/20 15:28:03 BASE 5.07 68 7.92 66 1.7 100 1.7 61 0 977.8 NA 0.0000 -SN BR 9000 0 0 0 2620
2019/03/20 15:29:03 BASE 5.05 63 7.92 66 1.7 100 1.7 62 0 977.8 NA 0.0000 -SN BR 9999 0 0 0 2690
2019/03/20 15:30:04 BASE 5.22 59 7.92 66 1.7 100 1.7 62 0 977.8 NA 0.0000 -SN BR 9999 950 0 0 0
2019/03/20 15:31:04 BASE 4.34 57 7.92 66 1.7 100 1.7 62 0 977.8 NA 0.0000 -SN BR 9999 520 0 0 0
2019/03/20 15:32:04 BASE 3.46 51 7.92 66 1.7 100 1.7 62 0 977.8 NA 0.0000 -SN BR 9999 950 0 0 0
2019/03/20 15:33:04 BASE 2.64 48 7.92 66 1.7 100 1.7 61 0 977.8 NA 0.0000 -SN BR 9999 620 0 0 0
2019/03/20 15:34:03 BASE 2.41 43 7.92 66 1.7 100 1.7 61 0 977.8 NA 0.0000 -SN BR 9999 490 0 0 0
2019/03/20 15:35:03 BASE 2.42 25 7.72 69 1.7 100 1.7 61 0 977.8 NA 0.0000 -SN BR 9999 490 0 0 0
2019/03/20 15:36:03 BASE 3.02 357 6.94 55 1.7 100 1.7 63 0 977.8 NA 0.0000 -SN BR 9999 490 0 0 0
2019/03/20 15:37:03 BASE 4.25 334 6.94 55 1.6 100 1.6 65 0 977.8 NA 0.0000 -SN BR 9000 490 1480 0 0
2019/03/20 15:38:03 BASE 4.55 313 6.94 55 1.5 100 1.5 68 0 977.8 NA 0.0000 -SN BR 8000 520 1510 0 0
2019/03/20 15:39:03 BASE 3.71 297 5.81 327 1.4 100 1.4 71 0 977.8 NA 0.0000 -SN BR 7000 490 0 0 0
2019/03/20 15:40:03 BASE 3.31 303 5.81 327 1.4 100 1.4 75 0 977.8 NA 0.0000 -SN BR 7000 430 0 0 0
2019/03/20 15:41:04 BASE 3.01 307 5.81 327 1.3 100 1.3 78 0 977.8 NA 0.0000 -SN BR 8000 360 0 0 0
2019/03/20 15:42:03 BASE 2.55 289 5.81 327 1.3 100 1.3 80 0 977.8 NA 0.0000 -SN BR 7000 330 0 0 0
2019/03/20 15:43:03 BASE 2.13 278 5.81 327 1.3 100 1.3 80 0 977.8 NA 0.0000 -SN BR 4300 330 0 0 0
2019/03/20 15:44:03 BASE 2.57 292 5.81 327 1.4 100 1.4 82 0 977.8 NA 0.0000 -SN BR 4700 300 0 0 0
2019/03/20 15:45:03 BASE 4.17 305 5.81 301 1.4 100 1.4 84 0 977.8 NA 0.0000 -SN BR 7000 300 0 0 0
2019/03/20 15:46:05 BASE 5.15 299 6.28 289 1.3 100 1.3 87 0 977.8 NA 0.0000 -SN BR 6000 260 0 0 0
2019/03/20 15:47:03 BASE 5.45 290 6.28 289 1.2 100 1.2 91 0 977.8 NA 0.0000 -SN BR 4200 230 0 0 0
2019/03/20 15:48:03 BASE 5.07 283 6.28 289 1.0 100 1.0 93 0 977.8 NA 0.2540 -SN BR 3800 260 0 0 0
2019/03/20 15:49:03 BASE 4.31 275 6.28 289 0.9 100 0.9 93 0 977.8 NA 0.0000 -SN BR 4200 260 0 0 0
2019/03/20 15:50:03 BASE 3.75 277 6.28 289 0.7 100 0.7 92 0 977.8 NA 0.0000 -SN BR 3300 230 0 0 0
2019/03/20 15:51:03 BASE 3.26 281 6.28 289 0.7 100 0.7 92 0 977.8 NA 0.0000 -SN BR 3000 230 0 0 0
2019/03/20 15:52:03 BASE 3.48 276 6.28 289 0.6 100 0.6 93 0 977.8 NA 0.0000 -SN BR 3500 230 0 0 0
2019/03/20 15:53:03 BASE 3.88 269 6.28 289 0.6 100 0.6 92 0 977.8 NA 0.0000 -SN BR 4700 300 0 0 0
2019/03/20 15:54:04 BASE 3.84 264 6.28 289 0.6 100 0.6 90 0 977.8 NA 0.0000 -SN BR 4800 0 0 0 3450
2019/03/20 15:55:03 BASE 3.88 261 6.28 289 0.5 100 0.5 89 0 977.8 NA 0.0000 -SN BR 4800 300 0 0 0
2019/03/20 15:56:04 BASE 3.87 261 5.86 297 0.5 100 0.5 88 0 977.8 NA 0.0000 -SN BR 4900 330 0 0 0
2019/03/20 15:57:03 BASE 3.76 262 5.20 286 0.4 100 0.4 85 0 977.8 NA 0.0000 -SN BR 5000 330 0 0 0
2019/03/20 15:58:04 BASE 3.77 261 4.58 272 0.4 100 0.4 84 0 977.9 NA 0.0000 -SN BR 6000 330 0 0 0
2019/03/20 15:59:03 BASE 3.80 258 4.58 272 0.4 100 0.4 84 0 977.8 NA 0.0000 -SN BR 8000 360 0 0 0
2019/03/20 16:00:03 BASE 3.82 255 4.58 272 0.4 100 0.4 85 0 977.8 NA 0.0000 -SN BR 7000 330 0 0 0
2019/03/20 16:01:03 BASE 3.71 252 4.58 272 0.4 100 0.4 85 0 977.8 NA 0.0000 -SN BR 9000 330 0 0 0
2019/03/20 16:02:03 BASE 3.41 252 4.48 271 0.4 100 0.4 82 0 977.8 NA 0.0000 -SN BR 6000 360 0 0 0
2019/03/20 16:03:03 BASE 3.05 256 4.32 265 0.4 100 0.4 80 0 977.8 NA 0.0000 -SN BR 5000 360 0 0 0
2019/03/20 16:04:03 BASE 2.51 261 4.17 265 0.4 100 0.4 78 0 977.9 NA 0.0000 -SN BR 6000 330 0 0 0
2019/03/20 16:05:03 BASE 2.08 262 4.12 260 0.4 100 0.4 77 0 977.9 NA 0.0000 -SN BR 4500 300 0 0 0
2019/03/20 16:06:04 BASE 1.85 256 4.06 262 0.4 100 0.4 77 0 977.9 NA 0.0000 -SN BR 3900 260 0 0 0
2019/03/20 16:07:04 BASE 2.04 250 4.06 262 0.4 100 0.4 78 0 977.9 NA 0.0000 -SN BR 2200 0 0 0 2030
2019/03/20 16:08:04 BASE 2.37 244 4.01 253 0.4 100 0.4 77 0 977.9 NA 0.0000 -SN BR 1400 0 0 0 2100
2019/03/20 16:09:04 BASE 2.21 241 4.01 253 0.4 100 0.4 76 0 977.8 NA 0.0000 -SN BR 1200 0 0 0 2130
2019/03/20 16:10:03 BASE 1.97 242 3.81 249 0.4 100 0.4 75 0 977.8 NA 0.0000 -SN BR 1300 0 0 0 2130
2019/03/20 16:11:03 BASE 1.55 246 3.45 251 0.4 100 0.4 73 0 977.9 NA 0.0000 -SN BR 1500 0 0 0 2100
2019/03/20 16:12:03 BASE 0.73 250 3.14 255 0.4 100 0.4 72 0 977.9 NA 0.0000 -SN BR 1200 0 0 0 2070
2019/03/20 16:13:03 BASE 0.32 257 2.62 244 0.4 100 0.4 70 0 977.8 NA 0.0000 -SN BR 1200 0 0 0 2130
2019/03/20 16:14:03 BASE 0.31 264 2.52 242 0.4 100 0.4 67 0 977.8 NA 0.0000 -SN BR 1400 22870 0 0 0
2019/03/20 16:15:03 BASE 0.13 277 2.52 242 0.4 100 0.4 64 0 977.9 NA 0.2540 -SN BR 1600 0 0 0 2170
2019/03/20 16:16:03 BASE 0.00 302 2.52 242 0.4 100 0.4 61 0 977.9 NA 0.0000 -SN BR 1600 0 0 0 2170
2019/03/20 16:17:03 BASE 0.00 314 2.52 242 0.4 100 0.4 59 0 977.9 NA 0.0000 -SN BR 1600 0 0 0 2100
2019/03/20 16:18:04 BASE 0.10 319 2.37 244 0.4 100 0.4 56 0 977.9 NA 0.0000 -SN BR 1700 0 0 0 2000
2019/03/20 16:19:04 BASE 0.64 320 2.06 241 0.4 100 0.4 54 0 977.9 NA 0.0000 -SN BR 1600 0 0 0 2100
2019/03/20 16:20:03 BASE 1.39 309 1.85 300 0.3 100 0.3 51 0 977.9 NA 0.0000 -SN BR 1700 0 0 0 2170
2019/03/20 16:21:03 BASE 1.79 302 2.06 299 0.3 100 0.3 47 0 977.9 NA 0.0000 -SN BR 1900 0 0 0 1670
2019/03/20 16:22:03 BASE 1.72 309 2.06 299 0.2 100 0.2 44 0 977.9 NA 0.0000 -SN BR 2000 0 0 0 1310
2019/03/20 16:23:03 BASE 1.52 318 2.06 299 0.2 100 0.2 43 0 977.9 NA 0.0000 -SN BR 1700 0 0 0 950
2019/03/20 16:24:03 BASE 1.70 320 2.06 324 0.1 100 0.1 40 0 977.9 NA 0.0000 -SN BR 1600 0 0 0 890
2019/03/20 16:25:03 BASE 1.91 323 2.11 324 0.1 100 0.1 39 0 977.9 NA 0.0000 -SN BR 1400 0 0 0 660
2019/03/20 16:26:03 BASE 1.86 326 2.11 324 0.1 100 0.1 38 0 977.9 NA 0.0000 -SN BR 1400 0 0 0 590
2019/03/20 16:27:03 BASE 1.77 326 2.11 324 0.1 100 0.1 37 0 977.9 NA 0.0000 -SN BR 1600 0 0 0 690
2019/03/20 16:28:03 BASE 1.81 323 2.11 324 0.1 100 0.1 36 0 977.9 NA 0.0000 -SN BR 1700 0 0 0 590
2019/03/20 16:29:04 BASE 1.89 322 2.11 324 0.1 100 0.1 36 0 977.9 NA 0.0000 -SN BR 1900 0 0 0 490
2019/03/20 16:30:03 BASE 2.08 318 2.37 309 0.1 100 0.1 36 0 977.9 NA 0.2540 -SN BR 2100 0 0 0 490
2019/03/20 16:31:03 BASE 2.16 312 2.37 309 0.1 100 0.1 37 0 977.9 NA 0.0000 -SN BR 2200 0 0 0 520
2019/03/20 16:32:03 BASE 1.98 312 2.37 309 0.1 100 0.1 39 0 977.9 NA 0.0000 -SN BR 1800 0 0 0 590
2019/03/20 16:33:03 BASE 1.72 317 2.37 309 0.2 100 0.2 40 0 977.9 NA 0.0000 -SN BR 1400 0 0 0 590
2019/03/20 16:34:04 BASE 1.58 328 2.37 309 0.2 100 0.2 41 0 977.9 NA 0.0000 -SN BR 1400 0 0 0 560
2019/03/20 16:35:03 BASE 1.78 334 2.37 309 0.2 100 0.2 42 0 978.0 NA 0.0000 -SN BR 1500 0 0 0 520
2019/03/20 16:36:04 BASE 2.11 331 2.42 329 0.2 100 0.2 44 0 978.1 NA 0.0000 -SN BR 1400 0 0 0 560
2019/03/20 16:37:03 BASE 2.17 326 2.42 329 0.2 100 0.2 45 0 978.1 NA 0.0000 -SN BR 1400 0 0 0 560
2019/03/20 16:38:03 BASE 2.17 321 2.42 319 0.2 100 0.2 47 0 978.1 NA 0.0000 -SN BR 1500 0 0 0 620
2019/03/20 16:39:03 BASE 2.21 317 2.42 319 0.1 100 0.1 50 0 978.1 NA 0.0000 -SN BR 1500 0 0 0 850
2019/03/20 16:40:03 BASE 2.20 315 2.42 319 0.1 100 0.1 53 0 978.1 NA 0.0000 -SN BR 1800 0 0 0 950
2019/03/20 16:41:03 BASE 2.29 313 2.47 310 0.1 100 0.1 55 0 978.1 NA 0.2540 -SN BR 1900 0 0 0 1310
2019/03/20 16:42:03 BASE 2.44 311 2.68 310 0.1 100 0.1 56 0 978.1 NA 0.0000 -SN BR 1600 0 0 0 1080
2019/03/20 16:43:03 BASE 2.59 312 2.73 315 0.1 100 0.1 57 0 978.1 NA 0.0000 -SN BR 1700 0 0 0 690
2019/03/20 16:44:04 BASE 2.56 310 2.73 315 0.1 100 0.1 60 0 978.1 NA 0.0000 -SN BR 2100 0 0 0 660
2019/03/20 16:45:03 BASE 2.29 302 2.73 315 0.1 100 0.1 64 0 978.1 NA 0.0000 -SN BR 1900 0 0 0 560
2019/03/20 16:46:04 BASE 1.90 290 2.73 315 0.1 100 0.1 67 0 978.1 NA 0.0000 -SN BR 1800 23070 0 0 0
2019/03/20 16:47:04 BASE 1.62 275 2.73 315 0.1 100 0.1 71 0 978.1 NA 0.0000 -SN BR 1500 0 0 0 620
2019/03/20 16:48:03 BASE 1.06 253 2.73 315 0.1 100 0.1 75 0 978.1 NA 0.0000 -SN BR 1200 0 0 0 850
2019/03/20 16:49:03 BASE 0.89 249 2.73 315 0.1 100 0.1 78 0 978.1 NA 0.0000 -SN BR 0750 0 0 0 850
2019/03/20 16:50:03 BASE 1.38 257 2.73 315 0.1 100 0.1 82 0 978.1 NA 0.0000 -SN BR 0900 0 0 0 720
2019/03/20 16:51:04 BASE 1.49 254 2.73 315 0.1 100 0.1 85 0 978.1 NA 0.0000 -SN BR 1000 0 0 0 620
2019/03/20 16:52:03 BASE 1.51 252 2.73 315 0.1 100 0.1 89 0 978.1 NA 0.0000 -SN BR 1000 0 0 0 560
2019/03/20 16:53:03 BASE 1.53 244 2.68 310 0.1 100 0.1 92 0 978.1 NA 0.0000 -SN BR 1100 0 0 0 660
2019/03/20 16:54:04 BASE 1.17 229 2.37 299 0.1 100 0.1 89 0 978.1 NA 0.0000 -SN BR 1100 0 0 0 750
2019/03/20 16:55:03 BASE 0.50 209 2.31 256 0.1 100 0.1 89 0 978.1 NA 0.0000 SN BR 0900 0 0 0 750
2019/03/20 16:56:03 BASE 0.05 184 2.31 256 0.1 100 0.1 86 0 978.1 NA 0.0000 SN BR 0800 0 0 0 720
2019/03/20 16:57:03 BASE 0.00 185 2.31 256 0.1 100 0.1 83 0 978.1 NA 0.0000 SN BR 0900 0 0 0 690
2019/03/20 16:58:04 BASE 0.00 181 2.31 256 0.1 100 0.1 81 0 978.1 NA 0.0000 SN BR 1200 0 0 0 590
2019/03/20 16:59:03 BASE 0.05 188 2.31 256 0.1 100 0.1 80 0 978.1 NA 0.2540 SN BR 1200 0 0 0 590
2019/03/20 17:00:03 BASE 0.52 209 2.06 264 0.1 100 0.1 77 0 978.1 NA 0.0000 SN BR 0900 0 0 0 620
2019/03/20 17:01:03 BASE 1.20 194 1.95 249 0.1 100 0.1 72 0 978.1 NA 0.0000 SN BR 0800 0 0 0 820
2019/03/20 17:02:03 BASE 1.44 172 1.85 167 0.1 100 0.1 67 0 978.1 NA 0.0000 SN BR 0900 0 0 0 950
2019/03/20 17:03:03 BASE 1.26 159 1.85 167 0.1 100 0.1 62 0 978.1 NA 0.0000 SN BR 1000 0 0 0 980
2019/03/20 17:04:03 BASE 0.75 149 1.85 167 0.2 100 0.2 57 0 978.1 NA 0.0000 SN BR 1100 0 0 0 890
2019/03/20 17:05:03 BASE 0.21 133 1.85 167 0.2 100 0.2 54 0 978.2 NA 0.0000 SN BR 1100 0 0 0 890
2019/03/20 17:06:03 BASE 0.00 161 1.85 167 0.2 100 0.2 52 0 978.2 NA 0.0000 SN BR 1200 0 0 0 820
2019/03/20 17:07:03 BASE 0.00 215 1.85 167 0.2 100 0.2 52 0 978.2 NA 0.2540 SN BR 1400 0 0 0 790
2019/03/20 17:08:03 BASE 0.09 209 1.85 167 0.2 100 0.2 52 0 978.2 NA 0.0000 -SN BR 1400 0 0 0 750
2019/03/20 17:09:03 BASE 0.17 208 1.85 167 0.2 100 0.2 53 0 978.2 NA 0.0000 -SN BR 1400 0 0 0 750
2019/03/20 17:10:03 BASE 0.66 212 1.85 167 0.2 100 0.2 55 0 978.2 NA 0.0000 -SN BR 1300 0 0 0 890
2019/03/20 17:11:03 BASE 1.30 215 1.80 225 0.2 100 0.2 56 0 978.2 NA 0.0000 -SN BR 1300 0 0 0 980
2019/03/20 17:12:03 BASE 1.60 216 1.90 221 0.2 100 0.2 58 0 978.1 NA 0.0000 -SN BR 1200 0 0 0 950
2019/03/20 17:13:03 BASE 1.68 216 2.11 218 0.1 100 0.1 58 0 978.1 NA 0.0000 -SN BR 0900 0 0 0 1020
2019/03/20 17:14:03 BASE 1.58 219 2.11 218 0.1 100 0.1 59 0 978.2 NA 0.0000 -SN BR 0800 0 0 0 750
2019/03/20 17:15:03 BASE 1.23 218 2.11 218 0.1 100 0.1 58 0 978.2 NA 0.0000 -SN BR 0650 0 0 0 750
2019/03/20 17:16:04 BASE 0.60 213 2.11 218 0.1 100 0.1 57 0 978.2 NA 0.0000 SN BR 0800 0 0 0 590
2019/03/20 17:17:04 BASE 0.14 211 2.11 218 0.1 100 0.1 57 0 978.2 NA 0.0000 +SN BR 1200 0 0 0 720
2019/03/20 17:18:03 BASE 0.00 212 2.11 218 0.1 100 0.1 59 0 978.2 NA 0.2540 +SN BR 1200 0 0 0 690
2019/03/20 17:19:03 BASE 0.00 224 2.11 218 0.1 100 0.1 62 0 978.2 NA 0.0000 SN BR 1300 0 0 0 820
2019/03/20 17:20:04 BASE 0.00 236 2.11 218 0.1 100 0.1 66 0 978.2 NA 0.0000 SN BR 1300 0 0 0 850
2019/03/20 17:21:05 BASE 0.15 244 2.11 218 0.1 100 0.1 72 0 978.2 NA 0.0000 SN BR 1200 0 0 0 950
2019/03/20 17:22:03 BASE 0.86 248 2.11 218 0.1 100 0.1 76 0 978.2 NA 0.0000 SN BR 1200 0 0 0 1150
2019/03/20 17:23:03 BASE 1.56 242 2.11 240 0.1 100 0.1 79 0 978.2 NA 0.0000 SN BR 1400 0 0 0 1150
2019/03/20 17:24:04 BASE 1.76 240 2.21 242 0.1 100 0.1 81 0 978.2 NA 0.0000 -SN BR 1500 0 0 0 1150
2019/03/20 17:25:04 BASE 1.76 234 2.21 242 0.1 100 0.1 84 0 978.2 NA 0.0000 -SN BR 1300 0 0 0 1050
2019/03/20 17:26:03 BASE 1.39 225 2.21 242 0.1 100 0.1 85 0 978.2 NA 0.0000 -SN BR 0900 0 0 0 980
2019/03/20 17:27:03 BASE 0.54 218 2.21 242 0.1 100 0.1 86 0 978.2 NA 0.0000 -SN BR 1000 22310 0 0 0
2019/03/20 17:28:03 BASE 0.09 221 2.21 242 0.1 100 0.1 88 0 978.2 NA 0.0000 -SN BR 1500 0 0 0 660
2019/03/20 17:29:03 BASE 0.09 238 2.21 242 0.1 100 0.1 91 0 978.2 NA 0.0000 -SN BR 1500 0 0 0 720
2019/03/20 17:30:03 BASE 0.00 257 2.21 242 0.1 100 0.1 93 0 978.3 NA 0.0000 -SN BR 1800 0 0 0 950
2019/03/20 17:31:03 BASE 0.00 270 2.21 242 0.1 100 0.1 96 0 978.3 NA 0.0000 -SN BR 2000 0 0 0 890
2019/03/20 17:32:04 BASE 0.00 276 2.21 242 0.1 100 0.1 98 0 978.3 NA 0.2540 -SN BR 1800 0 0 0 850
2019/03/20 17:33:04 BASE 0.00 272 2.21 242 0.2 100 0.2 100 0 978.3 NA 0.0000 -SN BR 2000 0 0 0 1050
2019/03/20 17:34:03 BASE 0.00 259 1.90 233 0.2 100 0.2 103 0 978.3 NA 0.0000 -SN BR 1800 0 0 0 1050
2019/03/20 17:35:03 BASE 0.00 259 1.65 226 0.2 100 0.2 103 0 978.3 NA 0.0000 -SN BR 1500 0 0 0 980
2019/03/20 17:36:03 BASE 0.00 274 1.08 228 0.2 100 0.2 101 0 978.3 NA 0.0000 -SN BR 1900 0 0 0 1020
2019/03/20 17:37:04 BASE 0.00 289 1.08 228 0.2 100 0.2 99 0 978.3 NA 0.0000 -SN BR 2100 0 0 0 820
2019/03/20 17:38:04 BASE 0.15 343 1.29 20 0.1 100 0.1 99 0 978.3 NA 0.0000 -SN BR 2000 0 0 0 620
2019/03/20 17:39:03 BASE 0.85 13 1.54 20 0.1 100 0.1 103 0 978.3 NA 0.0000 -SN BR 2100 0 0 0 590
2019/03/20 17:40:03 BASE 1.17 8 1.54 20 0.1 100 0.1 107 0 978.3 NA 0.0000 -SN BR 2200 0 0 0 690
2019/03/20 17:41:03 BASE 0.46 2 1.54 20 0.0 100 0.0 109 0 978.3 NA 0.0000 -SN BR 2000 0 0 0 1210
2019/03/20 17:42:03 BASE 0.00 360 1.54 20 -0.0 100 -0.0 108 0 978.3 NA 0.0000 -SN BR 2000 0 0 0 1150
2019/03/20 17:43:03 BASE 0.09 2 1.54 20 -0.1 100 -0.1 105 0 978.4 NA 0.0000 -SN BR 2100 0 0 0 1120
2019/03/20 17:44:04 BASE 0.46 16 1.54 20 -0.1 100 -0.1 103 0 978.4 NA 0.0000 -SN BR 2000 20010 0 0 0
2019/03/20 17:45:04 BASE 1.13 23 1.65 15 -0.1 100 -0.1 102 0 978.4 NA 0.0000 -SN BR 2200 0 0 0 1350
2019/03/20 17:46:04 BASE 1.73 15 2.16 11 -0.1 100 -0.1 100 0 978.4 NA 0.0000 -SN BR 2500 0 0 0 980
2019/03/20 17:47:03 BASE 1.89 9 2.16 11 -0.1 100 -0.1 96 0 978.4 NA 0.0000 -SN BR 2600 0 0 0 950
2019/03/20 17:48:03 BASE 1.79 6 2.16 11 -0.1 100 -0.1 92 0 978.4 NA 0.0000 -SN BR 2700 0 0 0 920
2019/03/20 17:49:03 BASE 1.55 3 2.16 11 -0.1 100 -0.1 89 0 978.4 NA 0.0000 -SN BR 2700 0 0 0 890
2019/03/20 17:50:03 BASE 0.82 6 2.16 11 -0.1 100 -0.1 85 0 978.4 NA 0.0000 -SN BR 2500 0 0 0 790
2019/03/20 17:51:03 BASE 0.14 6 2.16 11 -0.1 100 -0.1 82 0 978.5 NA 0.0000 -SN BR 2200 0 0 0 660
2019/03/20 17:52:03 BASE 0.00 356 2.16 11 -0.1 100 -0.1 80 0 978.5 NA 0.0000 -SN BR 2200 0 0 0 590
2019/03/20 17:53:03 BASE 0.00 3 2.16 11 -0.0 100 -0.0 77 0 978.5 NA 0.2540 -SN BR 2100 0 0 0 620
2019/03/20 17:54:04 BASE 0.05 23 2.16 11 -0.0 100 -0.0 76 0 978.5 NA 0.0000 -SN BR 2200 0 0 0 850
2019/03/20 17:55:03 BASE 0.13 37 2.16 11 0.0 100 0.0 75 0 978.5 NA 0.0000 -SN BR 2200 0 0 0 1480
2019/03/20 17:56:04 BASE 0.35 43 2.06 4 0.1 100 0.1 74 0 978.5 NA 0.0000 -SN BR 2200 0 0 0 1610
2019/03/20 17:57:03 BASE 0.98 44 1.85 1 0.1 100 0.1 72 0 978.5 NA 0.0000 -SN BR 2000 0 0 0 1210
2019/03/20 17:58:03 BASE 1.67 45 2.11 47 0.1 100 0.1 71 0 978.5 NA 0.0000 -SN BR 2000 0 0 0 1050
2019/03/20 17:59:03 BASE 1.86 38 2.11 47 0.1 100 0.1 72 0 978.5 NA 0.0000 -SN BR 2100 0 0 0 660
2019/03/20 18:00:03 BASE 1.70 22 2.11 47 0.1 100 0.1 74 0 978.5 NA 0.0000 -SN BR 2000 0 0 0 980
2019/03/20 18:01:03 BASE 1.54 10 2.11 47 0.1 100 0.1 75 0 978.5 NA 0.0000 -SN BR 1700 0 0 0 1250
2019/03/20 18:02:04 BASE 1.54 6 2.11 47 0.0 100 0.0 78 0 978.5 NA 0.0000 -SN BR 1500 0 0 0 1410
2019/03/20 18:03:04 BASE 1.51 357 2.11 47 0.0 100 0.0 80 0 978.5 NA 0.0000 -SN BR 1500 0 0 0 1510
2019/03/20 18:04:03 BASE 0.90 342 2.11 47 0.0 100 0.0 82 0 978.5 NA 0.0000 -SN BR 1400 0 0 0 1510
2019/03/20 18:05:03 BASE 0.19 331 2.11 47 0.0 100 0.0 84 0 978.5 NA 0.0000 -SN BR 1200 0 0 0 1540
2019/03/20 18:06:04 BASE 0.00 325 2.11 47 0.0 100 0.0 84 0 978.5 NA 0.2540 -SN BR 1200 0 0 0 1610
2019/03/20 18:07:03 BASE 0.00 322 2.11 47 0.1 100 0.1 84 0 978.5 NA 0.0000 -SN BR 1300 0 0 0 1640
2019/03/20 18:08:04 BASE 0.00 321 1.90 29 0.1 100 0.1 83 0 978.5 NA 0.0000 -SN BR 1400 0 0 0 1740
2019/03/20 18:09:03 BASE 0.00 321 1.65 353 0.1 100 0.1 84 0 978.5 NA 0.0000 -SN BR 1300 0 0 0 1940
2019/03/20 18:10:03 BASE 0.00 322 1.65 353 0.1 100 0.1 85 0 978.5 NA 0.0000 -SN BR 1200 19850 0 0 0
2019/03/20 18:11:03 BASE 0.00 324 1.65 353 0.1 100 0.1 86 0 978.5 NA 0.0000 -SN BR 1300 22310 0 0 0
2019/03/20 18:12:03 BASE 0.00 326 1.65 353 0.1 100 0.1 87 0 978.5 NA 0.0000 -SN BR 1400 0 0 0 2200
2019/03/20 18:13:04 BASE 0.00 326 1.29 344 0.1 100 0.1 86 0 978.5 NA 0.0000 -SN BR 1400 230 0 0 0
2019/03/20 18:14:03 BASE 0.00 326 M M 0.1 100 0.1 85 0 978.5 NA 0.0000 -SN BR 1400 230 0 0 0
2019/03/20 18:15:03 BASE 0.00 326 M M 0.2 100 0.2 87 0 978.5 NA 0.0000 -SN BR 1600 0 0 0 2660
2019/03/20 18:16:03 BASE 0.00 326 M M 0.2 100 0.2 88 0 978.5 NA 0.0000 -SN BR 1900 0 0 0 2490
2019/03/20 18:17:03 BASE 0.00 326 M M 0.2 100 0.2 89 0 978.6 NA 0.0000 -SN BR 2400 0 0 0 2490
2019/03/20 18:18:03 BASE 0.00 326 M M 0.3 100 0.3 90 0 978.6 NA 0.2540 -SN BR 2300 0 0 0 2490
2019/03/20 18:19:03 BASE 0.00 326 M M 0.3 100 0.3 94 0 978.6 NA 0.0000 -SN BR 2100 0 0 0 2260
2019/03/20 18:20:03 BASE 0.00 316 M M 0.3 100 0.3 99 0 978.6 NA 0.0000 -SN BR 1900 0 0 0 2200
2019/03/20 18:21:03 BASE 0.00 209 M M 0.2 100 0.2 103 0 978.6 NA 0.0000 -SN BR 1800 0 0 0 2820
2019/03/20 18:22:04 BASE 0.00 179 M M 0.2 100 0.2 106 0 978.6 NA 0.0000 -SN BR 1900 22440 0 0 0
2019/03/20 18:23:04 BASE 0.00 176 M M 0.2 100 0.2 109 0 978.6 NA 0.0000 -SN BR 2000 0 0 0 3510
2019/03/20 18:24:03 BASE 0.00 164 M M 0.1 100 0.1 109 0 978.6 NA 0.0000 -SN BR 2500 0 0 0 2620
2019/03/20 18:25:03 BASE 0.00 151 M M 0.1 100 0.1 109 0 978.6 NA 0.0000 -SN BR 3100 0 0 0 2590
2019/03/20 18:26:04 BASE 0.28 155 1.44 171 0.1 100 0.1 106 0 978.6 NA 0.0000 -SN BR 3000 0 0 0 3810
2019/03/20 18:27:03 BASE 1.07 172 1.70 186 0.1 100 0.1 103 0 978.6 NA 0.0000 -SN BR 3100 21850 0 0 0
2019/03/20 18:28:04 BASE 1.61 184 1.75 186 0.1 100 0.1 102 0 978.6 NA 0.0000 -SN BR 3800 0 0 0 2590
2019/03/20 18:29:03 BASE 1.29 185 1.75 186 0.1 100 0.1 101 0 978.6 NA 0.0000 -SN BR 4500 0 0 0 2460
2019/03/20 18:30:03 BASE 0.47 181 1.75 186 0.1 100 0.1 102 0 978.7 NA 0.0000 -SN BR 6000 0 0 0 2330
2019/03/20 18:31:03 BASE 0.00 176 1.75 186 0.1 100 0.1 102 0 978.7 NA 0.0000 -SN BR 5000 0 0 0 2130
2019/03/20 18:32:03 BASE 0.00 181 1.75 186 0.1 100 0.1 103 0 978.7 NA 0.0000 -SN BR 4700 0 0 0 2000
2019/03/20 18:33:03 BASE 0.23 203 1.75 186 0.1 100 0.1 102 0 978.6 NA 0.0000 -SN BR 4900 0 0 0 2850
2019/03/20 18:34:03 BASE 0.27 218 1.75 186 0.1 100 0.1 101 0 978.7 NA 0.0000 -SN BR 4300 0 0 0 2590
2019/03/20 18:35:03 BASE 0.05 212 1.75 186 0.1 100 0.1 100 0 978.7 NA 0.0000 -SN BR 4100 0 0 0 2330
2019/03/20 18:36:03 BASE 0.00 203 1.75 186 0.1 100 0.1 100 0 978.7 NA 0.0000 -SN BR 3400 0 0 0 2660
2019/03/20 18:37:03 BASE 0.00 196 1.75 186 0.1 100 0.1 101 0 978.7 NA 0.0000 -SN BR 2700 0 0 0 2620
2019/03/20 18:38:03 BASE 0.71 194 1.59 196 0.1 100 0.1 101 0 978.7 NA 0.0000 -SN BR 2500 0 0 0 2530
2019/03/20 18:39:03 BASE 1.41 198 1.65 198 0.1 100 0.1 100 0 978.6 NA 0.0000 -SN BR 2800 0 0 0 2490
2019/03/20 18:40:03 BASE 0.94 197 1.65 198 0.1 100 0.1 98 0 978.7 NA 0.0000 -SN BR 3000 0 0 0 2530
2019/03/20 18:41:03 BASE 0.24 193 1.65 198 0.1 100 0.1 98 0 978.7 NA 0.0000 -SN BR 2400 0 0 0 2300
2019/03/20 18:42:03 BASE 0.04 188 1.65 198 0.1 100 0.1 98 0 978.7 NA 0.0000 -SN BR 2400 0 0 0 2560
2019/03/20 18:43:03 BASE 0.48 190 1.65 198 0.1 100 0.1 98 0 978.7 NA 0.0000 -SN BR 3200 0 0 0 2590
2019/03/20 18:44:03 BASE 1.21 195 1.70 195 0.1 100 0.1 97 0 978.6 NA 0.0000 -SN BR 4200 0 0 0 2490
2019/03/20 18:45:03 BASE 1.30 193 1.70 195 0.1 100 0.1 96 0 978.7 NA 0.0000 -SN BR 3900 0 0 0 2490
2019/03/20 18:46:04 BASE 0.58 184 1.70 195 0.1 100 0.1 95 0 978.7 NA 0.0000 -SN BR 3300 0 0 0 2430
2019/03/20 18:47:03 BASE 0.05 168 1.70 195 0.1 100 0.1 94 0 978.7 NA 0.0000 -SN BR 3100 0 0 0 920
2019/03/20 18:48:04 BASE 0.00 154 1.70 195 0.1 100 0.1 93 0 978.7 NA 0.0000 -SN BR 2500 0 0 0 590
2019/03/20 18:49:03 BASE 0.16 157 1.70 195 0.1 100 0.1 93 0 978.7 NA 0.0000 -SN BR 2300 0 0 0 690
2019/03/20 18:50:03 BASE 1.05 176 1.95 193 0.1 100 0.1 92 0 978.6 NA 0.0000 -SN BR 2300 0 0 0 1840
2019/03/20 18:51:04 BASE 1.80 189 1.95 191 0.1 100 0.1 92 0 978.6 NA 0.0000 -SN BR 2400 0 0 0 2000
2019/03/20 18:52:03 BASE 1.50 189 1.95 191 0.1 100 0.1 92 0 978.6 NA 0.0000 -SN BR 3600 0 0 0 2400
2019/03/20 18:53:03 BASE 0.59 172 1.95 191 0.1 100 0.1 90 0 978.7 NA 0.0000 -SN BR 4600 0 0 0 1770
2019/03/20 18:54:03 BASE 0.00 139 1.95 191 0.1 100 0.1 87 0 978.8 NA 0.0000 -SN BR 5000 0 0 0 620
2019/03/20 18:55:03 BASE 0.00 114 1.95 191 0.1 100 0.1 84 0 978.9 NA 0.0000 -SN BR 5000 0 0 0 720
2019/03/20 18:56:03 BASE 0.00 97 1.95 191 0.1 100 0.1 84 0 978.9 NA 0.0000 -SN BR 4800 0 0 0 1840
2019/03/20 18:57:03 BASE 0.00 108 1.95 191 0.1 100 0.1 87 0 978.8 NA 0.0000 -SN BR 4700 0 0 0 2430
2019/03/20 18:58:03 BASE 0.39 157 1.95 191 0.1 100 0.1 90 0 978.7 NA 0.0000 -SN BR 5000 0 0 0 2760
2019/03/20 18:59:03 BASE 1.08 178 1.95 191 0.1 100 0.1 90 0 978.7 NA 0.0000 -SN BR 3900 0 0 0 2720
2019/03/20 19:00:03 BASE 1.40 155 1.95 191 0.1 100 0.1 88 0 978.8 NA 0.0000 -SN BR 3500 0 0 0 2690
2019/03/20 19:01:03 BASE 1.14 125 1.49 150 0.1 100 0.1 88 0 978.9 NA 0.0000 -SN BR 2800 0 0 0 2430
2019/03/20 19:02:03 BASE 0.43 110 1.49 150 0.1 100 0.1 91 0 978.9 NA 0.0000 -SN BR 2800 0 0 0 1480
2019/03/20 19:03:03 BASE 0.00 122 1.49 150 0.1 100 0.1 92 0 978.8 NA 0.0000 -SN BR 3000 0 0 0 3840
2019/03/20 19:04:04 BASE 0.66 151 1.90 171 0.1 100 0.1 92 0 978.7 NA 0.0000 -SN BR 2800 0 0 0 950
2019/03/20 19:05:03 BASE 1.81 168 2.47 172 0.1 100 0.1 92 0 978.7 NA 0.2540 -SN BR 3100 0 0 0 660
2019/03/20 19:06:04 BASE 2.20 165 2.47 172 0.1 100 0.1 92 0 978.7 NA 0.0000 -SN BR 3600 2300 0 0 0
2019/03/20 19:07:03 BASE 2.39 148 2.93 133 0.1 100 0.1 91 0 978.9 NA 0.0000 -SN BR 3600 2400 0 0 0
2019/03/20 19:08:04 BASE 2.68 132 2.93 133 0.2 100 0.2 90 0 978.9 NA 0.0000 -SN BR 4300 1280 2460 0 0
2019/03/20 19:09:04 BASE 2.60 124 2.93 133 0.1 100 0.1 93 0 978.9 NA 0.0000 -SN BR 5000 200 1050 0 0
2019/03/20 19:10:04 BASE 2.21 130 2.93 133 0.2 100 0.2 96 0 978.9 NA 0.0000 -SN BR 6000 200 0 0 0
2019/03/20 19:11:03 BASE 1.76 150 2.93 133 0.2 100 0.2 97 0 978.8 NA 0.0000 -SN BR 6000 200 0 0 0
2019/03/20 19:12:03 BASE 1.96 169 2.93 133 0.2 100 0.2 98 0 978.7 NA 0.0000 -SN BR 4500 0 0 0 3540
2019/03/20 19:13:03 BASE 2.61 174 3.34 165 0.2 100 0.2 101 0 978.7 NA 0.0000 -SN BR 5000 2400 0 0 0
2019/03/20 19:14:04 BASE 3.28 166 3.81 156 0.2 100 0.2 104 0 978.7 NA 0.0000 -SN BR 8000 2400 0 0 0
2019/03/20 19:15:03 BASE 3.52 150 3.91 147 0.2 100 0.2 106 0 978.8 NA 0.0000 -SN BR 9999 2460 3050 0 0
2019/03/20 19:16:04 BASE 3.37 127 3.91 147 0.2 100 0.2 105 0 978.9 NA 0.0000 -SN BR 9999 3020 0 0 0
2019/03/20 19:17:03 BASE 3.42 113 3.91 147 0.2 100 0.2 104 0 978.9 NA 0.0000 -SN BR 9999 0 0 0 160
2019/03/20 19:18:03 BASE 3.37 122 3.91 147 0.2 100 0.2 103 0 978.9 NA 0.0000 -SN BR 9999 2200 0 0 0
2019/03/20 19:19:03 BASE 3.24 139 3.91 147 0.2 100 0.2 102 0 978.9 NA 0.0000 -SN BR 9999 2560 0 0 0
2019/03/20 19:20:03 BASE 3.27 151 3.91 147 0.3 100 0.3 101 0 978.9 NA 0.0000 -SN BR 9999 2430 0 0 0
2019/03/20 19:21:03 BASE 3.17 150 3.91 147 0.3 100 0.3 100 0 978.9 NA 0.0000 -SN 9999 2130 0 0 0
2019/03/20 19:22:03 BASE 3.10 141 3.91 147 0.3 100 0.3 97 0 978.9 NA 0.0000 -SN 9999 2590 0 0 0
2019/03/20 19:23:04 BASE 2.93 134 3.91 147 0.3 100 0.3 92 0 979.0 NA 0.0000 -SN 9999 1120 0 0 0
2019/03/20 19:24:03 BASE 2.08 127 3.91 147 0.3 100 0.3 89 0 979.0 NA 0.0000 -SN 9999 230 1180 0 0
2019/03/20 19:25:03 BASE 1.34 114 3.81 110 0.3 100 0.3 86 0 978.9 NA 0.0000 9999 260 2690 0 0
2019/03/20 19:26:04 BASE 0.82 100 3.81 110 0.3 100 0.3 85 0 978.9 NA 0.0000 9999 2170 0 0 0
2019/03/20 19:27:03 BASE 0.20 119 3.76 153 0.3 100 0.3 84 0 978.9 NA 0.0000 9999 2200 0 0 0
2019/03/20 19:28:04 BASE 1.21 145 3.76 153 0.3 100 0.3 83 0 978.9 NA 0.0000 9999 230 2230 0 0
2019/03/20 19:29:03 BASE 2.92 139 3.81 133 0.3 100 0.3 81 0 979.0 NA 0.0000 9999 200 2230 0 0
2019/03/20 19:30:03 BASE 3.76 138 4.48 135 0.3 100 0.3 80 0 979.0 NA 0.0000 9999 200 1310 0 0
2019/03/20 19:31:03 BASE 4.33 143 4.99 146 0.3 100 0.3 80 0 978.9 NA 0.0000 9999 200 1280 0 0
2019/03/20 19:32:04 BASE 4.11 146 4.99 146 0.3 100 0.3 82 0 978.9 NA 0.0000 9999 1900 0 0 0
2019/03/20 19:33:03 BASE 3.97 143 5.04 139 0.3 100 0.3 82 0 979.0 NA 0.0000 9999 200 2300 0 0
2019/03/20 19:34:03 BASE 4.58 138 5.14 137 0.3 100 0.3 81 0 979.0 NA 0.0000 9999 200 1440 0 0
2019/03/20 19:35:03 BASE 4.54 138 5.14 137 0.3 100 0.3 81 0 979.0 NA 0.0000 -SN 9999 200 0 0 0
2019/03/20 19:36:04 BASE 4.33 137 5.14 137 0.2 100 0.2 83 0 979.0 NA 0.0000 -SN 6000 0 0 0 2950
2019/03/20 19:37:03 BASE 4.61 136 5.14 137 0.2 100 0.2 82 0 979.0 NA 0.0000 -SN 6000 0 0 0 3220
2019/03/20 19:38:03 BASE 4.59 139 5.14 137 0.2 100 0.2 80 0 979.0 NA 0.0000 -SN 6000 0 0 0 2790
2019/03/20 19:39:03 BASE 4.47 145 5.14 145 0.2 100 0.2 78 0 979.0 NA 0.0000 -SN BR 4600 0 0 0 2820
2019/03/20 19:40:03 BASE 4.96 147 5.61 142 0.2 100 0.2 74 0 978.9 NA 0.0000 -SN BR 3200 160 0 0 0
2019/03/20 19:41:04 BASE 5.31 147 5.61 153 0.2 100 0.2 71 0 979.0 NA 0.0000 -SN BR 3100 0 0 0 1380
2019/03/20 19:42:04 BASE 5.22 150 5.61 153 0.2 100 0.2 67 0 979.0 NA 0.0000 -SN BR 3600 0 0 0 1120
2019/03/20 19:43:03 BASE 4.95 153 5.61 153 0.2 100 0.2 62 0 979.0 NA 0.0000 -SN BR 3900 0 0 0 2820
2019/03/20 19:44:03 BASE 4.73 159 5.61 153 0.2 100 0.2 58 0 978.9 NA 0.0000 -SN BR 4200 0 0 0 2490
2019/03/20 19:45:03 BASE 4.64 165 5.61 153 0.2 100 0.2 55 0 978.9 NA 0.0000 -SN BR 4500 0 0 0 2430
2019/03/20 19:46:04 BASE 4.05 163 5.61 153 0.2 100 0.2 49 0 979.0 NA 0.0000 -SN BR 4200 0 0 0 2690
2019/03/20 19:47:03 BASE 3.49 153 5.61 153 0.2 100 0.2 45 0 979.1 NA 0.0000 -SN BR 3400 0 0 0 820
2019/03/20 19:48:03 BASE 3.60 137 5.61 153 0.2 100 0.2 42 0 979.1 NA 0.0000 -SN BR 2100 0 0 0 490
2019/03/20 19:49:03 BASE 3.94 132 5.61 153 0.2 100 0.2 40 0 979.1 NA 0.0000 -SN BR 2000 0 0 0 560
2019/03/20 19:50:03 BASE 4.38 140 5.61 153 0.2 100 0.2 38 0 979.1 NA 0.0000 -SN BR 2100 0 0 0 2000
2019/03/20 19:51:04 BASE 4.84 157 5.56 152 0.2 100 0.2 38 0 979.0 NA 0.0000 -SN BR 1800 560 0 0 0
2019/03/20 19:52:03 BASE 5.22 176 5.71 187 0.2 100 0.2 37 0 979.0 NA 0.0000 -SN BR 1900 330 0 0 0
2019/03/20 19:53:03 BASE 5.60 186 6.02 186 0.2 100 0.2 37 0 979.0 NA 0.0000 -SN BR 2300 260 0 0 0
2019/03/20 19:54:03 BASE 5.42 189 6.02 190 0.2 100 0.2 36 0 979.0 NA 0.0000 -SN BR 1900 230 0 0 0
2019/03/20 19:55:03 BASE 4.60 187 6.02 190 0.2 100 0.2 35 0 979.0 NA 0.0000 -SN BR 1500 0 0 0 2690
2019/03/20 19:56:03 BASE 3.93 182 6.02 190 0.2 100 0.2 35 0 979.0 NA 0.0000 -SN BR 1400 0 0 0 1410
2019/03/20 19:57:02 BASE 3.42 179 6.02 190 0.2 100 0.2 34 0 979.1 NA 0.0000 -SN BR 1200 0 0 0 2890
2019/03/20 19:58:04 BASE 2.71 166 6.02 190 0.2 100 0.2 33 0 979.1 NA 0.0000 -SN BR 1200 1350 0 0 0
2019/03/20 19:59:03 BASE 2.16 149 6.02 190 0.2 100 0.2 34 0 979.2 NA 0.0000 -SN BR 1100 0 0 0 820
2019/03/20 20:00:03 BASE 1.07 138 6.02 190 0.2 100 0.2 36 0 979.2 NA 0.0000 -SN BR 1200 1540 0 0 0
2019/03/20 20:01:03 BASE 0.15 143 6.02 190 0.2 100 0.2 36 0 979.2 NA 0.0000 -SN BR 1500 1410 0 0 0
2019/03/20 20:02:03 BASE 0.19 151 6.02 190 0.2 100 0.2 36 0 979.2 NA 0.0000 -SN BR 2600 0 0 0 430
2019/03/20 20:03:03 BASE 0.88 167 6.02 190 0.2 100 0.2 36 0 979.2 NA 0.0000 -SN BR 3500 0 0 0 1150
2019/03/20 20:04:03 BASE 1.45 179 4.78 188 0.2 100 0.2 35 0 979.2 NA 0.0000 -SN BR 2700 0 0 0 980
2019/03/20 20:05:03 BASE 1.03 172 4.58 185 0.2 100 0.2 35 0 979.2 NA 0.0000 -SN BR 1900 0 0 0 690
2019/03/20 20:06:03 BASE 0.60 174 3.70 174 0.2 100 0.2 36 0 979.2 NA 0.0000 -SN BR 1800 0 0 0 590
2019/03/20 20:07:03 BASE 0.22 182 3.04 167 0.2 100 0.2 35 0 979.2 NA 0.0000 -SN BR 1900 0 0 0 460
2019/03/20 20:08:03 BASE 0.00 185 2.62 155 0.2 100 0.2 35 0 979.2 NA 0.0000 -SN BR 2100 0 0 0 300
2019/03/20 20:09:03 BASE 0.00 154 1.95 189 0.2 100 0.2 34 0 979.2 NA 0.0000 -SN BR 2400 2660 0 0 0
2019/03/20 20:10:03 BASE 0.00 138 1.95 189 0.2 100 0.2 33 0 979.2 NA 0.0000 -SN BR 2900 0 0 0 300
2019/03/20 20:11:04 BASE 0.48 148 1.95 189 0.2 100 0.2 32 0 979.2 NA 0.0000 -SN BR 3200 0 0 0 300
2019/03/20 20:12:03 BASE 1.29 137 1.95 189 0.1 100 0.1 31 0 979.2 NA 0.0000 -SN BR 5000 0 0 0 360
2019/03/20 20:13:03 BASE 1.78 134 2.06 138 0.1 100 0.1 29 0 979.2 NA 0.0000 -SN BR 6000 0 0 0 360
2019/03/20 20:14:03 BASE 2.06 142 2.31 147 0.1 100 0.1 28 0 979.2 NA 0.0000 -SN BR 7000 0 0 0 360
2019/03/20 20:15:03 BASE 2.16 151 2.31 147 0.1 100 0.1 28 0 979.2 NA 0.0000 -SN BR 9999 0 0 0 330
2019/03/20 20:16:03 BASE 2.10 157 2.31 147 0.1 100 0.1 27 0 979.2 NA 0.0000 -SN BR 9999 0 0 0 300
2019/03/20 20:17:03 BASE 1.88 168 2.31 147 0.1 100 0.1 26 0 979.2 NA 0.0000 -SN BR 9999 0 0 0 520
2019/03/20 20:18:03 BASE 1.06 180 2.31 147 0.1 100 0.1 26 0 979.2 NA 0.0000 -SN BR 9999 2300 0 0 0
2019/03/20 20:19:03 BASE 0.22 161 2.31 147 0.1 100 0.1 25 0 979.3 NA 0.0000 -SN BR 9999 0 0 0 560
2019/03/20 20:20:03 BASE 0.46 115 2.31 147 0.1 100 0.1 25 0 979.3 NA 0.0000 -SN BR 9999 0 0 0 430
2019/03/20 20:21:03 BASE 1.47 82 2.68 63 0.1 100 0.1 26 0 979.3 NA 0.0000 -SN 9999 0 0 0 430
2019/03/20 20:22:03 BASE 2.14 72 2.68 63 0.1 100 0.1 27 0 979.3 NA 0.0000 -SN 9999 0 0 0 430
2019/03/20 20:23:03 BASE 2.11 65 2.68 63 0.1 100 0.1 28 0 979.3 NA 0.0000 -SN 9999 0 0 0 490
2019/03/20 20:24:04 BASE 1.88 52 2.68 63 0.2 100 0.2 29 0 979.3 NA 0.0000 -SN 9999 160 0 0 0
2019/03/20 20:25:03 BASE 1.61 39 2.68 63 0.2 100 0.2 29 0 979.3 NA 0.0000 -SN 9999 230 0 0 0
2019/03/20 20:26:03 BASE 1.36 38 2.68 63 0.2 100 0.2 29 0 979.3 NA 0.0000 -SN 9999 260 0 0 0
2019/03/20 20:27:03 BASE 1.43 47 2.68 63 0.2 100 0.2 29 0 979.3 NA 0.0000 -SN 9999 260 0 0 0
2019/03/20 20:28:04 BASE 1.87 55 2.68 63 0.2 100 0.2 29 0 979.3 NA 0.0000 -SN 9999 0 0 0 3220
2019/03/20 20:29:04 BASE 2.52 61 3.09 64 0.2 100 0.2 29 0 979.3 NA 0.0000 -SN 9000 0 0 0 2950
2019/03/20 20:30:04 BASE 2.88 65 3.24 65 0.2 100 0.2 30 0 979.3 NA 0.0000 -SN 6000 0 0 0 4400
2019/03/20 20:31:03 BASE 2.59 65 3.24 65 0.2 100 0.2 30 0 979.3 NA 0.0000 -SN 5000 200 0 0 0
2019/03/20 20:32:04 BASE 2.02 68 3.24 65 0.2 100 0.2 30 0 979.3 NA 0.0000 -SN BR 6000 260 4070 0 0
2019/03/20 20:33:03 BASE 1.73 81 3.24 65 0.2 100 0.2 29 0 979.3 NA 0.0000 -SN BR 8000 260 0 0 0
2019/03/20 20:34:04 BASE 1.64 99 3.24 65 0.2 100 0.2 28 0 979.4 NA 0.0000 -SN BR 7000 300 0 0 0
2019/03/20 20:35:03 BASE 1.55 101 3.24 65 0.2 100 0.2 27 0 979.5 NA 0.0000 -SN BR 7000 300 0 0 0
2019/03/20 20:36:03 BASE 1.52 92 3.24 65 0.2 100 0.2 27 0 979.5 NA 0.0000 -SN BR 8000 300 0 0 0
2019/03/20 20:37:03 BASE 1.49 89 3.24 65 0.2 100 0.2 27 0 979.5 NA 0.0000 -SN BR 8000 300 0 0 0
2019/03/20 20:38:03 BASE 1.46 92 3.24 65 0.2 100 0.2 26 0 979.5 NA 0.0000 -SN BR 7000 330 0 0 0
2019/03/20 20:39:03 BASE 1.44 108 3.24 65 0.2 100 0.2 27 0 979.5 NA 0.0000 -SN BR 7000 300 0 0 0
2019/03/20 20:40:03 BASE 1.43 128 2.62 67 0.2 100 0.2 27 0 979.5 NA 0.0000 -SN BR 6000 260 1180 0 0
2019/03/20 20:41:03 BASE 1.25 144 1.90 67 0.3 100 0.3 28 0 979.5 NA 0.0000 -SN BR 7000 260 1280 0 0
2019/03/20 20:42:03 BASE 1.18 156 1.75 123 0.3 100 0.3 30 0 979.5 NA 0.0000 -SN BR 5000 260 1120 0 0
2019/03/20 20:43:03 BASE 0.64 162 1.75 123 0.2 100 0.2 30 0 979.5 NA 0.2540 -SN BR 4400 300 0 0 0
2019/03/20 20:44:04 BASE 0.00 162 1.75 123 0.2 100 0.2 31 0 979.5 NA 0.0000 -SN BR 4700 330 0 0 0
2019/03/20 20:45:03 BASE 0.09 156 1.75 123 0.2 100 0.2 31 0 979.5 NA 0.0000 -SN BR 6000 3810 0 0 0
2019/03/20 20:46:04 BASE 0.24 155 1.75 123 0.2 100 0.2 32 0 979.5 NA 0.0000 -SN BR 9999 360 3770 0 0
2019/03/20 20:47:03 BASE 0.63 167 1.75 123 0.2 100 0.2 33 0 979.6 NA 0.0000 -SN BR 9999 360 0 0 0
2019/03/20 20:48:03 BASE 1.24 174 1.80 174 0.2 100 0.2 34 0 979.6 NA 0.0000 -SN BR 9999 330 1210 0 0
2019/03/20 20:49:03 BASE 1.71 173 2.11 171 0.2 100 0.2 36 0 979.6 NA 0.0000 -SN BR 9999 360 3640 0 0
2019/03/20 20:50:03 BASE 1.75 167 2.21 160 0.2 100 0.2 37 0 979.6 NA 0.0000 -SN BR 9999 360 0 0 0
2019/03/20 20:51:03 BASE 1.56 161 2.21 160 0.2 100 0.2 38 0 979.6 NA 0.0000 -SN BR 9999 360 3740 0 0
2019/03/20 20:52:03 BASE 1.00 154 2.21 160 0.2 100 0.2 40 0 979.6 NA 0.0000 -SN BR 9999 360 0 0 0
2019/03/20 20:53:03 BASE 0.77 149 2.21 160 0.2 100 0.2 42 0 979.6 NA 0.0000 -SN 9999 330 0 0 0
2019/03/20 20:54:03 BASE 1.15 138 2.21 160 0.3 100 0.3 45 0 979.6 NA 0.0000 -SN 9999 330 0 0 0
2019/03/20 20:55:03 BASE 0.62 121 2.21 160 0.3 100 0.3 48 0 979.6 NA 0.0000 -SN 9999 330 3710 0 0
2019/03/20 20:56:03 BASE 0.18 119 2.21 160 0.3 100 0.3 50 0 979.6 NA 0.0000 -SN 9999 330 0 0 0
2019/03/20 20:57:03 BASE 0.41 123 2.21 160 0.3 100 0.3 51 0 979.6 NA 0.0000 -SN 9999 300 0 0 0
2019/03/20 20:58:04 BASE 0.75 139 2.21 160 0.3 100 0.3 52 0 979.6 NA 0.0000 -SN 9000 360 3870 0 0
2019/03/20 20:59:03 BASE 1.39 162 2.21 160 0.3 100 0.3 52 0 979.6 NA 0.0000 -SN 9999 2330 3410 0 0
2019/03/20 21:00:03 BASE 1.97 169 2.42 172 0.3 100 0.3 53 0 979.6 NA 0.0000 -SN 9999 2300 2760 0 0
2019/03/20 21:01:03 BASE 2.10 170 2.42 172 0.3 100 0.3 53 0 979.7 NA 0.0000 -SN 9999 2590 3450 0 0
2019/03/20 21:02:03 BASE 1.97 175 2.42 172 0.2 100 0.2 54 0 979.7 NA 0.0000 -SN 9999 390 3580 0 0
2019/03/20 21:03:03 BASE 2.08 181 2.42 172 0.2 100 0.2 59 0 979.7 NA 0.0000 -SN 9999 430 0 0 0
2019/03/20 21:04:03 BASE 2.15 187 2.42 172 0.2 100 0.2 59 0 979.7 NA 0.0000 -SN 9999 390 3250 0 0
2019/03/20 21:05:03 BASE 1.95 190 2.42 172 0.2 100 0.2 58 0 979.7 NA 0.0000 -SN 9999 430 3250 0 0
2019/03/20 21:06:04 BASE 1.67 191 2.42 172 0.2 100 0.2 56 0 979.7 NA 0.0000 -SN 9999 690 2530 0 0
2019/03/20 21:07:03 BASE 1.34 192 2.42 172 0.2 100 0.2 53 0 979.7 NA 0.0000 -SN 9999 660 2590 0 0
2019/03/20 21:08:04 BASE 1.03 200 2.42 172 0.2 100 0.2 51 0 979.7 NA 0.0000 -SN 9999 620 2660 0 0
2019/03/20 21:09:03 BASE 1.10 212 2.42 172 0.2 100 0.2 51 0 979.7 NA 0.0000 -SN 9999 690 3310 0 0
2019/03/20 21:10:03 BASE 1.55 222 2.31 184 0.2 100 0.2 50 0 979.7 NA 0.0000 9999 690 3350 0 0
2019/03/20 21:11:03 BASE 2.19 227 2.78 228 0.2 100 0.2 49 0 979.7 NA 0.0000 9999 3310 0 0 0
2019/03/20 21:12:04 BASE 2.73 230 2.98 231 0.2 100 0.2 47 0 979.7 NA 0.0000 9999 2590 0 0 0
2019/03/20 21:13:03 BASE 2.77 231 2.98 231 0.2 100 0.2 46 0 979.7 NA 0.0000 9999 430 0 0 0
2019/03/20 21:14:03 BASE 2.48 230 2.98 231 0.2 100 0.2 44 0 979.7 NA 0.0000 9999 360 0 0 0
2019/03/20 21:15:03 BASE 2.06 229 2.98 231 0.2 100 0.2 41 0 979.8 NA 0.0000 9000 360 19490 0 0
2019/03/20 21:16:03 BASE 1.74 232 2.98 231 0.1 100 0.1 39 0 979.8 NA 0.0000 9000 390 3180 0 0
2019/03/20 21:17:03 BASE 1.73 233 2.98 231 0.1 100 0.1 37 0 979.8 NA 0.0000 -SN 9999 360 3280 0 0
2019/03/20 21:18:03 BASE 1.85 230 2.98 231 0.1 100 0.1 35 0 979.8 NA 0.0000 -SN 8000 360 0 0 0
2019/03/20 21:19:03 BASE 1.74 231 2.98 231 0.2 100 0.2 33 0 979.8 NA 0.0000 -SN BR 5000 0 0 0 3940
2019/03/20 21:20:03 BASE 1.47 235 2.98 231 0.2 100 0.2 31 0 979.8 NA 0.0000 -SN BR 5000 4230 0 0 0
2019/03/20 21:21:03 BASE 1.10 237 2.98 231 0.2 100 0.2 29 0 979.8 NA 0.0000 -SN BR 5000 360 0 0 0
2019/03/20 21:22:03 BASE 0.41 234 2.78 231 0.2 100 0.2 26 0 979.8 NA 0.0000 -SN BR 5000 330 0 0 0
2019/03/20 21:23:03 BASE 0.00 228 2.57 228 0.2 100 0.2 24 0 979.8 NA 0.0000 -SN BR 4300 330 0 0 0
2019/03/20 21:24:04 BASE 0.00 221 2.06 228 0.2 100 0.2 23 0 979.8 NA 0.0000 -SN BR 3300 0 0 0 2760
2019/03/20 21:25:03 BASE 0.00 217 1.95 229 0.3 100 0.3 21 0 979.8 NA 0.0000 -SN BR 2600 0 0 0 2760
2019/03/20 21:26:04 BASE 0.00 225 1.95 229 0.3 100 0.3 20 0 979.8 NA 0.0000 -SN BR 2300 260 0 0 0
2019/03/20 21:27:04 BASE 0.00 247 1.95 229 0.3 100 0.3 20 0 979.8 NA 0.0000 -SN BR 2300 260 0 0 0
2019/03/20 21:28:03 BASE 0.00 239 1.95 229 0.3 100 0.3 19 0 979.8 NA 0.0000 -SN BR 1900 200 0 0 0
2019/03/20 21:29:03 BASE 0.09 209 1.49 237 0.2 100 0.2 20 0 979.8 NA 0.0000 -SN BR 1900 0 0 0 2590
2019/03/20 21:30:03 BASE 0.09 208 1.18 238 0.2 100 0.2 21 0 979.8 NA 0.0000 -SN BR 1700 0 0 0 2530
2019/03/20 21:31:03 BASE 0.00 205 1.03 213 0.2 100 0.2 21 0 979.9 NA 0.0000 -SN BR 1600 0 0 0 2590
2019/03/20 21:32:03 BASE 0.00 197 1.03 213 0.2 100 0.2 21 0 979.9 NA 0.0000 -SN BR 1700 0 0 0 2530
2019/03/20 21:33:04 BASE 0.00 199 1.03 213 0.2 100 0.2 21 0 979.9 NA 0.0000 -SN BR 2000 230 3970 0 0
2019/03/20 21:34:04 BASE 0.00 198 1.03 213 0.2 100 0.2 22 0 979.9 NA 0.0000 -SN BR 2900 230 0 0 0
2019/03/20 21:35:05 BASE 0.00 198 1.03 213 0.2 100 0.2 22 0 979.9 NA 0.0000 -SN BR 3000 3840 0 0 0
2019/03/20 21:36:04 BASE 0.00 175 1.03 213 0.2 100 0.2 23 0 979.9 NA 0.0000 -SN BR 2300 3940 0 0 0
2019/03/20 21:37:03 BASE 0.00 120 1.03 213 0.2 100 0.2 23 0 979.9 NA 0.0000 -SN BR 2500 200 3900 0 0
2019/03/20 21:38:04 BASE 0.18 99 1.08 98 0.2 100 0.2 23 0 979.9 NA 0.0000 -SN BR 2600 3940 0 0 0
2019/03/20 21:39:03 BASE 0.94 99 1.85 87 0.1 100 0.1 22 0 979.9 NA 0.2540 -SN BR 2700 0 0 0 1540
2019/03/20 21:40:03 BASE 1.37 109 1.85 87 0.1 100 0.1 21 0 979.9 NA 0.0000 -SN BR 3500 0 0 0 1250
2019/03/20 21:41:03 BASE 1.33 125 1.85 87 0.1 100 0.1 21 0 979.9 NA 0.0000 -SN BR 3200 0 0 0 1310
2019/03/20 21:42:03 BASE 1.40 136 1.85 87 0.1 100 0.1 21 0 979.9 NA 0.0000 -SN BR 3600 0 0 0 1050
2019/03/20 21:43:03 BASE 1.53 142 1.95 148 0.1 100 0.1 20 0 979.9 NA 0.0000 -SN BR 3300 300 3610 0 0
2019/03/20 21:44:04 BASE 1.75 143 1.95 148 0.2 100 0.2 20 0 980.0 NA 0.0000 -SN BR 3600 3580 0 0 0
2019/03/20 21:45:03 BASE 1.92 150 2.37 154 0.2 100 0.2 19 0 980.1 NA 0.0000 -SN BR 3300 3610 0 0 0
2019/03/20 21:46:05 BASE 1.97 162 2.37 154 0.2 100 0.2 19 0 980.1 NA 0.0000 -SN BR 2500 3710 0 0 0
2019/03/20 21:47:03 BASE 1.20 170 2.37 154 0.2 100 0.2 19 0 980.1 NA 0.0000 -SN BR 5000 3640 0 0 0
2019/03/20 21:48:04 BASE 0.26 167 2.37 154 0.2 100 0.2 19 0 980.1 NA 0.0000 -SN BR 9999 3610 0 0 0
2019/03/20 21:49:03 BASE 0.00 153 2.37 154 0.2 100 0.2 19 0 980.1 NA 0.0000 -SN BR 9999 3450 0 0 0
2019/03/20 21:50:03 BASE 0.04 140 2.37 154 0.2 100 0.2 19 0 980.1 NA 0.0000 -SN BR 9999 3450 0 0 0
2019/03/20 21:51:03 BASE 0.63 141 2.37 154 0.2 100 0.2 18 0 980.1 NA 0.0000 -SN BR 9999 3510 0 0 0
2019/03/20 21:52:03 BASE 1.36 151 2.37 154 0.2 100 0.2 18 0 980.1 NA 0.0000 -SN BR 9999 3540 0 0 0
2019/03/20 21:53:03 BASE 1.91 156 2.57 156 0.2 100 0.2 18 0 980.1 NA 0.0000 -SN BR 9999 3540 0 0 0
2019/03/20 21:54:04 BASE 2.40 153 2.68 146 0.1 100 0.1 18 0 980.1 NA 0.0000 -SN BR 9999 3510 0 0 0
2019/03/20 21:55:03 BASE 2.80 141 3.24 135 0.1 100 0.1 18 0 980.1 NA 0.0000 -SN BR 9999 3410 0 0 0
2019/03/20 21:56:04 BASE 3.08 133 3.40 138 0.1 100 0.1 18 0 980.1 NA 0.0000 -SN 9999 3450 0 0 0
2019/03/20 21:57:04 BASE 2.93 132 3.40 138 0.2 100 0.2 17 0 980.1 NA 0.0000 -SN 9999 3350 0 0 0
2019/03/20 21:58:03 BASE 2.92 131 3.40 138 0.2 100 0.2 17 0 980.2 NA 0.0000 -SN 9999 3250 0 0 0
2019/03/20 21:59:03 BASE 3.35 128 3.86 125 0.2 100 0.2 16 0 980.2 NA 0.0000 -SN 9999 3220 0 0 0
2019/03/20 22:00:04 BASE 3.91 119 4.78 106 0.2 100 0.2 16 0 980.2 NA 0.0000 -SN 9999 3280 0 0 0
2019/03/20 22:01:04 BASE 4.46 112 5.09 108 0.2 100 0.2 16 0 980.2 NA 0.0000 -SN 9999 3280 0 0 0
2019/03/20 22:02:04 BASE 4.54 115 5.09 108 0.2 100 0.2 15 0 980.3 NA 0.0000 -SN 9999 3220 0 0 0
2019/03/20 22:03:04 BASE 4.99 119 6.22 120 0.2 100 0.2 15 0 980.2 NA 0.0000 9999 660 3380 0 0
2019/03/20 22:04:04 BASE 5.30 127 6.22 120 0.3 100 0.2 14 0 980.2 NA 0.0000 9999 2990 0 0 0
2019/03/20 22:08:14 BASE M M M M 0.2 100 0.2 M M M NA 0.0000 M M M M M
2019/03/20 22:09:00 BASE M M M M 0.2 100 0.2 11 0 980.3 NA 0.0000 9999 3250 0 0 0
2019/03/20 22:10:00 BASE 4.92 133 M M 0.3 100 0.3 10 0 980.3 NA 0.0000 9999 3450 0 0 0
2019/03/20 22:11:00 BASE 5.84 138 M M 0.3 100 0.3 9 0 980.3 NA 0.0000 9999 3280 0 0 0
2019/03/20 22:12:00 BASE 6.51 154 M M 0.3 100 0.3 9 0 980.2 NA 0.0000 9999 3250 0 0 0
2019/03/20 22:13:00 BASE 7.61 178 M M 0.3 100 0.3 8 0 980.2 NA 0.0000 9999 3180 0 0 0
2019/03/20 22:15:30 BASE M M M M 0.3 100 0.3 6 0 M NA 0.0000 M 3380 0 0 0
2019/03/20 22:16:00 BASE M M M M 0.3 100 0.3 6 0 980.3 NA 0.0000 9999 3350 0 0 0
2019/03/20 22:17:00 BASE 4.91 178 M M 0.3 100 0.3 5 0 980.3 NA 0.0000 9999 3380 0 0 0
2019/03/20 22:18:00 BASE 4.51 183 8.85 191 0.3 100 0.3 5 0 980.3 NA 0.0000 9999 3280 0 0 0
2019/03/20 22:19:00 BASE 4.87 176 8.85 191 0.3 100 0.3 5 0 980.3 NA 0.0000 9999 3180 0 0 0
2019/03/20 22:20:00 BASE 4.87 170 8.85 191 0.3 100 0.3 5 0 980.4 NA 0.0000 9999 3150 0 0 0
2019/03/20 22:21:00 BASE 4.55 158 8.85 191 0.3 100 0.3 4 0 980.4 NA 0.0000 9999 3220 0 0 0
2019/03/20 22:22:00 BASE 4.18 149 8.85 191 0.3 100 0.3 4 0 980.4 NA 0.0000 9999 3120 0 0 0
2019/03/20 22:23:00 BASE 3.66 163 6.94 153 0.3 100 0.3 3 0 980.4 NA 0.0000 9999 2230 3120 0 0
2019/03/20 22:24:00 BASE 3.56 181 6.94 153 0.4 100 0.4 3 0 980.4 NA 0.0000 9999 2330 3150 0 0
2019/03/20 22:25:00 BASE 2.93 189 6.94 153 0.4 100 0.4 3 0 980.4 NA 0.0000 9999 3150 0 0 0
2019/03/20 22:26:00 BASE 1.94 194 5.30 174 0.4 100 0.4 2 0 980.5 NA 0.0000 9999 3120 0 0 0
2019/03/20 22:27:00 BASE 1.67 181 5.30 174 0.4 100 0.4 2 0 980.6 NA 0.0000 9999 3120 0 0 0
2019/03/20 22:28:00 BASE 2.19 154 5.30 174 0.4 100 0.4 2 0 980.6 NA 0.0000 9999 1970 3080 0 0
2019/03/20 22:29:00 BASE 3.87 133 5.92 120 0.4 100 0.4 1 0 980.4 NA 0.0000 9999 2170 3120 0 0
2019/03/20 22:30:00 BASE 5.19 128 5.92 139 0.4 100 0.4 1 0 980.5 NA 0.0000 9999 2230 3020 0 0
2019/03/20 22:31:00 BASE 5.10 123 5.92 139 0.4 100 0.4 1 0 980.6 NA 0.0000 9999 3120 0 0 0
2019/03/20 22:32:00 BASE 4.37 112 5.92 139 0.5 100 0.5 1 0 980.6 NA 0.0000 9999 2430 3150 0 0
2019/03/20 22:33:00 BASE 3.98 86 5.92 139 0.5 100 0.5 1 0 980.6 NA 0.0000 9999 2560 3050 0 0
2019/03/20 22:34:00 BASE 4.27 66 5.92 139 0.5 100 0.5 1 0 980.6 NA 0.0000 9999 2330 3220 0 0
2019/03/20 22:35:00 BASE 4.51 60 5.92 139 0.5 100 0.5 1 0 980.6 NA 0.0000 9999 2300 0 0 0
2019/03/20 22:36:00 BASE 4.29 52 5.92 139 0.5 100 0.5 1 0 980.7 NA 0.0000 9999 2360 0 0 0
2019/03/20 22:37:00 BASE 3.43 53 5.92 139 0.5 100 0.5 1 0 980.7 NA 0.0000 9999 2790 0 0 0
2019/03/20 22:38:00 BASE 2.51 72 5.92 139 0.5 100 0.5 1 0 980.7 NA 0.0000 9999 2990 0 0 0
2019/03/20 22:39:00 BASE 2.33 82 5.92 139 0.5 100 0.5 1 0 980.7 NA 0.0000 9999 2560 0 0 0
2019/03/20 22:40:01 BASE 2.37 85 5.25 120 0.5 100 0.5 0 0 980.7 NA 0.0000 9999 2760 0 0 0
2019/03/20 22:41:00 BASE 2.69 99 5.20 66 0.5 100 0.5 0 0 980.7 NA 0.0000 9999 2820 0 0 0
2019/03/20 22:42:00 BASE 3.34 115 5.20 66 0.5 100 0.5 0 0 980.7 NA 0.0000 9999 2820 0 0 0
2019/03/20 22:43:00 BASE 3.90 120 5.20 66 0.5 100 0.5 0 0 980.7 NA 0.0000 9999 2620 0 0 0
2019/03/20 22:44:00 BASE 3.43 127 4.78 60 0.5 100 0.5 0 0 980.7 NA 0.0000 9999 2360 0 0 0
2019/03/20 22:45:00 BASE 2.51 155 4.48 116 0.5 100 0.5 0 0 980.7 NA 0.0000 9999 2620 0 0 0
2019/03/20 22:46:00 BASE 2.36 173 4.48 116 0.6 100 0.6 0 0 980.7 NA 0.0000 9999 2660 0 0 0
2019/03/20 22:47:00 BASE 2.75 183 4.48 116 0.6 100 0.6 0 0 980.7 NA 0.0000 9999 2530 0 0 0
2019/03/20 22:48:00 BASE 3.42 184 4.48 116 0.6 100 0.6 0 0 980.7 NA 0.0000 9999 2590 0 0 0
2019/03/20 22:49:00 BASE 4.24 161 5.40 151 0.6 100 0.6 0 0 980.7 NA 0.0000 9999 2660 0 0 0
2019/03/20 22:50:00 BASE 3.94 138 5.40 151 0.6 100 0.6 0 0 980.7 NA 0.0000 9999 2660 0 0 0
2019/03/20 22:51:00 BASE 2.68 144 5.40 151 0.6 100 0.6 0 0 980.7 NA 0.0000 9999 2660 0 0 0
2019/03/20 22:52:00 BASE 2.35 169 5.40 151 0.6 100 0.6 0 0 980.7 NA 0.0000 9999 2760 0 0 0
2019/03/20 22:53:00 BASE 2.98 189 5.40 151 0.6 100 0.6 0 0 980.7 NA 0.0000 9999 2590 0 0 0
2019/03/20 22:54:00 BASE 4.08 196 5.92 188 0.6 100 0.6 0 0 980.7 NA 0.0000 9999 2590 0 0 0
2019/03/20 22:55:00 BASE 5.22 185 6.17 175 0.6 100 0.6 0 0 980.7 NA 0.0000 9999 2590 0 0 0
2019/03/20 22:56:00 BASE 5.08 177 6.17 175 0.6 100 0.6 0 0 980.7 NA 0.0000 9999 2760 0 0 0
2019/03/20 22:57:00 BASE 4.62 163 6.17 175 0.6 100 0.6 0 0 980.7 NA 0.0000 9999 2790 0 0 0
2019/03/20 22:58:00 BASE 4.98 150 6.17 175 0.6 100 0.6 0 0 980.7 NA 0.0000 9999 2530 0 0 0
2019/03/20 22:59:00 BASE 4.88 153 6.17 175 0.6 100 0.6 0 0 980.7 NA 0.0000 9999 2560 0 0 0
2019/03/20 23:00:00 BASE 4.69 154 6.17 175 0.6 100 0.6 0 0 980.7 NA 0.0000 9999 2660 0 0 0
2019/03/20 23:01:00 BASE 4.77 151 6.17 175 0.6 100 0.6 0 0 980.7 NA 0.0000 9999 2560 0 0 0
2019/03/20 23:02:00 BASE 4.77 141 6.17 175 0.6 100 0.6 0 0 980.7 NA 0.0000 9999 2560 0 0 0
2019/03/20 23:03:00 BASE 4.72 135 6.17 175 0.6 100 0.6 0 0 980.7 NA 0.0000 9999 2690 0 0 0
2019/03/20 23:04:00 BASE 4.57 143 6.17 175 0.6 100 0.6 0 0 980.7 NA 0.0000 9999 2660 0 0 0
2019/03/20 23:05:00 BASE 5.17 150 7.15 152 0.6 100 0.6 0 0 980.6 NA 0.0000 9999 2660 3970 0 0
2019/03/20 23:06:00 BASE 6.97 152 8.95 164 0.6 100 0.6 0 0 980.6 NA 0.0000 9999 2720 3770 0 0
2019/03/20 23:07:00 BASE 6.25 158 9.47 151 0.7 100 0.7 0 0 980.6 NA 0.0000 9999 2660 0 0 0
2019/03/20 23:08:00 BASE 3.91 163 9.47 151 0.7 100 0.7 0 0 980.7 NA 0.0000 9999 2720 0 0 0
2019/03/20 23:09:00 BASE 3.32 122 9.47 151 0.8 100 0.8 0 0 980.8 NA 0.0000 9999 2790 0 0 0
2019/03/20 23:10:00 BASE 1.92 94 9.47 151 0.8 100 0.8 0 0 980.8 NA 0.0000 9999 2820 0 0 0
2019/03/20 23:11:00 BASE 0.47 86 9.47 151 0.8 100 0.8 0 0 980.8 NA 0.0000 9999 2850 0 0 0
2019/03/20 23:12:00 BASE 0.17 41 9.47 151 0.8 100 0.8 0 0 980.9 NA 0.0000 9999 2530 0 0 0
2019/03/20 23:13:00 BASE 0.00 312 9.47 151 0.7 100 0.7 0 0 980.9 NA 0.0000 9999 2620 0 0 0
2019/03/20 23:14:00 BASE 0.00 341 9.47 151 0.7 100 0.7 0 0 980.9 NA 0.0000 9999 2490 2990 0 0
2019/03/20 23:15:00 BASE 0.41 92 9.47 151 0.7 100 0.7 0 0 980.9 NA 0.0000 9999 2720 0 0 0
2019/03/20 23:16:00 BASE 1.27 112 9.47 151 0.7 100 0.7 0 0 980.9 NA 0.0000 9999 2690 0 0 0
2019/03/20 23:17:00 BASE 1.97 120 5.56 136 0.7 100 0.7 0 0 980.9 NA 0.0000 9999 2990 0 0 0
2019/03/20 23:18:00 BASE 2.70 133 3.86 104 0.7 100 0.7 0 0 980.9 NA 0.0000 9999 2590 0 0 0
2019/03/20 23:19:00 BASE 2.57 139 3.76 129 0.7 100 0.7 0 0 980.9 NA 0.0000 9999 2590 0 0 0
2019/03/20 23:20:00 BASE 1.42 148 3.76 129 0.7 100 0.7 0 0 980.9 NA 0.0000 9999 2560 3120 0 0
2019/03/20 23:21:00 BASE 0.52 170 3.76 129 0.7 100 0.7 0 0 981.0 NA 0.0000 9999 2530 0 0 0
2019/03/20 23:22:00 BASE 0.09 327 3.76 129 0.7 100 0.7 0 0 981.0 NA 0.0000 9999 2620 0 0 0
2019/03/20 23:23:00 BASE 0.47 359 3.76 129 0.7 100 0.7 0 0 981.0 NA 0.0000 9999 2620 0 0 0
2019/03/20 23:24:00 BASE 1.52 19 3.76 129 0.7 100 0.7 0 0 981.0 NA 0.0000 9999 2430 0 0 0
2019/03/20 23:25:00 BASE 1.81 23 3.76 129 0.8 100 0.8 0 0 981.0 NA 0.0000 9999 2490 2990 0 0
2019/03/20 23:26:00 BASE 1.44 34 3.76 129 0.8 100 0.8 0 0 981.0 NA 0.0000 9999 2850 0 0 0
2019/03/20 23:27:00 BASE 0.82 55 3.76 129 0.8 100 0.8 0 0 981.0 NA 0.0000 9999 2790 0 0 0
2019/03/20 23:28:00 BASE 0.74 107 2.88 138 0.9 100 0.9 0 0 981.0 NA 0.0000 9999 2660 0 0 0
2019/03/20 23:29:00 BASE 1.88 159 2.93 183 0.9 100 0.9 0 0 981.0 NA 0.0000 9999 2690 0 0 0
2019/03/20 23:30:00 BASE 2.70 165 3.24 162 0.9 100 0.9 0 0 981.0 NA 0.0000 9999 2530 0 0 0
2019/03/20 23:31:00 BASE 3.10 163 3.70 155 0.9 100 0.9 0 0 981.0 NA 0.0000 9999 2460 0 0 0
2019/03/20 23:32:00 BASE 3.61 157 4.63 152 0.9 100 0.9 0 0 981.0 NA 0.0000 9999 2430 0 0 0
2019/03/20 23:33:00 BASE 4.16 146 4.78 137 0.9 100 0.9 0 0 981.0 NA 0.0000 9999 2400 0 0 0
2019/03/20 23:34:00 BASE 4.30 129 5.61 127 0.9 100 0.9 0 0 981.1 NA 0.0000 9999 2560 0 0 0
2019/03/20 23:35:00 BASE 3.26 86 5.61 127 0.9 100 0.9 0 0 981.2 NA 0.0000 9999 2660 0 0 0
2019/03/20 23:36:00 BASE 2.35 54 5.61 127 0.9 100 0.9 0 0 981.2 NA 0.0000 9999 2560 0 0 0
2019/03/20 23:37:00 BASE 2.22 71 5.61 127 0.8 100 0.8 0 0 981.2 NA 0.0000 9999 2560 0 0 0
2019/03/20 23:38:00 BASE 1.94 95 5.61 127 0.8 100 0.8 0 0 981.2 NA 0.0000 9999 2460 0 0 0
2019/03/20 23:39:00 BASE 2.38 122 5.61 127 0.8 100 0.8 0 0 981.1 NA 0.0000 9999 2430 0 0 0
2019/03/20 23:40:00 BASE 3.37 124 5.61 127 0.9 100 0.9 0 0 981.1 NA 0.0000 9999 2490 0 0 0
2019/03/20 23:41:00 BASE 3.33 90 5.61 127 0.9 100 0.9 0 0 981.1 NA 0.0000 9999 2360 0 0 0
2019/03/20 23:42:00 BASE 2.75 66 5.61 127 1.0 100 1.0 0 0 981.2 NA 0.0000 9999 2360 0 0 0
2019/03/20 23:43:00 BASE 2.26 69 5.61 127 1.1 100 1.1 0 0 981.2 NA 0.0000 9999 2460 0 0 0
2019/03/20 23:44:00 BASE 2.06 86 5.45 70 1.2 100 1.2 0 0 981.2 NA 0.0000 9999 2460 0 0 0
2019/03/20 23:45:00 BASE 2.35 83 5.45 70 1.3 100 1.3 0 0 981.2 NA 0.0000 9999 2430 0 0 0
2019/03/20 23:46:00 BASE 2.54 60 5.45 70 1.4 100 1.4 0 0 981.2 NA 0.0000 9999 2460 0 0 0
2019/03/20 23:47:00 BASE 3.10 42 5.45 70 1.4 100 1.4 0 0 981.2 NA 0.0000 9999 2590 0 0 0
2019/03/20 23:48:00 BASE 3.84 28 5.45 31 1.4 100 1.4 0 0 981.2 NA 0.0000 9999 2530 0 0 0
2019/03/20 23:49:00 BASE 3.65 2 5.45 31 1.4 100 1.4 0 0 981.2 NA 0.0000 9999 2560 0 0 0
2019/03/20 23:50:00 BASE 4.09 357 5.86 20 1.5 100 1.5 0 0 981.2 NA 0.0000 9999 2850 0 0 0
2019/03/20 23:51:00 BASE 4.77 14 7.51 360 1.6 100 1.6 0 0 981.2 NA 0.0000 9999 2530 3250 0 0
2019/03/20 23:52:00 BASE 4.26 15 7.51 360 1.7 100 1.7 0 0 981.2 NA 0.0000 9999 2530 4400 0 0
2019/03/20 23:53:00 BASE 4.34 2 7.51 360 1.8 100 1.8 0 0 981.2 NA 0.0000 9999 2460 0 0 0
2019/03/20 23:54:00 BASE 4.66 346 7.51 360 1.8 100 1.8 0 0 981.2 NA 0.0000 9999 2590 0 0 0
2019/03/20 23:55:00 BASE 4.22 342 7.51 360 1.8 100 1.8 0 0 981.2 NA 0.0000 9999 2690 4720 0 0
2019/03/20 23:56:00 BASE 3.98 339 7.51 360 1.8 100 1.8 0 0 981.2 NA 0.0000 9999 3150 3940 0 0
2019/03/20 23:57:00 BASE 4.06 327 7.51 360 1.8 100 1.8 0 0 981.2 NA 0.0000 9999 2490 3020 4400 0
2019/03/20 23:58:00 BASE 4.37 318 7.51 360 1.7 100 1.7 0 0 981.2 NA 0.0000 9999 2460 4230 5810 0
2019/03/20 23:59:00 BASE 5.00 323 7.51 360 1.6 100 1.6 0 0 981.2 NA 0.0000 9999 2430 4200 5840 0